<?xml version="1.0" encoding="UTF-8" standalone="no" ?>
<gpx xmlns="http://www.topografix.com/GPX/1/1" xmlns:xsi="http://www.w3.org/2001/XMLSchema-instance" xsi:schemaLocation="http://www.topografix.com/GPX/1/1 http://www.topografix.com/GPX/1/1/gpx.xsd" version="1.1" creator="VisuGPX - https://www.visugpx.com">
  <metadata>
    <name>Bulgarie - Serbie j20</name>
    <desc><![CDATA[File with points/tracks from Locus Map/3.37.2]]></desc>
  </metadata>
  <trk>
    <name><![CDATA[2022-06-06 j19]]></name>
    <trkseg>
      <trkpt lat="43.09943" lon="23.10215">
        <ele>1064.1</ele>
        <time>2022-06-06T05:05:03.000Z</time>
      </trkpt>
      <trkpt lat="43.09902" lon="23.10165">
        <ele>1130.46</ele>
        <time>2022-06-06T05:05:08.000Z</time>
      </trkpt>
      <trkpt lat="43.09894" lon="23.10153">
        <ele>1146.15</ele>
        <time>2022-06-06T05:05:13.000Z</time>
      </trkpt>
      <trkpt lat="43.09883" lon="23.10151">
        <ele>1156.05</ele>
        <time>2022-06-06T05:05:46.000Z</time>
      </trkpt>
      <trkpt lat="43.09895" lon="23.10145">
        <ele>1146.8</ele>
        <time>2022-06-06T05:09:23.000Z</time>
      </trkpt>
      <trkpt lat="43.09904" lon="23.10141">
        <ele>1146.87</ele>
        <time>2022-06-06T05:09:32.000Z</time>
      </trkpt>
      <trkpt lat="43.09912" lon="23.10135">
        <ele>1146.9</ele>
        <time>2022-06-06T05:09:43.000Z</time>
      </trkpt>
      <trkpt lat="43.099" lon="23.10141">
        <ele>1146.9</ele>
        <time>2022-06-06T05:09:58.000Z</time>
      </trkpt>
      <trkpt lat="43.09894" lon="23.1015">
        <ele>1146.81</ele>
        <time>2022-06-06T05:10:05.000Z</time>
      </trkpt>
      <trkpt lat="43.09887" lon="23.10159">
        <ele>1146.6</ele>
        <time>2022-06-06T05:10:16.000Z</time>
      </trkpt>
      <trkpt lat="43.09884" lon="23.10171">
        <ele>1146.7</ele>
        <time>2022-06-06T05:10:31.000Z</time>
      </trkpt>
      <trkpt lat="43.09874" lon="23.10156">
        <ele>1146.8</ele>
        <time>2022-06-06T05:10:51.000Z</time>
      </trkpt>
      <trkpt lat="43.09872" lon="23.10144">
        <ele>1145.73</ele>
        <time>2022-06-06T05:11:00.000Z</time>
      </trkpt>
      <trkpt lat="43.09876" lon="23.10132">
        <ele>1146.77</ele>
        <time>2022-06-06T05:11:15.000Z</time>
      </trkpt>
      <trkpt lat="43.09879" lon="23.1012">
        <ele>1147</ele>
        <time>2022-06-06T05:11:29.000Z</time>
      </trkpt>
      <trkpt lat="43.09886" lon="23.10103">
        <ele>1147.98</ele>
        <time>2022-06-06T05:13:10.000Z</time>
      </trkpt>
      <trkpt lat="43.09879" lon="23.10094">
        <ele>1148.01</ele>
        <time>2022-06-06T05:13:15.000Z</time>
      </trkpt>
      <trkpt lat="43.09864" lon="23.10091">
        <ele>1147.53</ele>
        <time>2022-06-06T05:13:20.000Z</time>
      </trkpt>
      <trkpt lat="43.09844" lon="23.10085">
        <ele>1147.14</ele>
        <time>2022-06-06T05:13:25.000Z</time>
      </trkpt>
      <trkpt lat="43.09818" lon="23.10078">
        <ele>1145.98</ele>
        <time>2022-06-06T05:13:30.000Z</time>
      </trkpt>
      <trkpt lat="43.0979" lon="23.10068">
        <ele>1144.18</ele>
        <time>2022-06-06T05:13:35.000Z</time>
      </trkpt>
      <trkpt lat="43.09758" lon="23.10056">
        <ele>1142.33</ele>
        <time>2022-06-06T05:13:40.000Z</time>
      </trkpt>
      <trkpt lat="43.09725" lon="23.10042">
        <ele>1140.59</ele>
        <time>2022-06-06T05:13:45.000Z</time>
      </trkpt>
      <trkpt lat="43.09689" lon="23.10027">
        <ele>1139.39</ele>
        <time>2022-06-06T05:13:50.000Z</time>
      </trkpt>
      <trkpt lat="43.09652" lon="23.10011">
        <ele>1137.95</ele>
        <time>2022-06-06T05:13:55.000Z</time>
      </trkpt>
      <trkpt lat="43.09613" lon="23.09994">
        <ele>1136.04</ele>
        <time>2022-06-06T05:14:00.000Z</time>
      </trkpt>
      <trkpt lat="43.0957" lon="23.09977">
        <ele>1133.74</ele>
        <time>2022-06-06T05:14:05.000Z</time>
      </trkpt>
      <trkpt lat="43.09525" lon="23.09958">
        <ele>1131.64</ele>
        <time>2022-06-06T05:14:10.000Z</time>
      </trkpt>
      <trkpt lat="43.09479" lon="23.09938">
        <ele>1129.81</ele>
        <time>2022-06-06T05:14:15.000Z</time>
      </trkpt>
      <trkpt lat="43.0943" lon="23.09917">
        <ele>1128.22</ele>
        <time>2022-06-06T05:14:20.000Z</time>
      </trkpt>
      <trkpt lat="43.09384" lon="23.09895">
        <ele>1125.31</ele>
        <time>2022-06-06T05:14:25.000Z</time>
      </trkpt>
      <trkpt lat="43.09338" lon="23.09876">
        <ele>1121.6</ele>
        <time>2022-06-06T05:14:30.000Z</time>
      </trkpt>
      <trkpt lat="43.09291" lon="23.09857">
        <ele>1118.67</ele>
        <time>2022-06-06T05:14:35.000Z</time>
      </trkpt>
      <trkpt lat="43.09243" lon="23.09836">
        <ele>1115.53</ele>
        <time>2022-06-06T05:14:40.000Z</time>
      </trkpt>
      <trkpt lat="43.09193" lon="23.09823">
        <ele>1112.41</ele>
        <time>2022-06-06T05:14:45.000Z</time>
      </trkpt>
      <trkpt lat="43.09145" lon="23.09811">
        <ele>1110.35</ele>
        <time>2022-06-06T05:14:50.000Z</time>
      </trkpt>
      <trkpt lat="43.09095" lon="23.098">
        <ele>1106.67</ele>
        <time>2022-06-06T05:14:55.000Z</time>
      </trkpt>
      <trkpt lat="43.09049" lon="23.09804">
        <ele>1103.51</ele>
        <time>2022-06-06T05:15:00.000Z</time>
      </trkpt>
      <trkpt lat="43.09007" lon="23.09817">
        <ele>1100.58</ele>
        <time>2022-06-06T05:15:05.000Z</time>
      </trkpt>
      <trkpt lat="43.08966" lon="23.09829">
        <ele>1099.46</ele>
        <time>2022-06-06T05:15:10.000Z</time>
      </trkpt>
      <trkpt lat="43.08929" lon="23.09848">
        <ele>1098.5</ele>
        <time>2022-06-06T05:15:15.000Z</time>
      </trkpt>
      <trkpt lat="43.08893" lon="23.09878">
        <ele>1097.57</ele>
        <time>2022-06-06T05:15:20.000Z</time>
      </trkpt>
      <trkpt lat="43.08859" lon="23.09906">
        <ele>1097.31</ele>
        <time>2022-06-06T05:15:25.000Z</time>
      </trkpt>
      <trkpt lat="43.08825" lon="23.09934">
        <ele>1096.47</ele>
        <time>2022-06-06T05:15:30.000Z</time>
      </trkpt>
      <trkpt lat="43.08793" lon="23.09963">
        <ele>1095.46</ele>
        <time>2022-06-06T05:15:35.000Z</time>
      </trkpt>
      <trkpt lat="43.08762" lon="23.09995">
        <ele>1094.29</ele>
        <time>2022-06-06T05:15:40.000Z</time>
      </trkpt>
      <trkpt lat="43.0873" lon="23.1003">
        <ele>1091.82</ele>
        <time>2022-06-06T05:15:45.000Z</time>
      </trkpt>
      <trkpt lat="43.08696" lon="23.10066">
        <ele>1089.37</ele>
        <time>2022-06-06T05:15:50.000Z</time>
      </trkpt>
      <trkpt lat="43.08662" lon="23.10102">
        <ele>1087.2</ele>
        <time>2022-06-06T05:15:55.000Z</time>
      </trkpt>
      <trkpt lat="43.0863" lon="23.10136">
        <ele>1085.49</ele>
        <time>2022-06-06T05:16:00.000Z</time>
      </trkpt>
      <trkpt lat="43.08599" lon="23.1017">
        <ele>1082.85</ele>
        <time>2022-06-06T05:16:05.000Z</time>
      </trkpt>
      <trkpt lat="43.08567" lon="23.10205">
        <ele>1083.03</ele>
        <time>2022-06-06T05:16:10.000Z</time>
      </trkpt>
      <trkpt lat="43.08532" lon="23.1023">
        <ele>1083.48</ele>
        <time>2022-06-06T05:16:15.000Z</time>
      </trkpt>
      <trkpt lat="43.08494" lon="23.10252">
        <ele>1083.51</ele>
        <time>2022-06-06T05:16:20.000Z</time>
      </trkpt>
      <trkpt lat="43.08456" lon="23.10272">
        <ele>1083.64</ele>
        <time>2022-06-06T05:16:25.000Z</time>
      </trkpt>
      <trkpt lat="43.08418" lon="23.10292">
        <ele>1082.58</ele>
        <time>2022-06-06T05:16:30.000Z</time>
      </trkpt>
      <trkpt lat="43.08379" lon="23.10313">
        <ele>1081</ele>
        <time>2022-06-06T05:16:35.000Z</time>
      </trkpt>
      <trkpt lat="43.0834" lon="23.10334">
        <ele>1079.75</ele>
        <time>2022-06-06T05:16:40.000Z</time>
      </trkpt>
      <trkpt lat="43.08301" lon="23.10355">
        <ele>1078.99</ele>
        <time>2022-06-06T05:16:45.000Z</time>
      </trkpt>
      <trkpt lat="43.08265" lon="23.10374">
        <ele>1077.31</ele>
        <time>2022-06-06T05:16:50.000Z</time>
      </trkpt>
      <trkpt lat="43.08227" lon="23.10397">
        <ele>1075.86</ele>
        <time>2022-06-06T05:16:55.000Z</time>
      </trkpt>
      <trkpt lat="43.08192" lon="23.1042">
        <ele>1074.04</ele>
        <time>2022-06-06T05:17:00.000Z</time>
      </trkpt>
      <trkpt lat="43.08167" lon="23.10457">
        <ele>1071.31</ele>
        <time>2022-06-06T05:17:05.000Z</time>
      </trkpt>
      <trkpt lat="43.08146" lon="23.105">
        <ele>1069.58</ele>
        <time>2022-06-06T05:17:10.000Z</time>
      </trkpt>
      <trkpt lat="43.08126" lon="23.1054">
        <ele>1069.16</ele>
        <time>2022-06-06T05:17:15.000Z</time>
      </trkpt>
      <trkpt lat="43.08101" lon="23.10575">
        <ele>1068.38</ele>
        <time>2022-06-06T05:17:20.000Z</time>
      </trkpt>
      <trkpt lat="43.08067" lon="23.10597">
        <ele>1069.06</ele>
        <time>2022-06-06T05:17:25.000Z</time>
      </trkpt>
      <trkpt lat="43.08031" lon="23.10616">
        <ele>1068.66</ele>
        <time>2022-06-06T05:17:30.000Z</time>
      </trkpt>
      <trkpt lat="43.07993" lon="23.10634">
        <ele>1067.84</ele>
        <time>2022-06-06T05:17:35.000Z</time>
      </trkpt>
      <trkpt lat="43.07959" lon="23.10653">
        <ele>1066.91</ele>
        <time>2022-06-06T05:17:40.000Z</time>
      </trkpt>
      <trkpt lat="43.07924" lon="23.10673">
        <ele>1067.2</ele>
        <time>2022-06-06T05:17:45.000Z</time>
      </trkpt>
      <trkpt lat="43.07889" lon="23.10693">
        <ele>1067.22</ele>
        <time>2022-06-06T05:17:50.000Z</time>
      </trkpt>
      <trkpt lat="43.07853" lon="23.10709">
        <ele>1067.16</ele>
        <time>2022-06-06T05:17:55.000Z</time>
      </trkpt>
      <trkpt lat="43.07814" lon="23.10723">
        <ele>1066.11</ele>
        <time>2022-06-06T05:18:00.000Z</time>
      </trkpt>
      <trkpt lat="43.07775" lon="23.10734">
        <ele>1065.24</ele>
        <time>2022-06-06T05:18:05.000Z</time>
      </trkpt>
      <trkpt lat="43.07736" lon="23.10742">
        <ele>1064.37</ele>
        <time>2022-06-06T05:18:10.000Z</time>
      </trkpt>
      <trkpt lat="43.07696" lon="23.1075">
        <ele>1063.05</ele>
        <time>2022-06-06T05:18:15.000Z</time>
      </trkpt>
      <trkpt lat="43.07658" lon="23.10757">
        <ele>1061.67</ele>
        <time>2022-06-06T05:18:20.000Z</time>
      </trkpt>
      <trkpt lat="43.07618" lon="23.10765">
        <ele>1060.8</ele>
        <time>2022-06-06T05:18:25.000Z</time>
      </trkpt>
      <trkpt lat="43.0758" lon="23.10772">
        <ele>1061.24</ele>
        <time>2022-06-06T05:18:30.000Z</time>
      </trkpt>
      <trkpt lat="43.07542" lon="23.1078">
        <ele>1060.03</ele>
        <time>2022-06-06T05:18:35.000Z</time>
      </trkpt>
      <trkpt lat="43.07504" lon="23.10787">
        <ele>1059.6</ele>
        <time>2022-06-06T05:18:40.000Z</time>
      </trkpt>
      <trkpt lat="43.07466" lon="23.10795">
        <ele>1059.34</ele>
        <time>2022-06-06T05:18:45.000Z</time>
      </trkpt>
      <trkpt lat="43.07428" lon="23.10802">
        <ele>1058.06</ele>
        <time>2022-06-06T05:18:50.000Z</time>
      </trkpt>
      <trkpt lat="43.07389" lon="23.10801">
        <ele>1056.44</ele>
        <time>2022-06-06T05:18:55.000Z</time>
      </trkpt>
      <trkpt lat="43.07353" lon="23.1081">
        <ele>1054.61</ele>
        <time>2022-06-06T05:19:00.000Z</time>
      </trkpt>
      <trkpt lat="43.07318" lon="23.1082">
        <ele>1054.01</ele>
        <time>2022-06-06T05:19:05.000Z</time>
      </trkpt>
      <trkpt lat="43.07281" lon="23.10834">
        <ele>1053.84</ele>
        <time>2022-06-06T05:19:10.000Z</time>
      </trkpt>
      <trkpt lat="43.07247" lon="23.10854">
        <ele>1052.7</ele>
        <time>2022-06-06T05:19:15.000Z</time>
      </trkpt>
      <trkpt lat="43.07217" lon="23.10876">
        <ele>1052.67</ele>
        <time>2022-06-06T05:19:20.000Z</time>
      </trkpt>
      <trkpt lat="43.07195" lon="23.10891">
        <ele>1052.43</ele>
        <time>2022-06-06T05:19:25.000Z</time>
      </trkpt>
      <trkpt lat="43.07177" lon="23.10901">
        <ele>1052.03</ele>
        <time>2022-06-06T05:19:30.000Z</time>
      </trkpt>
      <trkpt lat="43.07162" lon="23.10904">
        <ele>1051.93</ele>
        <time>2022-06-06T05:19:35.000Z</time>
      </trkpt>
      <trkpt lat="43.07138" lon="23.10901">
        <ele>1051.63</ele>
        <time>2022-06-06T05:19:40.000Z</time>
      </trkpt>
      <trkpt lat="43.07118" lon="23.10891">
        <ele>1051.33</ele>
        <time>2022-06-06T05:19:45.000Z</time>
      </trkpt>
      <trkpt lat="43.07092" lon="23.10871">
        <ele>1051.01</ele>
        <time>2022-06-06T05:19:50.000Z</time>
      </trkpt>
      <trkpt lat="43.07033" lon="23.10821">
        <ele>1050.63</ele>
        <time>2022-06-06T05:19:55.000Z</time>
      </trkpt>
      <trkpt lat="43.06998" lon="23.10792">
        <ele>1050.42</ele>
        <time>2022-06-06T05:20:00.000Z</time>
      </trkpt>
      <trkpt lat="43.06964" lon="23.10776">
        <ele>1050.55</ele>
        <time>2022-06-06T05:20:05.000Z</time>
      </trkpt>
      <trkpt lat="43.06933" lon="23.10773">
        <ele>1050.98</ele>
        <time>2022-06-06T05:20:10.000Z</time>
      </trkpt>
      <trkpt lat="43.06913" lon="23.10773">
        <ele>1051.98</ele>
        <time>2022-06-06T05:20:15.000Z</time>
      </trkpt>
      <trkpt lat="43.06901" lon="23.10773">
        <ele>1053.23</ele>
        <time>2022-06-06T05:20:20.000Z</time>
      </trkpt>
      <trkpt lat="43.06891" lon="23.10773">
        <ele>1054.26</ele>
        <time>2022-06-06T05:20:25.000Z</time>
      </trkpt>
      <trkpt lat="43.06881" lon="23.10773">
        <ele>1055.58</ele>
        <time>2022-06-06T05:20:30.000Z</time>
      </trkpt>
      <trkpt lat="43.06872" lon="23.10773">
        <ele>1056.56</ele>
        <time>2022-06-06T05:20:35.000Z</time>
      </trkpt>
      <trkpt lat="43.06862" lon="23.10773">
        <ele>1057.2</ele>
        <time>2022-06-06T05:20:40.000Z</time>
      </trkpt>
      <trkpt lat="43.06851" lon="23.10772">
        <ele>1059.04</ele>
        <time>2022-06-06T05:20:45.000Z</time>
      </trkpt>
      <trkpt lat="43.06842" lon="23.10771">
        <ele>1060.13</ele>
        <time>2022-06-06T05:20:50.000Z</time>
      </trkpt>
      <trkpt lat="43.06832" lon="23.10773">
        <ele>1060.88</ele>
        <time>2022-06-06T05:20:56.000Z</time>
      </trkpt>
      <trkpt lat="43.06823" lon="23.10776">
        <ele>1063.96</ele>
        <time>2022-06-06T05:21:03.000Z</time>
      </trkpt>
      <trkpt lat="43.06813" lon="23.10775">
        <ele>1065.65</ele>
        <time>2022-06-06T05:21:08.000Z</time>
      </trkpt>
      <trkpt lat="43.06804" lon="23.10775">
        <ele>1067.68</ele>
        <time>2022-06-06T05:21:13.000Z</time>
      </trkpt>
      <trkpt lat="43.06794" lon="23.10775">
        <ele>1068.91</ele>
        <time>2022-06-06T05:21:19.000Z</time>
      </trkpt>
      <trkpt lat="43.06784" lon="23.10777">
        <ele>1070.16</ele>
        <time>2022-06-06T05:21:26.000Z</time>
      </trkpt>
      <trkpt lat="43.06774" lon="23.10777">
        <ele>1071.33</ele>
        <time>2022-06-06T05:21:32.000Z</time>
      </trkpt>
      <trkpt lat="43.06764" lon="23.10779">
        <ele>1072.8</ele>
        <time>2022-06-06T05:21:38.000Z</time>
      </trkpt>
      <trkpt lat="43.06754" lon="23.1078">
        <ele>1074.9</ele>
        <time>2022-06-06T05:21:45.000Z</time>
      </trkpt>
      <trkpt lat="43.06743" lon="23.1078">
        <ele>1076.14</ele>
        <time>2022-06-06T05:21:51.000Z</time>
      </trkpt>
      <trkpt lat="43.06734" lon="23.10779">
        <ele>1077.36</ele>
        <time>2022-06-06T05:21:57.000Z</time>
      </trkpt>
      <trkpt lat="43.06724" lon="23.1078">
        <ele>1078.06</ele>
        <time>2022-06-06T05:22:03.000Z</time>
      </trkpt>
      <trkpt lat="43.06714" lon="23.10782">
        <ele>1078.87</ele>
        <time>2022-06-06T05:22:09.000Z</time>
      </trkpt>
      <trkpt lat="43.06704" lon="23.10783">
        <ele>1079.86</ele>
        <time>2022-06-06T05:22:16.000Z</time>
      </trkpt>
      <trkpt lat="43.06694" lon="23.1078">
        <ele>1080.73</ele>
        <time>2022-06-06T05:22:21.000Z</time>
      </trkpt>
      <trkpt lat="43.06684" lon="23.10781">
        <ele>1081.81</ele>
        <time>2022-06-06T05:22:27.000Z</time>
      </trkpt>
      <trkpt lat="43.06674" lon="23.1078">
        <ele>1082.69</ele>
        <time>2022-06-06T05:22:33.000Z</time>
      </trkpt>
      <trkpt lat="43.06664" lon="23.10776">
        <ele>1082.69</ele>
        <time>2022-06-06T05:22:39.000Z</time>
      </trkpt>
      <trkpt lat="43.06655" lon="23.10775">
        <ele>1083.24</ele>
        <time>2022-06-06T05:22:46.000Z</time>
      </trkpt>
      <trkpt lat="43.06646" lon="23.10771">
        <ele>1084.04</ele>
        <time>2022-06-06T05:22:51.000Z</time>
      </trkpt>
      <trkpt lat="43.06636" lon="23.10767">
        <ele>1084.2</ele>
        <time>2022-06-06T05:22:56.000Z</time>
      </trkpt>
      <trkpt lat="43.06627" lon="23.10763">
        <ele>1084.45</ele>
        <time>2022-06-06T05:23:01.000Z</time>
      </trkpt>
      <trkpt lat="43.06617" lon="23.10759">
        <ele>1085.36</ele>
        <time>2022-06-06T05:23:07.000Z</time>
      </trkpt>
      <trkpt lat="43.06606" lon="23.10758">
        <ele>1085.86</ele>
        <time>2022-06-06T05:23:12.000Z</time>
      </trkpt>
      <trkpt lat="43.06596" lon="23.10758">
        <ele>1086.46</ele>
        <time>2022-06-06T05:23:17.000Z</time>
      </trkpt>
      <trkpt lat="43.06588" lon="23.10762">
        <ele>1087.17</ele>
        <time>2022-06-06T05:23:23.000Z</time>
      </trkpt>
      <trkpt lat="43.06578" lon="23.10765">
        <ele>1087.22</ele>
        <time>2022-06-06T05:23:28.000Z</time>
      </trkpt>
      <trkpt lat="43.06569" lon="23.10768">
        <ele>1087.3</ele>
        <time>2022-06-06T05:23:33.000Z</time>
      </trkpt>
      <trkpt lat="43.06559" lon="23.10772">
        <ele>1087.37</ele>
        <time>2022-06-06T05:23:38.000Z</time>
      </trkpt>
      <trkpt lat="43.06549" lon="23.10778">
        <ele>1087.57</ele>
        <time>2022-06-06T05:23:44.000Z</time>
      </trkpt>
      <trkpt lat="43.06542" lon="23.10785">
        <ele>1087.72</ele>
        <time>2022-06-06T05:23:50.000Z</time>
      </trkpt>
      <trkpt lat="43.06533" lon="23.1079">
        <ele>1087.97</ele>
        <time>2022-06-06T05:23:55.000Z</time>
      </trkpt>
      <trkpt lat="43.06524" lon="23.10797">
        <ele>1088.76</ele>
        <time>2022-06-06T05:24:01.000Z</time>
      </trkpt>
      <trkpt lat="43.06515" lon="23.10803">
        <ele>1089.48</ele>
        <time>2022-06-06T05:24:06.000Z</time>
      </trkpt>
      <trkpt lat="43.06505" lon="23.10806">
        <ele>1089.7</ele>
        <time>2022-06-06T05:24:12.000Z</time>
      </trkpt>
      <trkpt lat="43.06496" lon="23.10811">
        <ele>1089.23</ele>
        <time>2022-06-06T05:24:17.000Z</time>
      </trkpt>
      <trkpt lat="43.06487" lon="23.10817">
        <ele>1089.54</ele>
        <time>2022-06-06T05:24:23.000Z</time>
      </trkpt>
      <trkpt lat="43.06477" lon="23.10822">
        <ele>1090.54</ele>
        <time>2022-06-06T05:24:30.000Z</time>
      </trkpt>
      <trkpt lat="43.06467" lon="23.10825">
        <ele>1091.09</ele>
        <time>2022-06-06T05:24:36.000Z</time>
      </trkpt>
      <trkpt lat="43.06458" lon="23.10828">
        <ele>1091.37</ele>
        <time>2022-06-06T05:24:41.000Z</time>
      </trkpt>
      <trkpt lat="43.06446" lon="23.10829">
        <ele>1091.57</ele>
        <time>2022-06-06T05:24:46.000Z</time>
      </trkpt>
      <trkpt lat="43.06437" lon="23.10832">
        <ele>1092.07</ele>
        <time>2022-06-06T05:24:51.000Z</time>
      </trkpt>
      <trkpt lat="43.06428" lon="23.10839">
        <ele>1093.11</ele>
        <time>2022-06-06T05:24:57.000Z</time>
      </trkpt>
      <trkpt lat="43.0642" lon="23.10847">
        <ele>1094.26</ele>
        <time>2022-06-06T05:25:03.000Z</time>
      </trkpt>
      <trkpt lat="43.06412" lon="23.10857">
        <ele>1094.29</ele>
        <time>2022-06-06T05:25:09.000Z</time>
      </trkpt>
      <trkpt lat="43.06406" lon="23.10868">
        <ele>1095.04</ele>
        <time>2022-06-06T05:25:15.000Z</time>
      </trkpt>
      <trkpt lat="43.06399" lon="23.10877">
        <ele>1095.87</ele>
        <time>2022-06-06T05:25:21.000Z</time>
      </trkpt>
      <trkpt lat="43.06392" lon="23.10888">
        <ele>1096.66</ele>
        <time>2022-06-06T05:25:27.000Z</time>
      </trkpt>
      <trkpt lat="43.06388" lon="23.10898">
        <ele>1097.54</ele>
        <time>2022-06-06T05:25:32.000Z</time>
      </trkpt>
      <trkpt lat="43.06382" lon="23.1091">
        <ele>1098.54</ele>
        <time>2022-06-06T05:25:38.000Z</time>
      </trkpt>
      <trkpt lat="43.06374" lon="23.10921">
        <ele>1099.08</ele>
        <time>2022-06-06T05:25:45.000Z</time>
      </trkpt>
      <trkpt lat="43.06368" lon="23.10932">
        <ele>1100.23</ele>
        <time>2022-06-06T05:25:51.000Z</time>
      </trkpt>
      <trkpt lat="43.06361" lon="23.10942">
        <ele>1101.39</ele>
        <time>2022-06-06T05:25:57.000Z</time>
      </trkpt>
      <trkpt lat="43.06355" lon="23.10954">
        <ele>1102.1</ele>
        <time>2022-06-06T05:26:03.000Z</time>
      </trkpt>
      <trkpt lat="43.06348" lon="23.10964">
        <ele>1102.77</ele>
        <time>2022-06-06T05:26:09.000Z</time>
      </trkpt>
      <trkpt lat="43.06342" lon="23.10974">
        <ele>1103</ele>
        <time>2022-06-06T05:26:15.000Z</time>
      </trkpt>
      <trkpt lat="43.06335" lon="23.10984">
        <ele>1103.1</ele>
        <time>2022-06-06T05:26:21.000Z</time>
      </trkpt>
      <trkpt lat="43.06327" lon="23.10994">
        <ele>1103.22</ele>
        <time>2022-06-06T05:26:27.000Z</time>
      </trkpt>
      <trkpt lat="43.06319" lon="23.11005">
        <ele>1103.37</ele>
        <time>2022-06-06T05:26:32.000Z</time>
      </trkpt>
      <trkpt lat="43.06311" lon="23.11013">
        <ele>1103.39</ele>
        <time>2022-06-06T05:26:37.000Z</time>
      </trkpt>
      <trkpt lat="43.06302" lon="23.11019">
        <ele>1103.64</ele>
        <time>2022-06-06T05:26:42.000Z</time>
      </trkpt>
      <trkpt lat="43.06294" lon="23.11028">
        <ele>1104.19</ele>
        <time>2022-06-06T05:26:48.000Z</time>
      </trkpt>
      <trkpt lat="43.06286" lon="23.11036">
        <ele>1104.23</ele>
        <time>2022-06-06T05:26:54.000Z</time>
      </trkpt>
      <trkpt lat="43.06277" lon="23.11043">
        <ele>1104.37</ele>
        <time>2022-06-06T05:26:59.000Z</time>
      </trkpt>
      <trkpt lat="43.0627" lon="23.11051">
        <ele>1104.69</ele>
        <time>2022-06-06T05:27:04.000Z</time>
      </trkpt>
      <trkpt lat="43.06261" lon="23.1106">
        <ele>1105.64</ele>
        <time>2022-06-06T05:27:10.000Z</time>
      </trkpt>
      <trkpt lat="43.06253" lon="23.11066">
        <ele>1106.14</ele>
        <time>2022-06-06T05:27:15.000Z</time>
      </trkpt>
      <trkpt lat="43.06245" lon="23.11073">
        <ele>1107.07</ele>
        <time>2022-06-06T05:27:21.000Z</time>
      </trkpt>
      <trkpt lat="43.06239" lon="23.11083">
        <ele>1107.47</ele>
        <time>2022-06-06T05:27:26.000Z</time>
      </trkpt>
      <trkpt lat="43.06233" lon="23.11094">
        <ele>1108.56</ele>
        <time>2022-06-06T05:27:32.000Z</time>
      </trkpt>
      <trkpt lat="43.06228" lon="23.11104">
        <ele>1110.01</ele>
        <time>2022-06-06T05:27:37.000Z</time>
      </trkpt>
      <trkpt lat="43.06221" lon="23.11115">
        <ele>1110.47</ele>
        <time>2022-06-06T05:27:43.000Z</time>
      </trkpt>
      <trkpt lat="43.06216" lon="23.11126">
        <ele>1110.87</ele>
        <time>2022-06-06T05:27:49.000Z</time>
      </trkpt>
      <trkpt lat="43.0621" lon="23.11139">
        <ele>1111.52</ele>
        <time>2022-06-06T05:27:54.000Z</time>
      </trkpt>
      <trkpt lat="43.06205" lon="23.11151">
        <ele>1112.34</ele>
        <time>2022-06-06T05:27:59.000Z</time>
      </trkpt>
      <trkpt lat="43.06199" lon="23.11161">
        <ele>1112.88</ele>
        <time>2022-06-06T05:28:04.000Z</time>
      </trkpt>
      <trkpt lat="43.06192" lon="23.11173">
        <ele>1113.82</ele>
        <time>2022-06-06T05:28:09.000Z</time>
      </trkpt>
      <trkpt lat="43.06184" lon="23.11184">
        <ele>1114.9</ele>
        <time>2022-06-06T05:28:14.000Z</time>
      </trkpt>
      <trkpt lat="43.06176" lon="23.11195">
        <ele>1115.31</ele>
        <time>2022-06-06T05:28:19.000Z</time>
      </trkpt>
      <trkpt lat="43.06167" lon="23.11204">
        <ele>1115.94</ele>
        <time>2022-06-06T05:28:24.000Z</time>
      </trkpt>
      <trkpt lat="43.06159" lon="23.11212">
        <ele>1115.87</ele>
        <time>2022-06-06T05:28:29.000Z</time>
      </trkpt>
      <trkpt lat="43.06148" lon="23.11218">
        <ele>1115.63</ele>
        <time>2022-06-06T05:28:34.000Z</time>
      </trkpt>
      <trkpt lat="43.06138" lon="23.11224">
        <ele>1114.94</ele>
        <time>2022-06-06T05:28:39.000Z</time>
      </trkpt>
      <trkpt lat="43.06129" lon="23.11231">
        <ele>1115.76</ele>
        <time>2022-06-06T05:28:44.000Z</time>
      </trkpt>
      <trkpt lat="43.0612" lon="23.11236">
        <ele>1115.76</ele>
        <time>2022-06-06T05:28:49.000Z</time>
      </trkpt>
      <trkpt lat="43.0611" lon="23.11242">
        <ele>1116.41</ele>
        <time>2022-06-06T05:28:54.000Z</time>
      </trkpt>
      <trkpt lat="43.061" lon="23.11249">
        <ele>1115.44</ele>
        <time>2022-06-06T05:28:59.000Z</time>
      </trkpt>
      <trkpt lat="43.06089" lon="23.11257">
        <ele>1115.32</ele>
        <time>2022-06-06T05:29:04.000Z</time>
      </trkpt>
      <trkpt lat="43.0608" lon="23.11266">
        <ele>1114.39</ele>
        <time>2022-06-06T05:29:09.000Z</time>
      </trkpt>
      <trkpt lat="43.0607" lon="23.11277">
        <ele>1115.58</ele>
        <time>2022-06-06T05:29:14.000Z</time>
      </trkpt>
      <trkpt lat="43.06062" lon="23.11288">
        <ele>1116.43</ele>
        <time>2022-06-06T05:29:19.000Z</time>
      </trkpt>
      <trkpt lat="43.06054" lon="23.11302">
        <ele>1118.88</ele>
        <time>2022-06-06T05:29:24.000Z</time>
      </trkpt>
      <trkpt lat="43.06048" lon="23.11316">
        <ele>1121.93</ele>
        <time>2022-06-06T05:29:29.000Z</time>
      </trkpt>
      <trkpt lat="43.06043" lon="23.11333">
        <ele>1124.33</ele>
        <time>2022-06-06T05:29:34.000Z</time>
      </trkpt>
      <trkpt lat="43.06038" lon="23.11347">
        <ele>1125.44</ele>
        <time>2022-06-06T05:29:39.000Z</time>
      </trkpt>
      <trkpt lat="43.06036" lon="23.11364">
        <ele>1124.33</ele>
        <time>2022-06-06T05:29:44.000Z</time>
      </trkpt>
      <trkpt lat="43.06031" lon="23.11382">
        <ele>1124.03</ele>
        <time>2022-06-06T05:29:49.000Z</time>
      </trkpt>
      <trkpt lat="43.06025" lon="23.11399">
        <ele>1124.38</ele>
        <time>2022-06-06T05:29:54.000Z</time>
      </trkpt>
      <trkpt lat="43.06019" lon="23.11416">
        <ele>1125.33</ele>
        <time>2022-06-06T05:29:59.000Z</time>
      </trkpt>
      <trkpt lat="43.06012" lon="23.11432">
        <ele>1125.82</ele>
        <time>2022-06-06T05:30:04.000Z</time>
      </trkpt>
      <trkpt lat="43.06007" lon="23.11448">
        <ele>1125.67</ele>
        <time>2022-06-06T05:30:09.000Z</time>
      </trkpt>
      <trkpt lat="43.06" lon="23.11463">
        <ele>1126.58</ele>
        <time>2022-06-06T05:30:14.000Z</time>
      </trkpt>
      <trkpt lat="43.05995" lon="23.1148">
        <ele>1128.6</ele>
        <time>2022-06-06T05:30:19.000Z</time>
      </trkpt>
      <trkpt lat="43.05988" lon="23.11501">
        <ele>1128.76</ele>
        <time>2022-06-06T05:30:24.000Z</time>
      </trkpt>
      <trkpt lat="43.0598" lon="23.11519">
        <ele>1129.7</ele>
        <time>2022-06-06T05:30:29.000Z</time>
      </trkpt>
      <trkpt lat="43.05973" lon="23.11534">
        <ele>1131.13</ele>
        <time>2022-06-06T05:30:34.000Z</time>
      </trkpt>
      <trkpt lat="43.05965" lon="23.11549">
        <ele>1132.77</ele>
        <time>2022-06-06T05:30:39.000Z</time>
      </trkpt>
      <trkpt lat="43.05957" lon="23.11562">
        <ele>1133.07</ele>
        <time>2022-06-06T05:30:44.000Z</time>
      </trkpt>
      <trkpt lat="43.05947" lon="23.11575">
        <ele>1132.32</ele>
        <time>2022-06-06T05:30:49.000Z</time>
      </trkpt>
      <trkpt lat="43.05938" lon="23.11584">
        <ele>1132.89</ele>
        <time>2022-06-06T05:30:54.000Z</time>
      </trkpt>
      <trkpt lat="43.05927" lon="23.11596">
        <ele>1131.9</ele>
        <time>2022-06-06T05:30:59.000Z</time>
      </trkpt>
      <trkpt lat="43.05917" lon="23.11611">
        <ele>1131.22</ele>
        <time>2022-06-06T05:31:04.000Z</time>
      </trkpt>
      <trkpt lat="43.05908" lon="23.11623">
        <ele>1130.43</ele>
        <time>2022-06-06T05:31:09.000Z</time>
      </trkpt>
      <trkpt lat="43.05899" lon="23.11636">
        <ele>1130.66</ele>
        <time>2022-06-06T05:31:14.000Z</time>
      </trkpt>
      <trkpt lat="43.05887" lon="23.11644">
        <ele>1132.07</ele>
        <time>2022-06-06T05:31:19.000Z</time>
      </trkpt>
      <trkpt lat="43.05873" lon="23.11649">
        <ele>1133.17</ele>
        <time>2022-06-06T05:31:24.000Z</time>
      </trkpt>
      <trkpt lat="43.05858" lon="23.11653">
        <ele>1135.43</ele>
        <time>2022-06-06T05:31:29.000Z</time>
      </trkpt>
      <trkpt lat="43.05845" lon="23.11664">
        <ele>1137.78</ele>
        <time>2022-06-06T05:31:34.000Z</time>
      </trkpt>
      <trkpt lat="43.05828" lon="23.11677">
        <ele>1139.3</ele>
        <time>2022-06-06T05:31:39.000Z</time>
      </trkpt>
      <trkpt lat="43.05809" lon="23.11691">
        <ele>1139.11</ele>
        <time>2022-06-06T05:31:44.000Z</time>
      </trkpt>
      <trkpt lat="43.05791" lon="23.11701">
        <ele>1138.41</ele>
        <time>2022-06-06T05:31:49.000Z</time>
      </trkpt>
      <trkpt lat="43.05774" lon="23.11701">
        <ele>1138.26</ele>
        <time>2022-06-06T05:31:54.000Z</time>
      </trkpt>
      <trkpt lat="43.05753" lon="23.11693">
        <ele>1138.56</ele>
        <time>2022-06-06T05:31:59.000Z</time>
      </trkpt>
      <trkpt lat="43.05725" lon="23.11683">
        <ele>1139.38</ele>
        <time>2022-06-06T05:32:04.000Z</time>
      </trkpt>
      <trkpt lat="43.05691" lon="23.11683">
        <ele>1136.58</ele>
        <time>2022-06-06T05:32:09.000Z</time>
      </trkpt>
      <trkpt lat="43.05664" lon="23.11699">
        <ele>1134.07</ele>
        <time>2022-06-06T05:32:14.000Z</time>
      </trkpt>
      <trkpt lat="43.05646" lon="23.11725">
        <ele>1132.32</ele>
        <time>2022-06-06T05:32:19.000Z</time>
      </trkpt>
      <trkpt lat="43.05631" lon="23.11754">
        <ele>1130.48</ele>
        <time>2022-06-06T05:32:24.000Z</time>
      </trkpt>
      <trkpt lat="43.05621" lon="23.11785">
        <ele>1129.33</ele>
        <time>2022-06-06T05:32:29.000Z</time>
      </trkpt>
      <trkpt lat="43.05605" lon="23.1181">
        <ele>1126.88</ele>
        <time>2022-06-06T05:32:34.000Z</time>
      </trkpt>
      <trkpt lat="43.05581" lon="23.11821">
        <ele>1127.03</ele>
        <time>2022-06-06T05:32:39.000Z</time>
      </trkpt>
      <trkpt lat="43.05557" lon="23.11819">
        <ele>1126.58</ele>
        <time>2022-06-06T05:32:44.000Z</time>
      </trkpt>
      <trkpt lat="43.0554" lon="23.11791">
        <ele>1124.87</ele>
        <time>2022-06-06T05:32:49.000Z</time>
      </trkpt>
      <trkpt lat="43.05518" lon="23.11766">
        <ele>1123.09</ele>
        <time>2022-06-06T05:32:54.000Z</time>
      </trkpt>
      <trkpt lat="43.05492" lon="23.11768">
        <ele>1121.84</ele>
        <time>2022-06-06T05:32:59.000Z</time>
      </trkpt>
      <trkpt lat="43.05474" lon="23.11798">
        <ele>1122.16</ele>
        <time>2022-06-06T05:33:04.000Z</time>
      </trkpt>
      <trkpt lat="43.05457" lon="23.11835">
        <ele>1121.53</ele>
        <time>2022-06-06T05:33:09.000Z</time>
      </trkpt>
      <trkpt lat="43.05448" lon="23.11873">
        <ele>1120.54</ele>
        <time>2022-06-06T05:33:14.000Z</time>
      </trkpt>
      <trkpt lat="43.05441" lon="23.11909">
        <ele>1119.74</ele>
        <time>2022-06-06T05:33:19.000Z</time>
      </trkpt>
      <trkpt lat="43.05429" lon="23.11954">
        <ele>1118.79</ele>
        <time>2022-06-06T05:33:24.000Z</time>
      </trkpt>
      <trkpt lat="43.05411" lon="23.11988">
        <ele>1117.74</ele>
        <time>2022-06-06T05:33:29.000Z</time>
      </trkpt>
      <trkpt lat="43.05382" lon="23.11997">
        <ele>1116.96</ele>
        <time>2022-06-06T05:33:34.000Z</time>
      </trkpt>
      <trkpt lat="43.05356" lon="23.12003">
        <ele>1116.17</ele>
        <time>2022-06-06T05:33:39.000Z</time>
      </trkpt>
      <trkpt lat="43.05326" lon="23.12016">
        <ele>1115.34</ele>
        <time>2022-06-06T05:33:44.000Z</time>
      </trkpt>
      <trkpt lat="43.05302" lon="23.12033">
        <ele>1114.37</ele>
        <time>2022-06-06T05:33:49.000Z</time>
      </trkpt>
      <trkpt lat="43.05276" lon="23.12034">
        <ele>1113.46</ele>
        <time>2022-06-06T05:33:54.000Z</time>
      </trkpt>
      <trkpt lat="43.05253" lon="23.12031">
        <ele>1112.76</ele>
        <time>2022-06-06T05:33:59.000Z</time>
      </trkpt>
      <trkpt lat="43.05231" lon="23.1203">
        <ele>1112.14</ele>
        <time>2022-06-06T05:34:04.000Z</time>
      </trkpt>
      <trkpt lat="43.05205" lon="23.12033">
        <ele>1111.43</ele>
        <time>2022-06-06T05:34:09.000Z</time>
      </trkpt>
      <trkpt lat="43.05176" lon="23.12034">
        <ele>1110.64</ele>
        <time>2022-06-06T05:34:14.000Z</time>
      </trkpt>
      <trkpt lat="43.05145" lon="23.12049">
        <ele>1109.96</ele>
        <time>2022-06-06T05:34:19.000Z</time>
      </trkpt>
      <trkpt lat="43.05105" lon="23.12061">
        <ele>1109.34</ele>
        <time>2022-06-06T05:34:24.000Z</time>
      </trkpt>
      <trkpt lat="43.05061" lon="23.12072">
        <ele>1108.93</ele>
        <time>2022-06-06T05:34:29.000Z</time>
      </trkpt>
      <trkpt lat="43.0503" lon="23.12121">
        <ele>1107.35</ele>
        <time>2022-06-06T05:34:34.000Z</time>
      </trkpt>
      <trkpt lat="43.04992" lon="23.12155">
        <ele>1106.09</ele>
        <time>2022-06-06T05:34:39.000Z</time>
      </trkpt>
      <trkpt lat="43.0495" lon="23.12174">
        <ele>1104.7</ele>
        <time>2022-06-06T05:34:44.000Z</time>
      </trkpt>
      <trkpt lat="43.04905" lon="23.12196">
        <ele>1103.92</ele>
        <time>2022-06-06T05:34:49.000Z</time>
      </trkpt>
      <trkpt lat="43.0487" lon="23.12238">
        <ele>1102.04</ele>
        <time>2022-06-06T05:34:54.000Z</time>
      </trkpt>
      <trkpt lat="43.04838" lon="23.12276">
        <ele>1099.93</ele>
        <time>2022-06-06T05:34:59.000Z</time>
      </trkpt>
      <trkpt lat="43.04805" lon="23.1231">
        <ele>1097.93</ele>
        <time>2022-06-06T05:35:04.000Z</time>
      </trkpt>
      <trkpt lat="43.04767" lon="23.12347">
        <ele>1096.21</ele>
        <time>2022-06-06T05:35:09.000Z</time>
      </trkpt>
      <trkpt lat="43.04734" lon="23.12401">
        <ele>1094.36</ele>
        <time>2022-06-06T05:35:14.000Z</time>
      </trkpt>
      <trkpt lat="43.04701" lon="23.12464">
        <ele>1092.72</ele>
        <time>2022-06-06T05:35:19.000Z</time>
      </trkpt>
      <trkpt lat="43.04693" lon="23.12533">
        <ele>1090.91</ele>
        <time>2022-06-06T05:35:24.000Z</time>
      </trkpt>
      <trkpt lat="43.04696" lon="23.12606">
        <ele>1087.35</ele>
        <time>2022-06-06T05:35:29.000Z</time>
      </trkpt>
      <trkpt lat="43.04699" lon="23.12679">
        <ele>1083.78</ele>
        <time>2022-06-06T05:35:34.000Z</time>
      </trkpt>
      <trkpt lat="43.04692" lon="23.12747">
        <ele>1080.89</ele>
        <time>2022-06-06T05:35:39.000Z</time>
      </trkpt>
      <trkpt lat="43.04661" lon="23.12769">
        <ele>1077.83</ele>
        <time>2022-06-06T05:35:44.000Z</time>
      </trkpt>
      <trkpt lat="43.0461" lon="23.1276">
        <ele>1074.7</ele>
        <time>2022-06-06T05:35:49.000Z</time>
      </trkpt>
      <trkpt lat="43.04557" lon="23.12737">
        <ele>1071.67</ele>
        <time>2022-06-06T05:35:54.000Z</time>
      </trkpt>
      <trkpt lat="43.045" lon="23.12692">
        <ele>1068.54</ele>
        <time>2022-06-06T05:35:59.000Z</time>
      </trkpt>
      <trkpt lat="43.04443" lon="23.12688">
        <ele>1065.03</ele>
        <time>2022-06-06T05:36:04.000Z</time>
      </trkpt>
      <trkpt lat="43.04397" lon="23.12728">
        <ele>1059.95</ele>
        <time>2022-06-06T05:36:09.000Z</time>
      </trkpt>
      <trkpt lat="43.04358" lon="23.12774">
        <ele>1054.38</ele>
        <time>2022-06-06T05:36:14.000Z</time>
      </trkpt>
      <trkpt lat="43.04319" lon="23.12799">
        <ele>1050.56</ele>
        <time>2022-06-06T05:36:19.000Z</time>
      </trkpt>
      <trkpt lat="43.04281" lon="23.12807">
        <ele>1046.86</ele>
        <time>2022-06-06T05:36:24.000Z</time>
      </trkpt>
      <trkpt lat="43.0424" lon="23.12779">
        <ele>1043.07</ele>
        <time>2022-06-06T05:36:29.000Z</time>
      </trkpt>
      <trkpt lat="43.04183" lon="23.12732">
        <ele>1039.07</ele>
        <time>2022-06-06T05:36:34.000Z</time>
      </trkpt>
      <trkpt lat="43.04119" lon="23.1271">
        <ele>1035.07</ele>
        <time>2022-06-06T05:36:39.000Z</time>
      </trkpt>
      <trkpt lat="43.04065" lon="23.12704">
        <ele>1031.34</ele>
        <time>2022-06-06T05:36:44.000Z</time>
      </trkpt>
      <trkpt lat="43.04009" lon="23.12713">
        <ele>1028.35</ele>
        <time>2022-06-06T05:36:49.000Z</time>
      </trkpt>
      <trkpt lat="43.0396" lon="23.1274">
        <ele>1024.75</ele>
        <time>2022-06-06T05:36:54.000Z</time>
      </trkpt>
      <trkpt lat="43.03914" lon="23.12775">
        <ele>1020.68</ele>
        <time>2022-06-06T05:36:59.000Z</time>
      </trkpt>
      <trkpt lat="43.03872" lon="23.12818">
        <ele>1015.88</ele>
        <time>2022-06-06T05:37:04.000Z</time>
      </trkpt>
      <trkpt lat="43.03835" lon="23.12872">
        <ele>1011.26</ele>
        <time>2022-06-06T05:37:09.000Z</time>
      </trkpt>
      <trkpt lat="43.03808" lon="23.12939">
        <ele>1006</ele>
        <time>2022-06-06T05:37:14.000Z</time>
      </trkpt>
      <trkpt lat="43.03783" lon="23.13006">
        <ele>1000.69</ele>
        <time>2022-06-06T05:37:19.000Z</time>
      </trkpt>
      <trkpt lat="43.03757" lon="23.13073">
        <ele>996.31</ele>
        <time>2022-06-06T05:37:24.000Z</time>
      </trkpt>
      <trkpt lat="43.03741" lon="23.13147">
        <ele>992.91</ele>
        <time>2022-06-06T05:37:29.000Z</time>
      </trkpt>
      <trkpt lat="43.0373" lon="23.13223">
        <ele>992.36</ele>
        <time>2022-06-06T05:37:34.000Z</time>
      </trkpt>
      <trkpt lat="43.03726" lon="23.133">
        <ele>989.17</ele>
        <time>2022-06-06T05:37:39.000Z</time>
      </trkpt>
      <trkpt lat="43.03734" lon="23.13372">
        <ele>987.02</ele>
        <time>2022-06-06T05:37:44.000Z</time>
      </trkpt>
      <trkpt lat="43.0375" lon="23.13436">
        <ele>983.93</ele>
        <time>2022-06-06T05:37:49.000Z</time>
      </trkpt>
      <trkpt lat="43.03771" lon="23.13495">
        <ele>980.83</ele>
        <time>2022-06-06T05:37:54.000Z</time>
      </trkpt>
      <trkpt lat="43.03799" lon="23.13551">
        <ele>977.94</ele>
        <time>2022-06-06T05:37:59.000Z</time>
      </trkpt>
      <trkpt lat="43.03829" lon="23.13607">
        <ele>975.86</ele>
        <time>2022-06-06T05:38:04.000Z</time>
      </trkpt>
      <trkpt lat="43.03856" lon="23.1367">
        <ele>972.65</ele>
        <time>2022-06-06T05:38:09.000Z</time>
      </trkpt>
      <trkpt lat="43.03872" lon="23.13733">
        <ele>968.53</ele>
        <time>2022-06-06T05:38:14.000Z</time>
      </trkpt>
      <trkpt lat="43.03846" lon="23.1376">
        <ele>964.92</ele>
        <time>2022-06-06T05:38:19.000Z</time>
      </trkpt>
      <trkpt lat="43.03812" lon="23.13742">
        <ele>962.15</ele>
        <time>2022-06-06T05:38:24.000Z</time>
      </trkpt>
      <trkpt lat="43.03782" lon="23.13729">
        <ele>959.82</ele>
        <time>2022-06-06T05:38:29.000Z</time>
      </trkpt>
      <trkpt lat="43.03754" lon="23.13722">
        <ele>957.93</ele>
        <time>2022-06-06T05:38:34.000Z</time>
      </trkpt>
      <trkpt lat="43.03726" lon="23.13713">
        <ele>956.11</ele>
        <time>2022-06-06T05:38:39.000Z</time>
      </trkpt>
      <trkpt lat="43.03698" lon="23.13705">
        <ele>954.58</ele>
        <time>2022-06-06T05:38:44.000Z</time>
      </trkpt>
      <trkpt lat="43.03667" lon="23.13697">
        <ele>953.4</ele>
        <time>2022-06-06T05:38:49.000Z</time>
      </trkpt>
      <trkpt lat="43.03642" lon="23.13686">
        <ele>950.7</ele>
        <time>2022-06-06T05:38:54.000Z</time>
      </trkpt>
      <trkpt lat="43.03616" lon="23.1368">
        <ele>949.48</ele>
        <time>2022-06-06T05:38:59.000Z</time>
      </trkpt>
      <trkpt lat="43.0359" lon="23.13674">
        <ele>949.91</ele>
        <time>2022-06-06T05:39:04.000Z</time>
      </trkpt>
      <trkpt lat="43.03564" lon="23.13668">
        <ele>950.03</ele>
        <time>2022-06-06T05:39:09.000Z</time>
      </trkpt>
      <trkpt lat="43.03537" lon="23.13659">
        <ele>950.24</ele>
        <time>2022-06-06T05:39:14.000Z</time>
      </trkpt>
      <trkpt lat="43.03507" lon="23.13653">
        <ele>950.13</ele>
        <time>2022-06-06T05:39:19.000Z</time>
      </trkpt>
      <trkpt lat="43.03475" lon="23.13649">
        <ele>950.44</ele>
        <time>2022-06-06T05:39:24.000Z</time>
      </trkpt>
      <trkpt lat="43.03439" lon="23.13647">
        <ele>952.09</ele>
        <time>2022-06-06T05:39:29.000Z</time>
      </trkpt>
      <trkpt lat="43.034" lon="23.13645">
        <ele>951.73</ele>
        <time>2022-06-06T05:39:34.000Z</time>
      </trkpt>
      <trkpt lat="43.03356" lon="23.13642">
        <ele>951.06</ele>
        <time>2022-06-06T05:39:39.000Z</time>
      </trkpt>
      <trkpt lat="43.03309" lon="23.13628">
        <ele>950.34</ele>
        <time>2022-06-06T05:39:44.000Z</time>
      </trkpt>
      <trkpt lat="43.03268" lon="23.13594">
        <ele>948.85</ele>
        <time>2022-06-06T05:39:49.000Z</time>
      </trkpt>
      <trkpt lat="43.03232" lon="23.13563">
        <ele>948.33</ele>
        <time>2022-06-06T05:39:54.000Z</time>
      </trkpt>
      <trkpt lat="43.03201" lon="23.13552">
        <ele>947.64</ele>
        <time>2022-06-06T05:39:59.000Z</time>
      </trkpt>
      <trkpt lat="43.03172" lon="23.13555">
        <ele>947.18</ele>
        <time>2022-06-06T05:40:04.000Z</time>
      </trkpt>
      <trkpt lat="43.03151" lon="23.13562">
        <ele>947.99</ele>
        <time>2022-06-06T05:40:09.000Z</time>
      </trkpt>
      <trkpt lat="43.03133" lon="23.13568">
        <ele>948.27</ele>
        <time>2022-06-06T05:40:14.000Z</time>
      </trkpt>
      <trkpt lat="43.03119" lon="23.13577">
        <ele>949.41</ele>
        <time>2022-06-06T05:40:19.000Z</time>
      </trkpt>
      <trkpt lat="43.03104" lon="23.13584">
        <ele>949.94</ele>
        <time>2022-06-06T05:40:24.000Z</time>
      </trkpt>
      <trkpt lat="43.03091" lon="23.13588">
        <ele>950.58</ele>
        <time>2022-06-06T05:40:29.000Z</time>
      </trkpt>
      <trkpt lat="43.03077" lon="23.13594">
        <ele>950.34</ele>
        <time>2022-06-06T05:40:34.000Z</time>
      </trkpt>
      <trkpt lat="43.03063" lon="23.13596">
        <ele>951.12</ele>
        <time>2022-06-06T05:40:39.000Z</time>
      </trkpt>
      <trkpt lat="43.03052" lon="23.136">
        <ele>952.23</ele>
        <time>2022-06-06T05:40:44.000Z</time>
      </trkpt>
      <trkpt lat="43.03042" lon="23.13602">
        <ele>952.77</ele>
        <time>2022-06-06T05:40:49.000Z</time>
      </trkpt>
      <trkpt lat="43.03031" lon="23.13605">
        <ele>952.87</ele>
        <time>2022-06-06T05:40:54.000Z</time>
      </trkpt>
      <trkpt lat="43.03021" lon="23.13605">
        <ele>955.25</ele>
        <time>2022-06-06T05:41:00.000Z</time>
      </trkpt>
      <trkpt lat="43.03011" lon="23.13608">
        <ele>956.93</ele>
        <time>2022-06-06T05:41:07.000Z</time>
      </trkpt>
      <trkpt lat="43.03002" lon="23.13611">
        <ele>957.77</ele>
        <time>2022-06-06T05:41:12.000Z</time>
      </trkpt>
      <trkpt lat="43.02993" lon="23.1361">
        <ele>959.74</ele>
        <time>2022-06-06T05:41:18.000Z</time>
      </trkpt>
      <trkpt lat="43.02983" lon="23.1361">
        <ele>961.53</ele>
        <time>2022-06-06T05:41:24.000Z</time>
      </trkpt>
      <trkpt lat="43.02974" lon="23.13612">
        <ele>962.78</ele>
        <time>2022-06-06T05:41:29.000Z</time>
      </trkpt>
      <trkpt lat="43.02963" lon="23.13615">
        <ele>964.11</ele>
        <time>2022-06-06T05:41:36.000Z</time>
      </trkpt>
      <trkpt lat="43.02953" lon="23.13618">
        <ele>965.56</ele>
        <time>2022-06-06T05:41:41.000Z</time>
      </trkpt>
      <trkpt lat="43.02942" lon="23.13621">
        <ele>967.33</ele>
        <time>2022-06-06T05:41:46.000Z</time>
      </trkpt>
      <trkpt lat="43.02931" lon="23.13621">
        <ele>967.94</ele>
        <time>2022-06-06T05:41:51.000Z</time>
      </trkpt>
      <trkpt lat="43.02922" lon="23.13625">
        <ele>968.3</ele>
        <time>2022-06-06T05:41:57.000Z</time>
      </trkpt>
      <trkpt lat="43.02913" lon="23.13626">
        <ele>968.37</ele>
        <time>2022-06-06T05:42:02.000Z</time>
      </trkpt>
      <trkpt lat="43.02904" lon="23.13632">
        <ele>969.55</ele>
        <time>2022-06-06T05:42:07.000Z</time>
      </trkpt>
      <trkpt lat="43.02895" lon="23.1364">
        <ele>970.43</ele>
        <time>2022-06-06T05:42:12.000Z</time>
      </trkpt>
      <trkpt lat="43.02885" lon="23.13642">
        <ele>971.57</ele>
        <time>2022-06-06T05:42:18.000Z</time>
      </trkpt>
      <trkpt lat="43.02874" lon="23.13643">
        <ele>971.84</ele>
        <time>2022-06-06T05:42:23.000Z</time>
      </trkpt>
      <trkpt lat="43.02864" lon="23.13645">
        <ele>973.11</ele>
        <time>2022-06-06T05:42:29.000Z</time>
      </trkpt>
      <trkpt lat="43.02855" lon="23.13645">
        <ele>973.86</ele>
        <time>2022-06-06T05:42:34.000Z</time>
      </trkpt>
      <trkpt lat="43.02846" lon="23.13651">
        <ele>974.74</ele>
        <time>2022-06-06T05:42:41.000Z</time>
      </trkpt>
      <trkpt lat="43.02836" lon="23.1365">
        <ele>975.76</ele>
        <time>2022-06-06T05:42:49.000Z</time>
      </trkpt>
      <trkpt lat="43.02827" lon="23.13648">
        <ele>976.73</ele>
        <time>2022-06-06T05:42:54.000Z</time>
      </trkpt>
      <trkpt lat="43.02818" lon="23.1365">
        <ele>978.38</ele>
        <time>2022-06-06T05:43:10.000Z</time>
      </trkpt>
      <trkpt lat="43.0281" lon="23.13657">
        <ele>987.4</ele>
        <time>2022-06-06T05:44:53.000Z</time>
      </trkpt>
      <trkpt lat="43.028" lon="23.13652">
        <ele>987.47</ele>
        <time>2022-06-06T05:44:59.000Z</time>
      </trkpt>
      <trkpt lat="43.02791" lon="23.13648">
        <ele>987.6</ele>
        <time>2022-06-06T05:45:04.000Z</time>
      </trkpt>
      <trkpt lat="43.02781" lon="23.13646">
        <ele>987.95</ele>
        <time>2022-06-06T05:45:10.000Z</time>
      </trkpt>
      <trkpt lat="43.02772" lon="23.13641">
        <ele>988.6</ele>
        <time>2022-06-06T05:45:17.000Z</time>
      </trkpt>
      <trkpt lat="43.02762" lon="23.13639">
        <ele>989.17</ele>
        <time>2022-06-06T05:45:24.000Z</time>
      </trkpt>
      <trkpt lat="43.02753" lon="23.13635">
        <ele>989.74</ele>
        <time>2022-06-06T05:45:31.000Z</time>
      </trkpt>
      <trkpt lat="43.02745" lon="23.13631">
        <ele>990.37</ele>
        <time>2022-06-06T05:45:38.000Z</time>
      </trkpt>
      <trkpt lat="43.02735" lon="23.13627">
        <ele>990.57</ele>
        <time>2022-06-06T05:45:45.000Z</time>
      </trkpt>
      <trkpt lat="43.02725" lon="23.13627">
        <ele>991.19</ele>
        <time>2022-06-06T05:45:52.000Z</time>
      </trkpt>
      <trkpt lat="43.02715" lon="23.13623">
        <ele>992.07</ele>
        <time>2022-06-06T05:45:59.000Z</time>
      </trkpt>
      <trkpt lat="43.02705" lon="23.13622">
        <ele>992.74</ele>
        <time>2022-06-06T05:46:07.000Z</time>
      </trkpt>
      <trkpt lat="43.02695" lon="23.13623">
        <ele>993.87</ele>
        <time>2022-06-06T05:46:16.000Z</time>
      </trkpt>
      <trkpt lat="43.02685" lon="23.13628">
        <ele>994.59</ele>
        <time>2022-06-06T05:46:23.000Z</time>
      </trkpt>
      <trkpt lat="43.02676" lon="23.13631">
        <ele>995.07</ele>
        <time>2022-06-06T05:46:29.000Z</time>
      </trkpt>
      <trkpt lat="43.02666" lon="23.13634">
        <ele>995.66</ele>
        <time>2022-06-06T05:46:34.000Z</time>
      </trkpt>
      <trkpt lat="43.02657" lon="23.13638">
        <ele>996.48</ele>
        <time>2022-06-06T05:46:39.000Z</time>
      </trkpt>
      <trkpt lat="43.02648" lon="23.13642">
        <ele>996.62</ele>
        <time>2022-06-06T05:46:47.000Z</time>
      </trkpt>
      <trkpt lat="43.02638" lon="23.13642">
        <ele>997.88</ele>
        <time>2022-06-06T05:47:00.000Z</time>
      </trkpt>
      <trkpt lat="43.02628" lon="23.13643">
        <ele>998.2</ele>
        <time>2022-06-06T05:47:06.000Z</time>
      </trkpt>
      <trkpt lat="43.02619" lon="23.13644">
        <ele>998.37</ele>
        <time>2022-06-06T05:47:12.000Z</time>
      </trkpt>
      <trkpt lat="43.0261" lon="23.13649">
        <ele>998.69</ele>
        <time>2022-06-06T05:47:21.000Z</time>
      </trkpt>
      <trkpt lat="43.026" lon="23.1365">
        <ele>998.99</ele>
        <time>2022-06-06T05:47:28.000Z</time>
      </trkpt>
      <trkpt lat="43.02591" lon="23.13653">
        <ele>999.67</ele>
        <time>2022-06-06T05:47:42.000Z</time>
      </trkpt>
      <trkpt lat="43.02582" lon="23.13656">
        <ele>1000.07</ele>
        <time>2022-06-06T05:47:49.000Z</time>
      </trkpt>
      <trkpt lat="43.02571" lon="23.1366">
        <ele>1000.37</ele>
        <time>2022-06-06T05:47:54.000Z</time>
      </trkpt>
      <trkpt lat="43.02562" lon="23.13667">
        <ele>1000.67</ele>
        <time>2022-06-06T05:47:59.000Z</time>
      </trkpt>
      <trkpt lat="43.02556" lon="23.13678">
        <ele>1001.09</ele>
        <time>2022-06-06T05:48:06.000Z</time>
      </trkpt>
      <trkpt lat="43.02546" lon="23.13682">
        <ele>1001.39</ele>
        <time>2022-06-06T05:48:11.000Z</time>
      </trkpt>
      <trkpt lat="43.02535" lon="23.13686">
        <ele>1001.67</ele>
        <time>2022-06-06T05:48:16.000Z</time>
      </trkpt>
      <trkpt lat="43.02524" lon="23.13695">
        <ele>1002.07</ele>
        <time>2022-06-06T05:48:21.000Z</time>
      </trkpt>
      <trkpt lat="43.02515" lon="23.13698">
        <ele>1002.57</ele>
        <time>2022-06-06T05:48:27.000Z</time>
      </trkpt>
      <trkpt lat="43.02507" lon="23.13705">
        <ele>1003.16</ele>
        <time>2022-06-06T05:48:33.000Z</time>
      </trkpt>
      <trkpt lat="43.02497" lon="23.13707">
        <ele>1003.49</ele>
        <time>2022-06-06T05:48:38.000Z</time>
      </trkpt>
      <trkpt lat="43.02488" lon="23.1371">
        <ele>1003.87</ele>
        <time>2022-06-06T05:48:43.000Z</time>
      </trkpt>
      <trkpt lat="43.02474" lon="23.13716">
        <ele>1004.27</ele>
        <time>2022-06-06T05:48:48.000Z</time>
      </trkpt>
      <trkpt lat="43.02459" lon="23.13724">
        <ele>1004.67</ele>
        <time>2022-06-06T05:48:53.000Z</time>
      </trkpt>
      <trkpt lat="43.02441" lon="23.13727">
        <ele>1005.07</ele>
        <time>2022-06-06T05:48:58.000Z</time>
      </trkpt>
      <trkpt lat="43.02429" lon="23.13722">
        <ele>1005.59</ele>
        <time>2022-06-06T05:49:03.000Z</time>
      </trkpt>
      <trkpt lat="43.0242" lon="23.1372">
        <ele>1005.97</ele>
        <time>2022-06-06T05:49:08.000Z</time>
      </trkpt>
      <trkpt lat="43.02411" lon="23.13713">
        <ele>1006.67</ele>
        <time>2022-06-06T05:49:13.000Z</time>
      </trkpt>
      <trkpt lat="43.02402" lon="23.13708">
        <ele>1007.17</ele>
        <time>2022-06-06T05:49:19.000Z</time>
      </trkpt>
      <trkpt lat="43.02391" lon="23.1371">
        <ele>1007.74</ele>
        <time>2022-06-06T05:49:24.000Z</time>
      </trkpt>
      <trkpt lat="43.02381" lon="23.13708">
        <ele>1008.57</ele>
        <time>2022-06-06T05:49:30.000Z</time>
      </trkpt>
      <trkpt lat="43.02372" lon="23.13703">
        <ele>1009.17</ele>
        <time>2022-06-06T05:49:38.000Z</time>
      </trkpt>
      <trkpt lat="43.02362" lon="23.137">
        <ele>1009.77</ele>
        <time>2022-06-06T05:49:45.000Z</time>
      </trkpt>
      <trkpt lat="43.02352" lon="23.13699">
        <ele>1010.17</ele>
        <time>2022-06-06T05:49:51.000Z</time>
      </trkpt>
      <trkpt lat="43.02343" lon="23.13706">
        <ele>1011.07</ele>
        <time>2022-06-06T05:50:00.000Z</time>
      </trkpt>
      <trkpt lat="43.02332" lon="23.13698">
        <ele>1011.37</ele>
        <time>2022-06-06T05:50:05.000Z</time>
      </trkpt>
      <trkpt lat="43.02321" lon="23.13694">
        <ele>1011.77</ele>
        <time>2022-06-06T05:50:10.000Z</time>
      </trkpt>
      <trkpt lat="43.02308" lon="23.13706">
        <ele>1012.27</ele>
        <time>2022-06-06T05:50:15.000Z</time>
      </trkpt>
      <trkpt lat="43.023" lon="23.13701">
        <ele>1013.17</ele>
        <time>2022-06-06T05:50:25.000Z</time>
      </trkpt>
      <trkpt lat="43.0229" lon="23.13702">
        <ele>1013.77</ele>
        <time>2022-06-06T05:50:33.000Z</time>
      </trkpt>
      <trkpt lat="43.02282" lon="23.1369">
        <ele>1014.17</ele>
        <time>2022-06-06T05:50:38.000Z</time>
      </trkpt>
      <trkpt lat="43.02272" lon="23.1368">
        <ele>1014.67</ele>
        <time>2022-06-06T05:50:43.000Z</time>
      </trkpt>
      <trkpt lat="43.02263" lon="23.13675">
        <ele>1015.19</ele>
        <time>2022-06-06T05:50:50.000Z</time>
      </trkpt>
      <trkpt lat="43.02255" lon="23.13665">
        <ele>1016.27</ele>
        <time>2022-06-06T05:51:03.000Z</time>
      </trkpt>
      <trkpt lat="43.02245" lon="23.13661">
        <ele>1016.77</ele>
        <time>2022-06-06T05:51:08.000Z</time>
      </trkpt>
      <trkpt lat="43.02236" lon="23.13655">
        <ele>1017.17</ele>
        <time>2022-06-06T05:51:13.000Z</time>
      </trkpt>
      <trkpt lat="43.02224" lon="23.13653">
        <ele>1017.67</ele>
        <time>2022-06-06T05:51:18.000Z</time>
      </trkpt>
      <trkpt lat="43.02215" lon="23.13641">
        <ele>1018.37</ele>
        <time>2022-06-06T05:51:24.000Z</time>
      </trkpt>
      <trkpt lat="43.02204" lon="23.13637">
        <ele>1018.87</ele>
        <time>2022-06-06T05:51:29.000Z</time>
      </trkpt>
      <trkpt lat="43.02196" lon="23.13626">
        <ele>1019.46</ele>
        <time>2022-06-06T05:51:34.000Z</time>
      </trkpt>
      <trkpt lat="43.02189" lon="23.13614">
        <ele>1020.24</ele>
        <time>2022-06-06T05:51:39.000Z</time>
      </trkpt>
      <trkpt lat="43.02184" lon="23.13603">
        <ele>1020.96</ele>
        <time>2022-06-06T05:51:44.000Z</time>
      </trkpt>
      <trkpt lat="43.02178" lon="23.13588">
        <ele>1021.57</ele>
        <time>2022-06-06T05:51:49.000Z</time>
      </trkpt>
      <trkpt lat="43.02178" lon="23.13572">
        <ele>1022.44</ele>
        <time>2022-06-06T05:51:54.000Z</time>
      </trkpt>
      <trkpt lat="43.02169" lon="23.13563">
        <ele>1024.29</ele>
        <time>2022-06-06T05:52:00.000Z</time>
      </trkpt>
      <trkpt lat="43.02157" lon="23.13558">
        <ele>1026.19</ele>
        <time>2022-06-06T05:52:05.000Z</time>
      </trkpt>
      <trkpt lat="43.02148" lon="23.13552">
        <ele>1028.07</ele>
        <time>2022-06-06T05:52:11.000Z</time>
      </trkpt>
      <trkpt lat="43.02139" lon="23.13548">
        <ele>1029.8</ele>
        <time>2022-06-06T05:52:17.000Z</time>
      </trkpt>
      <trkpt lat="43.0213" lon="23.13544">
        <ele>1031.33</ele>
        <time>2022-06-06T05:52:23.000Z</time>
      </trkpt>
      <trkpt lat="43.0212" lon="23.13545">
        <ele>1032.63</ele>
        <time>2022-06-06T05:52:29.000Z</time>
      </trkpt>
      <trkpt lat="43.02111" lon="23.13545">
        <ele>1033.63</ele>
        <time>2022-06-06T05:52:34.000Z</time>
      </trkpt>
      <trkpt lat="43.02103" lon="23.13552">
        <ele>1035.92</ele>
        <time>2022-06-06T05:52:42.000Z</time>
      </trkpt>
      <trkpt lat="43.02094" lon="23.13552">
        <ele>1037.07</ele>
        <time>2022-06-06T05:52:48.000Z</time>
      </trkpt>
      <trkpt lat="43.02084" lon="23.1355">
        <ele>1037.68</ele>
        <time>2022-06-06T05:52:54.000Z</time>
      </trkpt>
      <trkpt lat="43.02075" lon="23.13549">
        <ele>1038.7</ele>
        <time>2022-06-06T05:53:00.000Z</time>
      </trkpt>
      <trkpt lat="43.02066" lon="23.13548">
        <ele>1040.53</ele>
        <time>2022-06-06T05:53:07.000Z</time>
      </trkpt>
      <trkpt lat="43.02056" lon="23.13547">
        <ele>1041.57</ele>
        <time>2022-06-06T05:53:15.000Z</time>
      </trkpt>
      <trkpt lat="43.02046" lon="23.13542">
        <ele>1042.44</ele>
        <time>2022-06-06T05:53:22.000Z</time>
      </trkpt>
      <trkpt lat="43.02037" lon="23.13535">
        <ele>1043.63</ele>
        <time>2022-06-06T05:53:29.000Z</time>
      </trkpt>
      <trkpt lat="43.0203" lon="23.13526">
        <ele>1045.13</ele>
        <time>2022-06-06T05:53:37.000Z</time>
      </trkpt>
      <trkpt lat="43.02023" lon="23.13517">
        <ele>1046.61</ele>
        <time>2022-06-06T05:53:45.000Z</time>
      </trkpt>
      <trkpt lat="43.02016" lon="23.13507">
        <ele>1047.91</ele>
        <time>2022-06-06T05:53:51.000Z</time>
      </trkpt>
      <trkpt lat="43.02014" lon="23.13495">
        <ele>1050.29</ele>
        <time>2022-06-06T05:53:59.000Z</time>
      </trkpt>
      <trkpt lat="43.02016" lon="23.13482">
        <ele>1053.42</ele>
        <time>2022-06-06T05:54:06.000Z</time>
      </trkpt>
      <trkpt lat="43.02024" lon="23.13475">
        <ele>1055.09</ele>
        <time>2022-06-06T05:54:11.000Z</time>
      </trkpt>
      <trkpt lat="43.02035" lon="23.13473">
        <ele>1058.37</ele>
        <time>2022-06-06T05:54:21.000Z</time>
      </trkpt>
      <trkpt lat="43.02045" lon="23.13472">
        <ele>1062.2</ele>
        <time>2022-06-06T05:54:29.000Z</time>
      </trkpt>
      <trkpt lat="43.02054" lon="23.13467">
        <ele>1067.21</ele>
        <time>2022-06-06T05:54:38.000Z</time>
      </trkpt>
      <trkpt lat="43.02064" lon="23.13466">
        <ele>1069.66</ele>
        <time>2022-06-06T05:54:43.000Z</time>
      </trkpt>
      <trkpt lat="43.02071" lon="23.13457">
        <ele>1073.56</ele>
        <time>2022-06-06T05:54:52.000Z</time>
      </trkpt>
      <trkpt lat="43.02082" lon="23.13453">
        <ele>1074.73</ele>
        <time>2022-06-06T05:54:58.000Z</time>
      </trkpt>
      <trkpt lat="43.02092" lon="23.1345">
        <ele>1075.94</ele>
        <time>2022-06-06T05:55:03.000Z</time>
      </trkpt>
      <trkpt lat="43.02101" lon="23.13445">
        <ele>1077.52</ele>
        <time>2022-06-06T05:55:08.000Z</time>
      </trkpt>
      <trkpt lat="43.02107" lon="23.13434">
        <ele>1078.93</ele>
        <time>2022-06-06T05:55:15.000Z</time>
      </trkpt>
      <trkpt lat="43.02109" lon="23.13422">
        <ele>1080.61</ele>
        <time>2022-06-06T05:55:21.000Z</time>
      </trkpt>
      <trkpt lat="43.02113" lon="23.13409">
        <ele>1082.31</ele>
        <time>2022-06-06T05:55:28.000Z</time>
      </trkpt>
      <trkpt lat="43.02117" lon="23.13399">
        <ele>1083.24</ele>
        <time>2022-06-06T05:55:34.000Z</time>
      </trkpt>
      <trkpt lat="43.02124" lon="23.13387">
        <ele>1084.36</ele>
        <time>2022-06-06T05:55:40.000Z</time>
      </trkpt>
      <trkpt lat="43.02126" lon="23.13374">
        <ele>1085.35</ele>
        <time>2022-06-06T05:55:47.000Z</time>
      </trkpt>
      <trkpt lat="43.02131" lon="23.13363">
        <ele>1086.83</ele>
        <time>2022-06-06T05:55:54.000Z</time>
      </trkpt>
      <trkpt lat="43.02131" lon="23.1335">
        <ele>1089.8</ele>
        <time>2022-06-06T05:56:04.000Z</time>
      </trkpt>
      <trkpt lat="43.02134" lon="23.13332">
        <ele>1091.36</ele>
        <time>2022-06-06T05:56:10.000Z</time>
      </trkpt>
      <trkpt lat="43.0213" lon="23.13318">
        <ele>1092.78</ele>
        <time>2022-06-06T05:56:15.000Z</time>
      </trkpt>
      <trkpt lat="43.02128" lon="23.13305">
        <ele>1094.8</ele>
        <time>2022-06-06T05:56:22.000Z</time>
      </trkpt>
      <trkpt lat="43.02122" lon="23.13296">
        <ele>1096.73</ele>
        <time>2022-06-06T05:56:29.000Z</time>
      </trkpt>
      <trkpt lat="43.02114" lon="23.13285">
        <ele>1098.41</ele>
        <time>2022-06-06T05:56:35.000Z</time>
      </trkpt>
      <trkpt lat="43.02104" lon="23.1327">
        <ele>1099.34</ele>
        <time>2022-06-06T05:56:40.000Z</time>
      </trkpt>
      <trkpt lat="43.02095" lon="23.13258">
        <ele>1100.33</ele>
        <time>2022-06-06T05:56:45.000Z</time>
      </trkpt>
      <trkpt lat="43.02085" lon="23.13243">
        <ele>1101.07</ele>
        <time>2022-06-06T05:56:50.000Z</time>
      </trkpt>
      <trkpt lat="43.02075" lon="23.13238">
        <ele>1102.3</ele>
        <time>2022-06-06T05:56:55.000Z</time>
      </trkpt>
      <trkpt lat="43.02067" lon="23.13228">
        <ele>1103.7</ele>
        <time>2022-06-06T05:57:00.000Z</time>
      </trkpt>
      <trkpt lat="43.0206" lon="23.13211">
        <ele>1105.01</ele>
        <time>2022-06-06T05:57:05.000Z</time>
      </trkpt>
      <trkpt lat="43.02053" lon="23.13197">
        <ele>1106.31</ele>
        <time>2022-06-06T05:57:10.000Z</time>
      </trkpt>
      <trkpt lat="43.02042" lon="23.13181">
        <ele>1107.43</ele>
        <time>2022-06-06T05:57:15.000Z</time>
      </trkpt>
      <trkpt lat="43.02035" lon="23.13164">
        <ele>1108.53</ele>
        <time>2022-06-06T05:57:20.000Z</time>
      </trkpt>
      <trkpt lat="43.02026" lon="23.13148">
        <ele>1109.44</ele>
        <time>2022-06-06T05:57:25.000Z</time>
      </trkpt>
      <trkpt lat="43.02029" lon="23.1311">
        <ele>1109.07</ele>
        <time>2022-06-06T05:57:30.000Z</time>
      </trkpt>
      <trkpt lat="43.02029" lon="23.1308">
        <ele>1109.19</ele>
        <time>2022-06-06T05:57:35.000Z</time>
      </trkpt>
      <trkpt lat="43.02025" lon="23.13056">
        <ele>1109</ele>
        <time>2022-06-06T05:57:40.000Z</time>
      </trkpt>
      <trkpt lat="43.02031" lon="23.13035">
        <ele>1104.55</ele>
        <time>2022-06-06T05:57:45.000Z</time>
      </trkpt>
      <trkpt lat="43.02027" lon="23.13007">
        <ele>1101.38</ele>
        <time>2022-06-06T05:57:50.000Z</time>
      </trkpt>
      <trkpt lat="43.0201" lon="23.12984">
        <ele>1099.55</ele>
        <time>2022-06-06T05:57:55.000Z</time>
      </trkpt>
      <trkpt lat="43.01982" lon="23.12996">
        <ele>1096.47</ele>
        <time>2022-06-06T05:58:00.000Z</time>
      </trkpt>
      <trkpt lat="43.01956" lon="23.1303">
        <ele>1094.11</ele>
        <time>2022-06-06T05:58:05.000Z</time>
      </trkpt>
      <trkpt lat="43.01925" lon="23.13068">
        <ele>1091.02</ele>
        <time>2022-06-06T05:58:10.000Z</time>
      </trkpt>
      <trkpt lat="43.01881" lon="23.13071">
        <ele>1088.66</ele>
        <time>2022-06-06T05:58:15.000Z</time>
      </trkpt>
      <trkpt lat="43.01854" lon="23.13017">
        <ele>1085.36</ele>
        <time>2022-06-06T05:58:20.000Z</time>
      </trkpt>
      <trkpt lat="43.0184" lon="23.1295">
        <ele>1081.5</ele>
        <time>2022-06-06T05:58:25.000Z</time>
      </trkpt>
      <trkpt lat="43.01829" lon="23.12881">
        <ele>1077.54</ele>
        <time>2022-06-06T05:58:30.000Z</time>
      </trkpt>
      <trkpt lat="43.0182" lon="23.12818">
        <ele>1074.47</ele>
        <time>2022-06-06T05:58:35.000Z</time>
      </trkpt>
      <trkpt lat="43.01811" lon="23.12765">
        <ele>1070.68</ele>
        <time>2022-06-06T05:58:40.000Z</time>
      </trkpt>
      <trkpt lat="43.01805" lon="23.12717">
        <ele>1067.39</ele>
        <time>2022-06-06T05:58:45.000Z</time>
      </trkpt>
      <trkpt lat="43.01798" lon="23.12669">
        <ele>1064.11</ele>
        <time>2022-06-06T05:58:50.000Z</time>
      </trkpt>
      <trkpt lat="43.01792" lon="23.12627">
        <ele>1060.36</ele>
        <time>2022-06-06T05:58:55.000Z</time>
      </trkpt>
      <trkpt lat="43.01788" lon="23.12589">
        <ele>1057.8</ele>
        <time>2022-06-06T05:59:00.000Z</time>
      </trkpt>
      <trkpt lat="43.01784" lon="23.12559">
        <ele>1055.81</ele>
        <time>2022-06-06T05:59:05.000Z</time>
      </trkpt>
      <trkpt lat="43.01778" lon="23.12537">
        <ele>1053</ele>
        <time>2022-06-06T05:59:10.000Z</time>
      </trkpt>
      <trkpt lat="43.01773" lon="23.1252">
        <ele>1050.81</ele>
        <time>2022-06-06T05:59:15.000Z</time>
      </trkpt>
      <trkpt lat="43.01766" lon="23.12503">
        <ele>1050.11</ele>
        <time>2022-06-06T05:59:20.000Z</time>
      </trkpt>
      <trkpt lat="43.0176" lon="23.12488">
        <ele>1049.59</ele>
        <time>2022-06-06T05:59:25.000Z</time>
      </trkpt>
      <trkpt lat="43.01754" lon="23.12472">
        <ele>1048.34</ele>
        <time>2022-06-06T05:59:30.000Z</time>
      </trkpt>
      <trkpt lat="43.01751" lon="23.12455">
        <ele>1047.67</ele>
        <time>2022-06-06T05:59:35.000Z</time>
      </trkpt>
      <trkpt lat="43.01748" lon="23.1243">
        <ele>1047.26</ele>
        <time>2022-06-06T05:59:40.000Z</time>
      </trkpt>
      <trkpt lat="43.01756" lon="23.12397">
        <ele>1049.65</ele>
        <time>2022-06-06T05:59:45.000Z</time>
      </trkpt>
      <trkpt lat="43.01777" lon="23.12365">
        <ele>1048.33</ele>
        <time>2022-06-06T05:59:50.000Z</time>
      </trkpt>
      <trkpt lat="43.01797" lon="23.12322">
        <ele>1048.78</ele>
        <time>2022-06-06T05:59:55.000Z</time>
      </trkpt>
      <trkpt lat="43.01801" lon="23.12269">
        <ele>1049.6</ele>
        <time>2022-06-06T06:00:00.000Z</time>
      </trkpt>
      <trkpt lat="43.01798" lon="23.12214">
        <ele>1049.21</ele>
        <time>2022-06-06T06:00:05.000Z</time>
      </trkpt>
      <trkpt lat="43.01793" lon="23.12151">
        <ele>1049.34</ele>
        <time>2022-06-06T06:00:10.000Z</time>
      </trkpt>
      <trkpt lat="43.01774" lon="23.12095">
        <ele>1048.02</ele>
        <time>2022-06-06T06:00:15.000Z</time>
      </trkpt>
      <trkpt lat="43.01743" lon="23.12051">
        <ele>1047.06</ele>
        <time>2022-06-06T06:00:20.000Z</time>
      </trkpt>
      <trkpt lat="43.01707" lon="23.12018">
        <ele>1045.89</ele>
        <time>2022-06-06T06:00:25.000Z</time>
      </trkpt>
      <trkpt lat="43.01666" lon="23.1199">
        <ele>1045.23</ele>
        <time>2022-06-06T06:00:30.000Z</time>
      </trkpt>
      <trkpt lat="43.0162" lon="23.11976">
        <ele>1044.63</ele>
        <time>2022-06-06T06:00:35.000Z</time>
      </trkpt>
      <trkpt lat="43.01571" lon="23.11971">
        <ele>1043.76</ele>
        <time>2022-06-06T06:00:40.000Z</time>
      </trkpt>
      <trkpt lat="43.01515" lon="23.11978">
        <ele>1042.64</ele>
        <time>2022-06-06T06:00:45.000Z</time>
      </trkpt>
      <trkpt lat="43.01462" lon="23.11994">
        <ele>1041.96</ele>
        <time>2022-06-06T06:00:50.000Z</time>
      </trkpt>
      <trkpt lat="43.01409" lon="23.12012">
        <ele>1041.26</ele>
        <time>2022-06-06T06:00:55.000Z</time>
      </trkpt>
      <trkpt lat="43.01356" lon="23.12036">
        <ele>1040.27</ele>
        <time>2022-06-06T06:01:00.000Z</time>
      </trkpt>
      <trkpt lat="43.01307" lon="23.12052">
        <ele>1039.47</ele>
        <time>2022-06-06T06:01:05.000Z</time>
      </trkpt>
      <trkpt lat="43.01254" lon="23.12091">
        <ele>1037.03</ele>
        <time>2022-06-06T06:01:10.000Z</time>
      </trkpt>
      <trkpt lat="43.01216" lon="23.12134">
        <ele>1035.16</ele>
        <time>2022-06-06T06:01:15.000Z</time>
      </trkpt>
      <trkpt lat="43.01176" lon="23.12171">
        <ele>1033.25</ele>
        <time>2022-06-06T06:01:20.000Z</time>
      </trkpt>
      <trkpt lat="43.01144" lon="23.12136">
        <ele>1028.84</ele>
        <time>2022-06-06T06:01:25.000Z</time>
      </trkpt>
      <trkpt lat="43.01153" lon="23.12082">
        <ele>1024.58</ele>
        <time>2022-06-06T06:01:30.000Z</time>
      </trkpt>
      <trkpt lat="43.01178" lon="23.1203">
        <ele>1022.5</ele>
        <time>2022-06-06T06:01:35.000Z</time>
      </trkpt>
      <trkpt lat="43.01196" lon="23.11977">
        <ele>1021</ele>
        <time>2022-06-06T06:01:40.000Z</time>
      </trkpt>
      <trkpt lat="43.01181" lon="23.11908">
        <ele>1019.61</ele>
        <time>2022-06-06T06:01:45.000Z</time>
      </trkpt>
      <trkpt lat="43.01184" lon="23.1184">
        <ele>1017.02</ele>
        <time>2022-06-06T06:01:50.000Z</time>
      </trkpt>
      <trkpt lat="43.01192" lon="23.11773">
        <ele>1014.08</ele>
        <time>2022-06-06T06:01:55.000Z</time>
      </trkpt>
      <trkpt lat="43.01195" lon="23.11702">
        <ele>1011.74</ele>
        <time>2022-06-06T06:02:00.000Z</time>
      </trkpt>
      <trkpt lat="43.0119" lon="23.11636">
        <ele>1010.1</ele>
        <time>2022-06-06T06:02:05.000Z</time>
      </trkpt>
      <trkpt lat="43.01179" lon="23.11587">
        <ele>1008.7</ele>
        <time>2022-06-06T06:02:10.000Z</time>
      </trkpt>
      <trkpt lat="43.01135" lon="23.11646">
        <ele>1006.8</ele>
        <time>2022-06-06T06:02:15.000Z</time>
      </trkpt>
      <trkpt lat="43.0114" lon="23.11707">
        <ele>1005.28</ele>
        <time>2022-06-06T06:02:20.000Z</time>
      </trkpt>
      <trkpt lat="43.01128" lon="23.1182">
        <ele>1003.85</ele>
        <time>2022-06-06T06:02:25.000Z</time>
      </trkpt>
      <trkpt lat="43.01109" lon="23.11898">
        <ele>1002.3</ele>
        <time>2022-06-06T06:02:30.000Z</time>
      </trkpt>
      <trkpt lat="43.01089" lon="23.11969">
        <ele>997.95</ele>
        <time>2022-06-06T06:02:35.000Z</time>
      </trkpt>
      <trkpt lat="43.01051" lon="23.12018">
        <ele>994.87</ele>
        <time>2022-06-06T06:02:40.000Z</time>
      </trkpt>
      <trkpt lat="43.01009" lon="23.12062">
        <ele>992.57</ele>
        <time>2022-06-06T06:02:45.000Z</time>
      </trkpt>
      <trkpt lat="43.00962" lon="23.12105">
        <ele>990.07</ele>
        <time>2022-06-06T06:02:50.000Z</time>
      </trkpt>
      <trkpt lat="43.00909" lon="23.12161">
        <ele>987.54</ele>
        <time>2022-06-06T06:02:55.000Z</time>
      </trkpt>
      <trkpt lat="43.00858" lon="23.12224">
        <ele>985.17</ele>
        <time>2022-06-06T06:03:00.000Z</time>
      </trkpt>
      <trkpt lat="43.00815" lon="23.12301">
        <ele>982.86</ele>
        <time>2022-06-06T06:03:05.000Z</time>
      </trkpt>
      <trkpt lat="43.0077" lon="23.12391">
        <ele>979.9</ele>
        <time>2022-06-06T06:03:10.000Z</time>
      </trkpt>
      <trkpt lat="43.00773" lon="23.12445">
        <ele>971.97</ele>
        <time>2022-06-06T06:03:15.000Z</time>
      </trkpt>
      <trkpt lat="43.00743" lon="23.12429">
        <ele>965.65</ele>
        <time>2022-06-06T06:03:20.000Z</time>
      </trkpt>
      <trkpt lat="43.0073" lon="23.12372">
        <ele>959.29</ele>
        <time>2022-06-06T06:03:25.000Z</time>
      </trkpt>
      <trkpt lat="43.00713" lon="23.12315">
        <ele>953.27</ele>
        <time>2022-06-06T06:03:30.000Z</time>
      </trkpt>
      <trkpt lat="43.00684" lon="23.12274">
        <ele>947.74</ele>
        <time>2022-06-06T06:03:35.000Z</time>
      </trkpt>
      <trkpt lat="43.00638" lon="23.12277">
        <ele>941.87</ele>
        <time>2022-06-06T06:03:40.000Z</time>
      </trkpt>
      <trkpt lat="43.00592" lon="23.12298">
        <ele>935.96</ele>
        <time>2022-06-06T06:03:45.000Z</time>
      </trkpt>
      <trkpt lat="43.00542" lon="23.12322">
        <ele>930.35</ele>
        <time>2022-06-06T06:03:50.000Z</time>
      </trkpt>
      <trkpt lat="43.00489" lon="23.12346">
        <ele>925.33</ele>
        <time>2022-06-06T06:03:55.000Z</time>
      </trkpt>
      <trkpt lat="43.00434" lon="23.12371">
        <ele>919.6</ele>
        <time>2022-06-06T06:04:00.000Z</time>
      </trkpt>
      <trkpt lat="43.00386" lon="23.12393">
        <ele>914.72</ele>
        <time>2022-06-06T06:04:05.000Z</time>
      </trkpt>
      <trkpt lat="43.00337" lon="23.12411">
        <ele>910.02</ele>
        <time>2022-06-06T06:04:10.000Z</time>
      </trkpt>
      <trkpt lat="43.00285" lon="23.12428">
        <ele>905.23</ele>
        <time>2022-06-06T06:04:15.000Z</time>
      </trkpt>
      <trkpt lat="43.00233" lon="23.12449">
        <ele>900.6</ele>
        <time>2022-06-06T06:04:20.000Z</time>
      </trkpt>
      <trkpt lat="43.0019" lon="23.12476">
        <ele>890.68</ele>
        <time>2022-06-06T06:04:25.000Z</time>
      </trkpt>
      <trkpt lat="43.00162" lon="23.1251">
        <ele>885.81</ele>
        <time>2022-06-06T06:04:30.000Z</time>
      </trkpt>
      <trkpt lat="43.00136" lon="23.12534">
        <ele>881.64</ele>
        <time>2022-06-06T06:04:35.000Z</time>
      </trkpt>
      <trkpt lat="43.00112" lon="23.12547">
        <ele>878.14</ele>
        <time>2022-06-06T06:04:40.000Z</time>
      </trkpt>
      <trkpt lat="43.00089" lon="23.12564">
        <ele>874.53</ele>
        <time>2022-06-06T06:04:45.000Z</time>
      </trkpt>
      <trkpt lat="43.00055" lon="23.12589">
        <ele>870.31</ele>
        <time>2022-06-06T06:04:50.000Z</time>
      </trkpt>
      <trkpt lat="43.00018" lon="23.12618">
        <ele>868.39</ele>
        <time>2022-06-06T06:04:55.000Z</time>
      </trkpt>
      <trkpt lat="42.99987" lon="23.12647">
        <ele>868.04</ele>
        <time>2022-06-06T06:05:00.000Z</time>
      </trkpt>
      <trkpt lat="42.99962" lon="23.12666">
        <ele>866.11</ele>
        <time>2022-06-06T06:05:05.000Z</time>
      </trkpt>
      <trkpt lat="42.99949" lon="23.12681">
        <ele>863.93</ele>
        <time>2022-06-06T06:05:10.000Z</time>
      </trkpt>
      <trkpt lat="42.99939" lon="23.12691">
        <ele>862.79</ele>
        <time>2022-06-06T06:05:15.000Z</time>
      </trkpt>
      <trkpt lat="42.99927" lon="23.12696">
        <ele>862.77</ele>
        <time>2022-06-06T06:05:20.000Z</time>
      </trkpt>
      <trkpt lat="42.99914" lon="23.12699">
        <ele>864.93</ele>
        <time>2022-06-06T06:05:25.000Z</time>
      </trkpt>
      <trkpt lat="42.99902" lon="23.12696">
        <ele>866.85</ele>
        <time>2022-06-06T06:05:30.000Z</time>
      </trkpt>
      <trkpt lat="42.99888" lon="23.12693">
        <ele>867.27</ele>
        <time>2022-06-06T06:05:35.000Z</time>
      </trkpt>
      <trkpt lat="42.99869" lon="23.12693">
        <ele>868.08</ele>
        <time>2022-06-06T06:05:40.000Z</time>
      </trkpt>
      <trkpt lat="42.99849" lon="23.12706">
        <ele>867.37</ele>
        <time>2022-06-06T06:05:45.000Z</time>
      </trkpt>
      <trkpt lat="42.99827" lon="23.12727">
        <ele>866.88</ele>
        <time>2022-06-06T06:05:50.000Z</time>
      </trkpt>
      <trkpt lat="42.99791" lon="23.1275">
        <ele>867.53</ele>
        <time>2022-06-06T06:05:55.000Z</time>
      </trkpt>
      <trkpt lat="42.99751" lon="23.12783">
        <ele>867.67</ele>
        <time>2022-06-06T06:06:00.000Z</time>
      </trkpt>
      <trkpt lat="42.99729" lon="23.12846">
        <ele>866.7</ele>
        <time>2022-06-06T06:06:05.000Z</time>
      </trkpt>
      <trkpt lat="42.99699" lon="23.12895">
        <ele>865.1</ele>
        <time>2022-06-06T06:06:10.000Z</time>
      </trkpt>
      <trkpt lat="42.99652" lon="23.12893">
        <ele>863.5</ele>
        <time>2022-06-06T06:06:15.000Z</time>
      </trkpt>
      <trkpt lat="42.996" lon="23.12862">
        <ele>861.31</ele>
        <time>2022-06-06T06:06:20.000Z</time>
      </trkpt>
      <trkpt lat="42.99547" lon="23.12815">
        <ele>858.96</ele>
        <time>2022-06-06T06:06:25.000Z</time>
      </trkpt>
      <trkpt lat="42.99486" lon="23.12781">
        <ele>857.26</ele>
        <time>2022-06-06T06:06:30.000Z</time>
      </trkpt>
      <trkpt lat="42.99429" lon="23.1276">
        <ele>855.37</ele>
        <time>2022-06-06T06:06:35.000Z</time>
      </trkpt>
      <trkpt lat="42.99384" lon="23.12773">
        <ele>849.1</ele>
        <time>2022-06-06T06:06:40.000Z</time>
      </trkpt>
      <trkpt lat="42.99361" lon="23.12817">
        <ele>845.76</ele>
        <time>2022-06-06T06:06:45.000Z</time>
      </trkpt>
      <trkpt lat="42.99349" lon="23.12856">
        <ele>843.01</ele>
        <time>2022-06-06T06:06:50.000Z</time>
      </trkpt>
      <trkpt lat="42.99339" lon="23.12888">
        <ele>841.12</ele>
        <time>2022-06-06T06:06:55.000Z</time>
      </trkpt>
      <trkpt lat="42.9933" lon="23.12909">
        <ele>838.33</ele>
        <time>2022-06-06T06:07:00.000Z</time>
      </trkpt>
      <trkpt lat="42.99327" lon="23.12923">
        <ele>836.51</ele>
        <time>2022-06-06T06:07:05.000Z</time>
      </trkpt>
      <trkpt lat="42.99321" lon="23.12938">
        <ele>834.63</ele>
        <time>2022-06-06T06:07:10.000Z</time>
      </trkpt>
      <trkpt lat="42.99312" lon="23.12955">
        <ele>832.73</ele>
        <time>2022-06-06T06:07:15.000Z</time>
      </trkpt>
      <trkpt lat="42.99306" lon="23.12969">
        <ele>830.83</ele>
        <time>2022-06-06T06:07:20.000Z</time>
      </trkpt>
      <trkpt lat="42.993" lon="23.12987">
        <ele>828.93</ele>
        <time>2022-06-06T06:07:25.000Z</time>
      </trkpt>
      <trkpt lat="42.99283" lon="23.12998">
        <ele>826.93</ele>
        <time>2022-06-06T06:07:30.000Z</time>
      </trkpt>
      <trkpt lat="42.99266" lon="23.13014">
        <ele>825.18</ele>
        <time>2022-06-06T06:07:35.000Z</time>
      </trkpt>
      <trkpt lat="42.99249" lon="23.13028">
        <ele>823.5</ele>
        <time>2022-06-06T06:07:40.000Z</time>
      </trkpt>
      <trkpt lat="42.99232" lon="23.13046">
        <ele>821.93</ele>
        <time>2022-06-06T06:07:45.000Z</time>
      </trkpt>
      <trkpt lat="42.99214" lon="23.13057">
        <ele>821.96</ele>
        <time>2022-06-06T06:07:50.000Z</time>
      </trkpt>
      <trkpt lat="42.99198" lon="23.13066">
        <ele>822.9</ele>
        <time>2022-06-06T06:07:55.000Z</time>
      </trkpt>
      <trkpt lat="42.99185" lon="23.13075">
        <ele>822.76</ele>
        <time>2022-06-06T06:08:00.000Z</time>
      </trkpt>
      <trkpt lat="42.99174" lon="23.13085">
        <ele>821.77</ele>
        <time>2022-06-06T06:08:05.000Z</time>
      </trkpt>
      <trkpt lat="42.99161" lon="23.131">
        <ele>820.79</ele>
        <time>2022-06-06T06:08:10.000Z</time>
      </trkpt>
      <trkpt lat="42.99146" lon="23.13124">
        <ele>821.81</ele>
        <time>2022-06-06T06:08:15.000Z</time>
      </trkpt>
      <trkpt lat="42.99114" lon="23.13124">
        <ele>821.36</ele>
        <time>2022-06-06T06:08:20.000Z</time>
      </trkpt>
      <trkpt lat="42.9907" lon="23.1313">
        <ele>820</ele>
        <time>2022-06-06T06:08:25.000Z</time>
      </trkpt>
      <trkpt lat="42.99024" lon="23.13146">
        <ele>818.77</ele>
        <time>2022-06-06T06:08:30.000Z</time>
      </trkpt>
      <trkpt lat="42.98974" lon="23.13136">
        <ele>817.32</ele>
        <time>2022-06-06T06:08:35.000Z</time>
      </trkpt>
      <trkpt lat="42.98923" lon="23.13112">
        <ele>815.55</ele>
        <time>2022-06-06T06:08:40.000Z</time>
      </trkpt>
      <trkpt lat="42.98875" lon="23.1308">
        <ele>813.83</ele>
        <time>2022-06-06T06:08:45.000Z</time>
      </trkpt>
      <trkpt lat="42.98838" lon="23.13043">
        <ele>812.03</ele>
        <time>2022-06-06T06:08:50.000Z</time>
      </trkpt>
      <trkpt lat="42.98798" lon="23.12997">
        <ele>809.94</ele>
        <time>2022-06-06T06:08:55.000Z</time>
      </trkpt>
      <trkpt lat="42.98755" lon="23.12946">
        <ele>808.13</ele>
        <time>2022-06-06T06:09:00.000Z</time>
      </trkpt>
      <trkpt lat="42.98721" lon="23.12881">
        <ele>806.23</ele>
        <time>2022-06-06T06:09:05.000Z</time>
      </trkpt>
      <trkpt lat="42.98695" lon="23.12815">
        <ele>804.44</ele>
        <time>2022-06-06T06:09:10.000Z</time>
      </trkpt>
      <trkpt lat="42.98671" lon="23.12753">
        <ele>802.06</ele>
        <time>2022-06-06T06:09:15.000Z</time>
      </trkpt>
      <trkpt lat="42.98629" lon="23.12715">
        <ele>799.79</ele>
        <time>2022-06-06T06:09:20.000Z</time>
      </trkpt>
      <trkpt lat="42.98579" lon="23.12724">
        <ele>796.24</ele>
        <time>2022-06-06T06:09:25.000Z</time>
      </trkpt>
      <trkpt lat="42.98532" lon="23.12753">
        <ele>794.34</ele>
        <time>2022-06-06T06:09:30.000Z</time>
      </trkpt>
      <trkpt lat="42.98485" lon="23.12786">
        <ele>792.99</ele>
        <time>2022-06-06T06:09:35.000Z</time>
      </trkpt>
      <trkpt lat="42.9844" lon="23.12815">
        <ele>791.33</ele>
        <time>2022-06-06T06:09:40.000Z</time>
      </trkpt>
      <trkpt lat="42.98397" lon="23.12844">
        <ele>789.33</ele>
        <time>2022-06-06T06:09:45.000Z</time>
      </trkpt>
      <trkpt lat="42.9835" lon="23.12878">
        <ele>787.46</ele>
        <time>2022-06-06T06:09:50.000Z</time>
      </trkpt>
      <trkpt lat="42.98299" lon="23.12912">
        <ele>782.41</ele>
        <time>2022-06-06T06:09:55.000Z</time>
      </trkpt>
      <trkpt lat="42.98252" lon="23.12922">
        <ele>779.95</ele>
        <time>2022-06-06T06:10:00.000Z</time>
      </trkpt>
      <trkpt lat="42.98221" lon="23.12916">
        <ele>777.94</ele>
        <time>2022-06-06T06:10:05.000Z</time>
      </trkpt>
      <trkpt lat="42.98208" lon="23.12916">
        <ele>775.73</ele>
        <time>2022-06-06T06:10:10.000Z</time>
      </trkpt>
      <trkpt lat="42.98202" lon="23.12927">
        <ele>778.91</ele>
        <time>2022-06-06T06:13:07.000Z</time>
      </trkpt>
      <trkpt lat="42.98194" lon="23.12938">
        <ele>776.92</ele>
        <time>2022-06-06T06:13:50.000Z</time>
      </trkpt>
      <trkpt lat="42.98198" lon="23.12949">
        <ele>776.5</ele>
        <time>2022-06-06T06:14:03.000Z</time>
      </trkpt>
      <trkpt lat="42.98198" lon="23.12961">
        <ele>773.9</ele>
        <time>2022-06-06T06:15:32.000Z</time>
      </trkpt>
      <trkpt lat="42.982" lon="23.12948">
        <ele>773.28</ele>
        <time>2022-06-06T06:16:51.000Z</time>
      </trkpt>
      <trkpt lat="42.98194" lon="23.12935">
        <ele>764.38</ele>
        <time>2022-06-06T06:27:36.000Z</time>
      </trkpt>
      <trkpt lat="42.9819" lon="23.12921">
        <ele>764.5</ele>
        <time>2022-06-06T06:27:44.000Z</time>
      </trkpt>
      <trkpt lat="42.98193" lon="23.12903">
        <ele>764.57</ele>
        <time>2022-06-06T06:27:49.000Z</time>
      </trkpt>
      <trkpt lat="42.98201" lon="23.1288">
        <ele>764.67</ele>
        <time>2022-06-06T06:27:54.000Z</time>
      </trkpt>
      <trkpt lat="42.98214" lon="23.12855">
        <ele>765.14</ele>
        <time>2022-06-06T06:27:59.000Z</time>
      </trkpt>
      <trkpt lat="42.98228" lon="23.12828">
        <ele>765.51</ele>
        <time>2022-06-06T06:28:04.000Z</time>
      </trkpt>
      <trkpt lat="42.98243" lon="23.12798">
        <ele>766.99</ele>
        <time>2022-06-06T06:28:09.000Z</time>
      </trkpt>
      <trkpt lat="42.98258" lon="23.12772">
        <ele>768.05</ele>
        <time>2022-06-06T06:28:14.000Z</time>
      </trkpt>
      <trkpt lat="42.9827" lon="23.12747">
        <ele>769.88</ele>
        <time>2022-06-06T06:28:19.000Z</time>
      </trkpt>
      <trkpt lat="42.98281" lon="23.12717">
        <ele>771.24</ele>
        <time>2022-06-06T06:28:24.000Z</time>
      </trkpt>
      <trkpt lat="42.98295" lon="23.12687">
        <ele>771.77</ele>
        <time>2022-06-06T06:28:29.000Z</time>
      </trkpt>
      <trkpt lat="42.98312" lon="23.12655">
        <ele>772.07</ele>
        <time>2022-06-06T06:28:34.000Z</time>
      </trkpt>
      <trkpt lat="42.98331" lon="23.12618">
        <ele>771.83</ele>
        <time>2022-06-06T06:28:39.000Z</time>
      </trkpt>
      <trkpt lat="42.98349" lon="23.12579">
        <ele>770.71</ele>
        <time>2022-06-06T06:28:44.000Z</time>
      </trkpt>
      <trkpt lat="42.98367" lon="23.12543">
        <ele>769.72</ele>
        <time>2022-06-06T06:28:49.000Z</time>
      </trkpt>
      <trkpt lat="42.98386" lon="23.12503">
        <ele>769.58</ele>
        <time>2022-06-06T06:28:54.000Z</time>
      </trkpt>
      <trkpt lat="42.98407" lon="23.12463">
        <ele>767.71</ele>
        <time>2022-06-06T06:28:59.000Z</time>
      </trkpt>
      <trkpt lat="42.98427" lon="23.12421">
        <ele>766.37</ele>
        <time>2022-06-06T06:29:04.000Z</time>
      </trkpt>
      <trkpt lat="42.98447" lon="23.12377">
        <ele>765.02</ele>
        <time>2022-06-06T06:29:09.000Z</time>
      </trkpt>
      <trkpt lat="42.98467" lon="23.12336">
        <ele>762.71</ele>
        <time>2022-06-06T06:29:14.000Z</time>
      </trkpt>
      <trkpt lat="42.98486" lon="23.12294">
        <ele>761.6</ele>
        <time>2022-06-06T06:29:19.000Z</time>
      </trkpt>
      <trkpt lat="42.98504" lon="23.12253">
        <ele>759.69</ele>
        <time>2022-06-06T06:29:24.000Z</time>
      </trkpt>
      <trkpt lat="42.98523" lon="23.12215">
        <ele>758.55</ele>
        <time>2022-06-06T06:29:29.000Z</time>
      </trkpt>
      <trkpt lat="42.98542" lon="23.12174">
        <ele>757.43</ele>
        <time>2022-06-06T06:29:34.000Z</time>
      </trkpt>
      <trkpt lat="42.98561" lon="23.12133">
        <ele>756.27</ele>
        <time>2022-06-06T06:29:39.000Z</time>
      </trkpt>
      <trkpt lat="42.98581" lon="23.12093">
        <ele>754.45</ele>
        <time>2022-06-06T06:29:44.000Z</time>
      </trkpt>
      <trkpt lat="42.98601" lon="23.12052">
        <ele>753.47</ele>
        <time>2022-06-06T06:29:49.000Z</time>
      </trkpt>
      <trkpt lat="42.98619" lon="23.12013">
        <ele>752.63</ele>
        <time>2022-06-06T06:29:54.000Z</time>
      </trkpt>
      <trkpt lat="42.98637" lon="23.11973">
        <ele>751.83</ele>
        <time>2022-06-06T06:29:59.000Z</time>
      </trkpt>
      <trkpt lat="42.98657" lon="23.11932">
        <ele>751.26</ele>
        <time>2022-06-06T06:30:04.000Z</time>
      </trkpt>
      <trkpt lat="42.98675" lon="23.11891">
        <ele>750.88</ele>
        <time>2022-06-06T06:30:09.000Z</time>
      </trkpt>
      <trkpt lat="42.98694" lon="23.11848">
        <ele>750.42</ele>
        <time>2022-06-06T06:30:14.000Z</time>
      </trkpt>
      <trkpt lat="42.98713" lon="23.11805">
        <ele>749.75</ele>
        <time>2022-06-06T06:30:19.000Z</time>
      </trkpt>
      <trkpt lat="42.98728" lon="23.1176">
        <ele>747.45</ele>
        <time>2022-06-06T06:30:24.000Z</time>
      </trkpt>
      <trkpt lat="42.98739" lon="23.11712">
        <ele>747.72</ele>
        <time>2022-06-06T06:30:29.000Z</time>
      </trkpt>
      <trkpt lat="42.98746" lon="23.11665">
        <ele>747.71</ele>
        <time>2022-06-06T06:30:34.000Z</time>
      </trkpt>
      <trkpt lat="42.98753" lon="23.11625">
        <ele>746.98</ele>
        <time>2022-06-06T06:30:39.000Z</time>
      </trkpt>
      <trkpt lat="42.98762" lon="23.11587">
        <ele>746.36</ele>
        <time>2022-06-06T06:30:44.000Z</time>
      </trkpt>
      <trkpt lat="42.98769" lon="23.11554">
        <ele>746.3</ele>
        <time>2022-06-06T06:30:49.000Z</time>
      </trkpt>
      <trkpt lat="42.98776" lon="23.11522">
        <ele>745.44</ele>
        <time>2022-06-06T06:30:54.000Z</time>
      </trkpt>
      <trkpt lat="42.98782" lon="23.11488">
        <ele>744.99</ele>
        <time>2022-06-06T06:30:59.000Z</time>
      </trkpt>
      <trkpt lat="42.98788" lon="23.11454">
        <ele>745.27</ele>
        <time>2022-06-06T06:31:04.000Z</time>
      </trkpt>
      <trkpt lat="42.98793" lon="23.11422">
        <ele>745.09</ele>
        <time>2022-06-06T06:31:09.000Z</time>
      </trkpt>
      <trkpt lat="42.98798" lon="23.1139">
        <ele>744.25</ele>
        <time>2022-06-06T06:31:14.000Z</time>
      </trkpt>
      <trkpt lat="42.98806" lon="23.11355">
        <ele>744.22</ele>
        <time>2022-06-06T06:31:19.000Z</time>
      </trkpt>
      <trkpt lat="42.98812" lon="23.11316">
        <ele>743.98</ele>
        <time>2022-06-06T06:31:24.000Z</time>
      </trkpt>
      <trkpt lat="42.9882" lon="23.11271">
        <ele>744.15</ele>
        <time>2022-06-06T06:31:29.000Z</time>
      </trkpt>
      <trkpt lat="42.98827" lon="23.11229">
        <ele>744.44</ele>
        <time>2022-06-06T06:31:34.000Z</time>
      </trkpt>
      <trkpt lat="42.98835" lon="23.11186">
        <ele>743.8</ele>
        <time>2022-06-06T06:31:39.000Z</time>
      </trkpt>
      <trkpt lat="42.98844" lon="23.11144">
        <ele>743.44</ele>
        <time>2022-06-06T06:31:44.000Z</time>
      </trkpt>
      <trkpt lat="42.98852" lon="23.11104">
        <ele>742.61</ele>
        <time>2022-06-06T06:31:49.000Z</time>
      </trkpt>
      <trkpt lat="42.98861" lon="23.11066">
        <ele>742.26</ele>
        <time>2022-06-06T06:31:54.000Z</time>
      </trkpt>
      <trkpt lat="42.98869" lon="23.11027">
        <ele>741.57</ele>
        <time>2022-06-06T06:31:59.000Z</time>
      </trkpt>
      <trkpt lat="42.98876" lon="23.10988">
        <ele>741.73</ele>
        <time>2022-06-06T06:32:04.000Z</time>
      </trkpt>
      <trkpt lat="42.98883" lon="23.10953">
        <ele>742.47</ele>
        <time>2022-06-06T06:32:09.000Z</time>
      </trkpt>
      <trkpt lat="42.98889" lon="23.1092">
        <ele>742.66</ele>
        <time>2022-06-06T06:32:14.000Z</time>
      </trkpt>
      <trkpt lat="42.98894" lon="23.10888">
        <ele>743.42</ele>
        <time>2022-06-06T06:32:19.000Z</time>
      </trkpt>
      <trkpt lat="42.98899" lon="23.10856">
        <ele>743.67</ele>
        <time>2022-06-06T06:32:24.000Z</time>
      </trkpt>
      <trkpt lat="42.98904" lon="23.10825">
        <ele>743.98</ele>
        <time>2022-06-06T06:32:29.000Z</time>
      </trkpt>
      <trkpt lat="42.9891" lon="23.10792">
        <ele>743.84</ele>
        <time>2022-06-06T06:32:34.000Z</time>
      </trkpt>
      <trkpt lat="42.98914" lon="23.10759">
        <ele>743.54</ele>
        <time>2022-06-06T06:32:39.000Z</time>
      </trkpt>
      <trkpt lat="42.98922" lon="23.10722">
        <ele>742.86</ele>
        <time>2022-06-06T06:32:44.000Z</time>
      </trkpt>
      <trkpt lat="42.98928" lon="23.10683">
        <ele>741.49</ele>
        <time>2022-06-06T06:32:49.000Z</time>
      </trkpt>
      <trkpt lat="42.98933" lon="23.10644">
        <ele>740.86</ele>
        <time>2022-06-06T06:32:54.000Z</time>
      </trkpt>
      <trkpt lat="42.98941" lon="23.10604">
        <ele>740.37</ele>
        <time>2022-06-06T06:32:59.000Z</time>
      </trkpt>
      <trkpt lat="42.98946" lon="23.10564">
        <ele>740.68</ele>
        <time>2022-06-06T06:33:04.000Z</time>
      </trkpt>
      <trkpt lat="42.98952" lon="23.10523">
        <ele>741.85</ele>
        <time>2022-06-06T06:33:09.000Z</time>
      </trkpt>
      <trkpt lat="42.98959" lon="23.10481">
        <ele>743.16</ele>
        <time>2022-06-06T06:33:14.000Z</time>
      </trkpt>
      <trkpt lat="42.98966" lon="23.10441">
        <ele>743.35</ele>
        <time>2022-06-06T06:33:19.000Z</time>
      </trkpt>
      <trkpt lat="42.98973" lon="23.10405">
        <ele>742.9</ele>
        <time>2022-06-06T06:33:24.000Z</time>
      </trkpt>
      <trkpt lat="42.98979" lon="23.1037">
        <ele>741.92</ele>
        <time>2022-06-06T06:33:29.000Z</time>
      </trkpt>
      <trkpt lat="42.98986" lon="23.10335">
        <ele>741.25</ele>
        <time>2022-06-06T06:33:34.000Z</time>
      </trkpt>
      <trkpt lat="42.98993" lon="23.10299">
        <ele>741.42</ele>
        <time>2022-06-06T06:33:39.000Z</time>
      </trkpt>
      <trkpt lat="42.99001" lon="23.10262">
        <ele>740.1</ele>
        <time>2022-06-06T06:33:44.000Z</time>
      </trkpt>
      <trkpt lat="42.99009" lon="23.10225">
        <ele>739.5</ele>
        <time>2022-06-06T06:33:49.000Z</time>
      </trkpt>
      <trkpt lat="42.99018" lon="23.1019">
        <ele>739.07</ele>
        <time>2022-06-06T06:33:54.000Z</time>
      </trkpt>
      <trkpt lat="42.99025" lon="23.10155">
        <ele>738.79</ele>
        <time>2022-06-06T06:33:59.000Z</time>
      </trkpt>
      <trkpt lat="42.99034" lon="23.10119">
        <ele>739.13</ele>
        <time>2022-06-06T06:34:04.000Z</time>
      </trkpt>
      <trkpt lat="42.99042" lon="23.10083">
        <ele>740.02</ele>
        <time>2022-06-06T06:34:09.000Z</time>
      </trkpt>
      <trkpt lat="42.99051" lon="23.10047">
        <ele>740.46</ele>
        <time>2022-06-06T06:34:14.000Z</time>
      </trkpt>
      <trkpt lat="42.9906" lon="23.10011">
        <ele>742.51</ele>
        <time>2022-06-06T06:34:19.000Z</time>
      </trkpt>
      <trkpt lat="42.99069" lon="23.09975">
        <ele>741.88</ele>
        <time>2022-06-06T06:34:24.000Z</time>
      </trkpt>
      <trkpt lat="42.99076" lon="23.0994">
        <ele>740.46</ele>
        <time>2022-06-06T06:34:29.000Z</time>
      </trkpt>
      <trkpt lat="42.99086" lon="23.09903">
        <ele>739.84</ele>
        <time>2022-06-06T06:34:34.000Z</time>
      </trkpt>
      <trkpt lat="42.99096" lon="23.09861">
        <ele>738.8</ele>
        <time>2022-06-06T06:34:39.000Z</time>
      </trkpt>
      <trkpt lat="42.99105" lon="23.09819">
        <ele>737.57</ele>
        <time>2022-06-06T06:34:44.000Z</time>
      </trkpt>
      <trkpt lat="42.99115" lon="23.09778">
        <ele>736.14</ele>
        <time>2022-06-06T06:34:49.000Z</time>
      </trkpt>
      <trkpt lat="42.99125" lon="23.09737">
        <ele>734.65</ele>
        <time>2022-06-06T06:34:54.000Z</time>
      </trkpt>
      <trkpt lat="42.99133" lon="23.09698">
        <ele>732.98</ele>
        <time>2022-06-06T06:34:59.000Z</time>
      </trkpt>
      <trkpt lat="42.99141" lon="23.09659">
        <ele>731.8</ele>
        <time>2022-06-06T06:35:04.000Z</time>
      </trkpt>
      <trkpt lat="42.99151" lon="23.09618">
        <ele>730.57</ele>
        <time>2022-06-06T06:35:09.000Z</time>
      </trkpt>
      <trkpt lat="42.99162" lon="23.09582">
        <ele>729.88</ele>
        <time>2022-06-06T06:35:14.000Z</time>
      </trkpt>
      <trkpt lat="42.99173" lon="23.09547">
        <ele>730.23</ele>
        <time>2022-06-06T06:35:19.000Z</time>
      </trkpt>
      <trkpt lat="42.99188" lon="23.09514">
        <ele>730.82</ele>
        <time>2022-06-06T06:35:24.000Z</time>
      </trkpt>
      <trkpt lat="42.99204" lon="23.09483">
        <ele>730.8</ele>
        <time>2022-06-06T06:35:29.000Z</time>
      </trkpt>
      <trkpt lat="42.99221" lon="23.09455">
        <ele>730.81</ele>
        <time>2022-06-06T06:35:34.000Z</time>
      </trkpt>
      <trkpt lat="42.99237" lon="23.09431">
        <ele>731.04</ele>
        <time>2022-06-06T06:35:39.000Z</time>
      </trkpt>
      <trkpt lat="42.99252" lon="23.09406">
        <ele>732.21</ele>
        <time>2022-06-06T06:35:44.000Z</time>
      </trkpt>
      <trkpt lat="42.99265" lon="23.09384">
        <ele>732.4</ele>
        <time>2022-06-06T06:35:49.000Z</time>
      </trkpt>
      <trkpt lat="42.99278" lon="23.09363">
        <ele>732.53</ele>
        <time>2022-06-06T06:35:54.000Z</time>
      </trkpt>
      <trkpt lat="42.99288" lon="23.09343">
        <ele>732.65</ele>
        <time>2022-06-06T06:35:59.000Z</time>
      </trkpt>
      <trkpt lat="42.99298" lon="23.09324">
        <ele>733.8</ele>
        <time>2022-06-06T06:36:04.000Z</time>
      </trkpt>
      <trkpt lat="42.99308" lon="23.09307">
        <ele>735.03</ele>
        <time>2022-06-06T06:36:09.000Z</time>
      </trkpt>
      <trkpt lat="42.99316" lon="23.09292">
        <ele>735.76</ele>
        <time>2022-06-06T06:36:14.000Z</time>
      </trkpt>
      <trkpt lat="42.99324" lon="23.09279">
        <ele>737.32</ele>
        <time>2022-06-06T06:36:19.000Z</time>
      </trkpt>
      <trkpt lat="42.99331" lon="23.09264">
        <ele>739.08</ele>
        <time>2022-06-06T06:36:24.000Z</time>
      </trkpt>
      <trkpt lat="42.99339" lon="23.0925">
        <ele>740.31</ele>
        <time>2022-06-06T06:36:29.000Z</time>
      </trkpt>
      <trkpt lat="42.99347" lon="23.09235">
        <ele>741.34</ele>
        <time>2022-06-06T06:36:34.000Z</time>
      </trkpt>
      <trkpt lat="42.99355" lon="23.09224">
        <ele>742.88</ele>
        <time>2022-06-06T06:36:39.000Z</time>
      </trkpt>
      <trkpt lat="42.99363" lon="23.09213">
        <ele>744.7</ele>
        <time>2022-06-06T06:36:44.000Z</time>
      </trkpt>
      <trkpt lat="42.9937" lon="23.09203">
        <ele>745.68</ele>
        <time>2022-06-06T06:36:49.000Z</time>
      </trkpt>
      <trkpt lat="42.99373" lon="23.0919">
        <ele>747</ele>
        <time>2022-06-06T06:36:54.000Z</time>
      </trkpt>
      <trkpt lat="42.99376" lon="23.09178">
        <ele>748.96</ele>
        <time>2022-06-06T06:36:59.000Z</time>
      </trkpt>
      <trkpt lat="42.99379" lon="23.09165">
        <ele>750.16</ele>
        <time>2022-06-06T06:37:05.000Z</time>
      </trkpt>
      <trkpt lat="42.99382" lon="23.09152">
        <ele>750.83</ele>
        <time>2022-06-06T06:37:10.000Z</time>
      </trkpt>
      <trkpt lat="42.99386" lon="23.09138">
        <ele>751.61</ele>
        <time>2022-06-06T06:37:15.000Z</time>
      </trkpt>
      <trkpt lat="42.99387" lon="23.09124">
        <ele>753.23</ele>
        <time>2022-06-06T06:37:21.000Z</time>
      </trkpt>
      <trkpt lat="42.99387" lon="23.09109">
        <ele>754.91</ele>
        <time>2022-06-06T06:37:27.000Z</time>
      </trkpt>
      <trkpt lat="42.99388" lon="23.09097">
        <ele>756.07</ele>
        <time>2022-06-06T06:37:33.000Z</time>
      </trkpt>
      <trkpt lat="42.99386" lon="23.09084">
        <ele>755.1</ele>
        <time>2022-06-06T06:37:59.000Z</time>
      </trkpt>
      <trkpt lat="42.99386" lon="23.0907">
        <ele>754.92</ele>
        <time>2022-06-06T06:38:04.000Z</time>
      </trkpt>
      <trkpt lat="42.99387" lon="23.09048">
        <ele>755.12</ele>
        <time>2022-06-06T06:38:09.000Z</time>
      </trkpt>
      <trkpt lat="42.99387" lon="23.09027">
        <ele>754.41</ele>
        <time>2022-06-06T06:38:14.000Z</time>
      </trkpt>
      <trkpt lat="42.99388" lon="23.08999">
        <ele>754.91</ele>
        <time>2022-06-06T06:38:19.000Z</time>
      </trkpt>
      <trkpt lat="42.99388" lon="23.08964">
        <ele>754.97</ele>
        <time>2022-06-06T06:38:24.000Z</time>
      </trkpt>
      <trkpt lat="42.99389" lon="23.08925">
        <ele>755.42</ele>
        <time>2022-06-06T06:38:29.000Z</time>
      </trkpt>
      <trkpt lat="42.99389" lon="23.08886">
        <ele>755.87</ele>
        <time>2022-06-06T06:38:34.000Z</time>
      </trkpt>
      <trkpt lat="42.9939" lon="23.08845">
        <ele>755.84</ele>
        <time>2022-06-06T06:38:39.000Z</time>
      </trkpt>
      <trkpt lat="42.9939" lon="23.08807">
        <ele>756.04</ele>
        <time>2022-06-06T06:38:44.000Z</time>
      </trkpt>
      <trkpt lat="42.9939" lon="23.08768">
        <ele>755.97</ele>
        <time>2022-06-06T06:38:49.000Z</time>
      </trkpt>
      <trkpt lat="42.99388" lon="23.08732">
        <ele>756.44</ele>
        <time>2022-06-06T06:38:54.000Z</time>
      </trkpt>
      <trkpt lat="42.99388" lon="23.08699">
        <ele>756.68</ele>
        <time>2022-06-06T06:38:59.000Z</time>
      </trkpt>
      <trkpt lat="42.9939" lon="23.08662">
        <ele>757.29</ele>
        <time>2022-06-06T06:39:04.000Z</time>
      </trkpt>
      <trkpt lat="42.99391" lon="23.08625">
        <ele>757.49</ele>
        <time>2022-06-06T06:39:09.000Z</time>
      </trkpt>
      <trkpt lat="42.9939" lon="23.08586">
        <ele>756.78</ele>
        <time>2022-06-06T06:39:14.000Z</time>
      </trkpt>
      <trkpt lat="42.99391" lon="23.08547">
        <ele>757.03</ele>
        <time>2022-06-06T06:39:19.000Z</time>
      </trkpt>
      <trkpt lat="42.99393" lon="23.08512">
        <ele>757.01</ele>
        <time>2022-06-06T06:39:24.000Z</time>
      </trkpt>
      <trkpt lat="42.99391" lon="23.0848">
        <ele>756.32</ele>
        <time>2022-06-06T06:39:29.000Z</time>
      </trkpt>
      <trkpt lat="42.99387" lon="23.08449">
        <ele>755.99</ele>
        <time>2022-06-06T06:39:34.000Z</time>
      </trkpt>
      <trkpt lat="42.99381" lon="23.0842">
        <ele>755.92</ele>
        <time>2022-06-06T06:39:39.000Z</time>
      </trkpt>
      <trkpt lat="42.99373" lon="23.08395">
        <ele>755.53</ele>
        <time>2022-06-06T06:39:44.000Z</time>
      </trkpt>
      <trkpt lat="42.99365" lon="23.08369">
        <ele>755.4</ele>
        <time>2022-06-06T06:39:49.000Z</time>
      </trkpt>
      <trkpt lat="42.99358" lon="23.08341">
        <ele>755.67</ele>
        <time>2022-06-06T06:39:54.000Z</time>
      </trkpt>
      <trkpt lat="42.99349" lon="23.08314">
        <ele>756.17</ele>
        <time>2022-06-06T06:39:59.000Z</time>
      </trkpt>
      <trkpt lat="42.99341" lon="23.08289">
        <ele>756.59</ele>
        <time>2022-06-06T06:40:04.000Z</time>
      </trkpt>
      <trkpt lat="42.99333" lon="23.08262">
        <ele>756.8</ele>
        <time>2022-06-06T06:40:09.000Z</time>
      </trkpt>
      <trkpt lat="42.99324" lon="23.08237">
        <ele>757.46</ele>
        <time>2022-06-06T06:40:14.000Z</time>
      </trkpt>
      <trkpt lat="42.99314" lon="23.08207">
        <ele>757.77</ele>
        <time>2022-06-06T06:40:19.000Z</time>
      </trkpt>
      <trkpt lat="42.99304" lon="23.08175">
        <ele>757.99</ele>
        <time>2022-06-06T06:40:24.000Z</time>
      </trkpt>
      <trkpt lat="42.99299" lon="23.08143">
        <ele>758.2</ele>
        <time>2022-06-06T06:40:29.000Z</time>
      </trkpt>
      <trkpt lat="42.99292" lon="23.08111">
        <ele>758.67</ele>
        <time>2022-06-06T06:40:34.000Z</time>
      </trkpt>
      <trkpt lat="42.99289" lon="23.08078">
        <ele>758.89</ele>
        <time>2022-06-06T06:40:39.000Z</time>
      </trkpt>
      <trkpt lat="42.99288" lon="23.08045">
        <ele>759.63</ele>
        <time>2022-06-06T06:40:44.000Z</time>
      </trkpt>
      <trkpt lat="42.99292" lon="23.08011">
        <ele>759.58</ele>
        <time>2022-06-06T06:40:49.000Z</time>
      </trkpt>
      <trkpt lat="42.99296" lon="23.0798">
        <ele>756.8</ele>
        <time>2022-06-06T06:40:54.000Z</time>
      </trkpt>
      <trkpt lat="42.99302" lon="23.07948">
        <ele>755.15</ele>
        <time>2022-06-06T06:40:59.000Z</time>
      </trkpt>
      <trkpt lat="42.99308" lon="23.07919">
        <ele>752.75</ele>
        <time>2022-06-06T06:41:04.000Z</time>
      </trkpt>
      <trkpt lat="42.99313" lon="23.07893">
        <ele>752.19</ele>
        <time>2022-06-06T06:41:09.000Z</time>
      </trkpt>
      <trkpt lat="42.99317" lon="23.07872">
        <ele>753.24</ele>
        <time>2022-06-06T06:41:14.000Z</time>
      </trkpt>
      <trkpt lat="42.99324" lon="23.07855">
        <ele>753.5</ele>
        <time>2022-06-06T06:41:19.000Z</time>
      </trkpt>
      <trkpt lat="42.99328" lon="23.07837">
        <ele>754.06</ele>
        <time>2022-06-06T06:41:24.000Z</time>
      </trkpt>
      <trkpt lat="42.99328" lon="23.07824">
        <ele>754.77</ele>
        <time>2022-06-06T06:41:29.000Z</time>
      </trkpt>
      <trkpt lat="42.99335" lon="23.07805">
        <ele>756.74</ele>
        <time>2022-06-06T06:41:34.000Z</time>
      </trkpt>
      <trkpt lat="42.9934" lon="23.07788">
        <ele>757.53</ele>
        <time>2022-06-06T06:41:39.000Z</time>
      </trkpt>
      <trkpt lat="42.99345" lon="23.07771">
        <ele>759.32</ele>
        <time>2022-06-06T06:41:44.000Z</time>
      </trkpt>
      <trkpt lat="42.9935" lon="23.07757">
        <ele>760.91</ele>
        <time>2022-06-06T06:41:49.000Z</time>
      </trkpt>
      <trkpt lat="42.99352" lon="23.07743">
        <ele>761.35</ele>
        <time>2022-06-06T06:41:54.000Z</time>
      </trkpt>
      <trkpt lat="42.99355" lon="23.07729">
        <ele>761.74</ele>
        <time>2022-06-06T06:41:59.000Z</time>
      </trkpt>
      <trkpt lat="42.9936" lon="23.07718">
        <ele>761.36</ele>
        <time>2022-06-06T06:42:04.000Z</time>
      </trkpt>
      <trkpt lat="42.99363" lon="23.07705">
        <ele>761.46</ele>
        <time>2022-06-06T06:42:09.000Z</time>
      </trkpt>
      <trkpt lat="42.99365" lon="23.07692">
        <ele>761.89</ele>
        <time>2022-06-06T06:42:14.000Z</time>
      </trkpt>
      <trkpt lat="42.99367" lon="23.07678">
        <ele>762.36</ele>
        <time>2022-06-06T06:42:19.000Z</time>
      </trkpt>
      <trkpt lat="42.99371" lon="23.07667">
        <ele>761.72</ele>
        <time>2022-06-06T06:42:24.000Z</time>
      </trkpt>
      <trkpt lat="42.99377" lon="23.07656">
        <ele>762.29</ele>
        <time>2022-06-06T06:42:29.000Z</time>
      </trkpt>
      <trkpt lat="42.99382" lon="23.07643">
        <ele>762.78</ele>
        <time>2022-06-06T06:42:34.000Z</time>
      </trkpt>
      <trkpt lat="42.99388" lon="23.07631">
        <ele>762.67</ele>
        <time>2022-06-06T06:42:39.000Z</time>
      </trkpt>
      <trkpt lat="42.99394" lon="23.07619">
        <ele>762.32</ele>
        <time>2022-06-06T06:42:44.000Z</time>
      </trkpt>
      <trkpt lat="42.994" lon="23.07608">
        <ele>762.02</ele>
        <time>2022-06-06T06:42:49.000Z</time>
      </trkpt>
      <trkpt lat="42.99407" lon="23.07598">
        <ele>761.53</ele>
        <time>2022-06-06T06:42:54.000Z</time>
      </trkpt>
      <trkpt lat="42.99415" lon="23.07588">
        <ele>761.54</ele>
        <time>2022-06-06T06:42:59.000Z</time>
      </trkpt>
      <trkpt lat="42.99421" lon="23.07578">
        <ele>762.57</ele>
        <time>2022-06-06T06:43:04.000Z</time>
      </trkpt>
      <trkpt lat="42.99429" lon="23.07566">
        <ele>763.37</ele>
        <time>2022-06-06T06:43:09.000Z</time>
      </trkpt>
      <trkpt lat="42.99436" lon="23.07555">
        <ele>764.99</ele>
        <time>2022-06-06T06:43:14.000Z</time>
      </trkpt>
      <trkpt lat="42.99443" lon="23.07544">
        <ele>766.33</ele>
        <time>2022-06-06T06:43:19.000Z</time>
      </trkpt>
      <trkpt lat="42.99453" lon="23.07533">
        <ele>767.68</ele>
        <time>2022-06-06T06:43:24.000Z</time>
      </trkpt>
      <trkpt lat="42.99461" lon="23.0752">
        <ele>768.08</ele>
        <time>2022-06-06T06:43:29.000Z</time>
      </trkpt>
      <trkpt lat="42.99469" lon="23.07507">
        <ele>768.84</ele>
        <time>2022-06-06T06:43:34.000Z</time>
      </trkpt>
      <trkpt lat="42.99479" lon="23.0749">
        <ele>769.63</ele>
        <time>2022-06-06T06:43:39.000Z</time>
      </trkpt>
      <trkpt lat="42.99489" lon="23.07475">
        <ele>770.7</ele>
        <time>2022-06-06T06:43:44.000Z</time>
      </trkpt>
      <trkpt lat="42.995" lon="23.07458">
        <ele>771.23</ele>
        <time>2022-06-06T06:43:49.000Z</time>
      </trkpt>
      <trkpt lat="42.99512" lon="23.07441">
        <ele>770.4</ele>
        <time>2022-06-06T06:43:54.000Z</time>
      </trkpt>
      <trkpt lat="42.99523" lon="23.07423">
        <ele>770.39</ele>
        <time>2022-06-06T06:43:59.000Z</time>
      </trkpt>
      <trkpt lat="42.99536" lon="23.07404">
        <ele>770.98</ele>
        <time>2022-06-06T06:44:04.000Z</time>
      </trkpt>
      <trkpt lat="42.99549" lon="23.07381">
        <ele>771.48</ele>
        <time>2022-06-06T06:44:09.000Z</time>
      </trkpt>
      <trkpt lat="42.99565" lon="23.07354">
        <ele>771.31</ele>
        <time>2022-06-06T06:44:14.000Z</time>
      </trkpt>
      <trkpt lat="42.99585" lon="23.0732">
        <ele>768.8</ele>
        <time>2022-06-06T06:44:19.000Z</time>
      </trkpt>
      <trkpt lat="42.99607" lon="23.07279">
        <ele>767.96</ele>
        <time>2022-06-06T06:44:24.000Z</time>
      </trkpt>
      <trkpt lat="42.99622" lon="23.07223">
        <ele>768.18</ele>
        <time>2022-06-06T06:44:29.000Z</time>
      </trkpt>
      <trkpt lat="42.9963" lon="23.07161">
        <ele>767.68</ele>
        <time>2022-06-06T06:44:34.000Z</time>
      </trkpt>
      <trkpt lat="42.99639" lon="23.07094">
        <ele>766.03</ele>
        <time>2022-06-06T06:44:39.000Z</time>
      </trkpt>
      <trkpt lat="42.99649" lon="23.07023">
        <ele>764.57</ele>
        <time>2022-06-06T06:44:44.000Z</time>
      </trkpt>
      <trkpt lat="42.99658" lon="23.06944">
        <ele>763.13</ele>
        <time>2022-06-06T06:44:49.000Z</time>
      </trkpt>
      <trkpt lat="42.99666" lon="23.06865">
        <ele>761.51</ele>
        <time>2022-06-06T06:44:54.000Z</time>
      </trkpt>
      <trkpt lat="42.99666" lon="23.06789">
        <ele>759.98</ele>
        <time>2022-06-06T06:44:59.000Z</time>
      </trkpt>
      <trkpt lat="42.9967" lon="23.06708">
        <ele>757.75</ele>
        <time>2022-06-06T06:45:04.000Z</time>
      </trkpt>
      <trkpt lat="42.99677" lon="23.06628">
        <ele>754.28</ele>
        <time>2022-06-06T06:45:09.000Z</time>
      </trkpt>
      <trkpt lat="42.99684" lon="23.06553">
        <ele>750.75</ele>
        <time>2022-06-06T06:45:14.000Z</time>
      </trkpt>
      <trkpt lat="42.99691" lon="23.06484">
        <ele>747.03</ele>
        <time>2022-06-06T06:45:19.000Z</time>
      </trkpt>
      <trkpt lat="42.99701" lon="23.0642">
        <ele>742.95</ele>
        <time>2022-06-06T06:45:24.000Z</time>
      </trkpt>
      <trkpt lat="42.99718" lon="23.0636">
        <ele>739.43</ele>
        <time>2022-06-06T06:45:29.000Z</time>
      </trkpt>
      <trkpt lat="42.99738" lon="23.06303">
        <ele>736.54</ele>
        <time>2022-06-06T06:45:34.000Z</time>
      </trkpt>
      <trkpt lat="42.99758" lon="23.06248">
        <ele>732.94</ele>
        <time>2022-06-06T06:45:39.000Z</time>
      </trkpt>
      <trkpt lat="42.99776" lon="23.06195">
        <ele>728.55</ele>
        <time>2022-06-06T06:45:44.000Z</time>
      </trkpt>
      <trkpt lat="42.99802" lon="23.06143">
        <ele>723.58</ele>
        <time>2022-06-06T06:45:49.000Z</time>
      </trkpt>
      <trkpt lat="42.99831" lon="23.06088">
        <ele>719.95</ele>
        <time>2022-06-06T06:45:54.000Z</time>
      </trkpt>
      <trkpt lat="42.99862" lon="23.06031">
        <ele>715.8</ele>
        <time>2022-06-06T06:45:59.000Z</time>
      </trkpt>
      <trkpt lat="42.99895" lon="23.05971">
        <ele>712.62</ele>
        <time>2022-06-06T06:46:04.000Z</time>
      </trkpt>
      <trkpt lat="42.99918" lon="23.05905">
        <ele>711.1</ele>
        <time>2022-06-06T06:46:09.000Z</time>
      </trkpt>
      <trkpt lat="42.99925" lon="23.05838">
        <ele>710.05</ele>
        <time>2022-06-06T06:46:14.000Z</time>
      </trkpt>
      <trkpt lat="42.99928" lon="23.05774">
        <ele>707.57</ele>
        <time>2022-06-06T06:46:19.000Z</time>
      </trkpt>
      <trkpt lat="42.99928" lon="23.05706">
        <ele>705.04</ele>
        <time>2022-06-06T06:46:24.000Z</time>
      </trkpt>
      <trkpt lat="42.99931" lon="23.0564">
        <ele>701.86</ele>
        <time>2022-06-06T06:46:29.000Z</time>
      </trkpt>
      <trkpt lat="42.99939" lon="23.05584">
        <ele>698.61</ele>
        <time>2022-06-06T06:46:34.000Z</time>
      </trkpt>
      <trkpt lat="42.99954" lon="23.05535">
        <ele>695.33</ele>
        <time>2022-06-06T06:46:39.000Z</time>
      </trkpt>
      <trkpt lat="42.99971" lon="23.05491">
        <ele>692.39</ele>
        <time>2022-06-06T06:46:44.000Z</time>
      </trkpt>
      <trkpt lat="42.9999" lon="23.05451">
        <ele>690.36</ele>
        <time>2022-06-06T06:46:49.000Z</time>
      </trkpt>
      <trkpt lat="43.00012" lon="23.05418">
        <ele>689.22</ele>
        <time>2022-06-06T06:46:54.000Z</time>
      </trkpt>
      <trkpt lat="43.0003" lon="23.05388">
        <ele>688.04</ele>
        <time>2022-06-06T06:46:59.000Z</time>
      </trkpt>
      <trkpt lat="43.00053" lon="23.05353">
        <ele>686.36</ele>
        <time>2022-06-06T06:47:04.000Z</time>
      </trkpt>
      <trkpt lat="43.0008" lon="23.05311">
        <ele>685.57</ele>
        <time>2022-06-06T06:47:09.000Z</time>
      </trkpt>
      <trkpt lat="43.00108" lon="23.05269">
        <ele>685.39</ele>
        <time>2022-06-06T06:47:14.000Z</time>
      </trkpt>
      <trkpt lat="43.00135" lon="23.0523">
        <ele>686.32</ele>
        <time>2022-06-06T06:47:19.000Z</time>
      </trkpt>
      <trkpt lat="43.00156" lon="23.052">
        <ele>686.6</ele>
        <time>2022-06-06T06:47:24.000Z</time>
      </trkpt>
      <trkpt lat="43.00173" lon="23.05179">
        <ele>686.38</ele>
        <time>2022-06-06T06:47:29.000Z</time>
      </trkpt>
      <trkpt lat="43.00189" lon="23.05163">
        <ele>687.51</ele>
        <time>2022-06-06T06:47:34.000Z</time>
      </trkpt>
      <trkpt lat="43.00202" lon="23.05151">
        <ele>687.99</ele>
        <time>2022-06-06T06:47:39.000Z</time>
      </trkpt>
      <trkpt lat="43.00215" lon="23.05141">
        <ele>688.59</ele>
        <time>2022-06-06T06:47:44.000Z</time>
      </trkpt>
      <trkpt lat="43.00226" lon="23.05131">
        <ele>689.33</ele>
        <time>2022-06-06T06:47:49.000Z</time>
      </trkpt>
      <trkpt lat="43.00239" lon="23.05122">
        <ele>690.66</ele>
        <time>2022-06-06T06:47:54.000Z</time>
      </trkpt>
      <trkpt lat="43.00252" lon="23.05112">
        <ele>693.34</ele>
        <time>2022-06-06T06:47:59.000Z</time>
      </trkpt>
      <trkpt lat="43.00265" lon="23.05105">
        <ele>694.39</ele>
        <time>2022-06-06T06:48:04.000Z</time>
      </trkpt>
      <trkpt lat="43.00276" lon="23.051">
        <ele>694.73</ele>
        <time>2022-06-06T06:48:09.000Z</time>
      </trkpt>
      <trkpt lat="43.00289" lon="23.05094">
        <ele>694.65</ele>
        <time>2022-06-06T06:48:14.000Z</time>
      </trkpt>
      <trkpt lat="43.00301" lon="23.05088">
        <ele>695.66</ele>
        <time>2022-06-06T06:48:19.000Z</time>
      </trkpt>
      <trkpt lat="43.00313" lon="23.05083">
        <ele>695.76</ele>
        <time>2022-06-06T06:48:24.000Z</time>
      </trkpt>
      <trkpt lat="43.00325" lon="23.05077">
        <ele>696.47</ele>
        <time>2022-06-06T06:48:29.000Z</time>
      </trkpt>
      <trkpt lat="43.00334" lon="23.05071">
        <ele>696.11</ele>
        <time>2022-06-06T06:48:34.000Z</time>
      </trkpt>
      <trkpt lat="43.00346" lon="23.05065">
        <ele>695.85</ele>
        <time>2022-06-06T06:48:39.000Z</time>
      </trkpt>
      <trkpt lat="43.00358" lon="23.05059">
        <ele>696.86</ele>
        <time>2022-06-06T06:48:44.000Z</time>
      </trkpt>
      <trkpt lat="43.0037" lon="23.05052">
        <ele>698.1</ele>
        <time>2022-06-06T06:48:49.000Z</time>
      </trkpt>
      <trkpt lat="43.00383" lon="23.05046">
        <ele>698.86</ele>
        <time>2022-06-06T06:48:54.000Z</time>
      </trkpt>
      <trkpt lat="43.00395" lon="23.0504">
        <ele>699.78</ele>
        <time>2022-06-06T06:48:59.000Z</time>
      </trkpt>
      <trkpt lat="43.00408" lon="23.05034">
        <ele>700.68</ele>
        <time>2022-06-06T06:49:04.000Z</time>
      </trkpt>
      <trkpt lat="43.0042" lon="23.05028">
        <ele>701.61</ele>
        <time>2022-06-06T06:49:09.000Z</time>
      </trkpt>
      <trkpt lat="43.00434" lon="23.05022">
        <ele>702.08</ele>
        <time>2022-06-06T06:49:14.000Z</time>
      </trkpt>
      <trkpt lat="43.00445" lon="23.05015">
        <ele>703.23</ele>
        <time>2022-06-06T06:49:19.000Z</time>
      </trkpt>
      <trkpt lat="43.00456" lon="23.05009">
        <ele>705.09</ele>
        <time>2022-06-06T06:49:24.000Z</time>
      </trkpt>
      <trkpt lat="43.00468" lon="23.05003">
        <ele>707.11</ele>
        <time>2022-06-06T06:49:29.000Z</time>
      </trkpt>
      <trkpt lat="43.0048" lon="23.04996">
        <ele>709.05</ele>
        <time>2022-06-06T06:49:34.000Z</time>
      </trkpt>
      <trkpt lat="43.00492" lon="23.0499">
        <ele>710.33</ele>
        <time>2022-06-06T06:49:39.000Z</time>
      </trkpt>
      <trkpt lat="43.00504" lon="23.04983">
        <ele>711.88</ele>
        <time>2022-06-06T06:49:44.000Z</time>
      </trkpt>
      <trkpt lat="43.00516" lon="23.04978">
        <ele>712.32</ele>
        <time>2022-06-06T06:49:49.000Z</time>
      </trkpt>
      <trkpt lat="43.00529" lon="23.04972">
        <ele>712.13</ele>
        <time>2022-06-06T06:49:54.000Z</time>
      </trkpt>
      <trkpt lat="43.00546" lon="23.04963">
        <ele>712.64</ele>
        <time>2022-06-06T06:49:59.000Z</time>
      </trkpt>
      <trkpt lat="43.00562" lon="23.04954">
        <ele>712.84</ele>
        <time>2022-06-06T06:50:04.000Z</time>
      </trkpt>
      <trkpt lat="43.00581" lon="23.04945">
        <ele>713.58</ele>
        <time>2022-06-06T06:50:09.000Z</time>
      </trkpt>
      <trkpt lat="43.006" lon="23.04937">
        <ele>714.87</ele>
        <time>2022-06-06T06:50:14.000Z</time>
      </trkpt>
      <trkpt lat="43.00622" lon="23.04926">
        <ele>715.37</ele>
        <time>2022-06-06T06:50:19.000Z</time>
      </trkpt>
      <trkpt lat="43.00642" lon="23.04907">
        <ele>713.07</ele>
        <time>2022-06-06T06:50:24.000Z</time>
      </trkpt>
      <trkpt lat="43.00664" lon="23.04878">
        <ele>710.47</ele>
        <time>2022-06-06T06:50:29.000Z</time>
      </trkpt>
      <trkpt lat="43.00681" lon="23.04846">
        <ele>708.45</ele>
        <time>2022-06-06T06:50:34.000Z</time>
      </trkpt>
      <trkpt lat="43.00694" lon="23.04822">
        <ele>706.86</ele>
        <time>2022-06-06T06:50:39.000Z</time>
      </trkpt>
      <trkpt lat="43.00705" lon="23.04804">
        <ele>705.93</ele>
        <time>2022-06-06T06:50:44.000Z</time>
      </trkpt>
      <trkpt lat="43.00716" lon="23.04792">
        <ele>706.16</ele>
        <time>2022-06-06T06:50:49.000Z</time>
      </trkpt>
      <trkpt lat="43.00727" lon="23.04782">
        <ele>705.14</ele>
        <time>2022-06-06T06:50:54.000Z</time>
      </trkpt>
      <trkpt lat="43.00738" lon="23.04772">
        <ele>706.55</ele>
        <time>2022-06-06T06:50:59.000Z</time>
      </trkpt>
      <trkpt lat="43.0075" lon="23.04764">
        <ele>708.61</ele>
        <time>2022-06-06T06:51:04.000Z</time>
      </trkpt>
      <trkpt lat="43.00762" lon="23.04754">
        <ele>711.13</ele>
        <time>2022-06-06T06:51:09.000Z</time>
      </trkpt>
      <trkpt lat="43.00776" lon="23.04749">
        <ele>711.66</ele>
        <time>2022-06-06T06:51:14.000Z</time>
      </trkpt>
      <trkpt lat="43.00792" lon="23.04743">
        <ele>712.6</ele>
        <time>2022-06-06T06:51:19.000Z</time>
      </trkpt>
      <trkpt lat="43.00811" lon="23.04738">
        <ele>713.78</ele>
        <time>2022-06-06T06:51:24.000Z</time>
      </trkpt>
      <trkpt lat="43.00828" lon="23.04731">
        <ele>714.57</ele>
        <time>2022-06-06T06:51:29.000Z</time>
      </trkpt>
      <trkpt lat="43.00846" lon="23.04724">
        <ele>715.29</ele>
        <time>2022-06-06T06:51:34.000Z</time>
      </trkpt>
      <trkpt lat="43.0086" lon="23.04719">
        <ele>715.85</ele>
        <time>2022-06-06T06:51:39.000Z</time>
      </trkpt>
      <trkpt lat="43.00872" lon="23.04715">
        <ele>716.86</ele>
        <time>2022-06-06T06:51:44.000Z</time>
      </trkpt>
      <trkpt lat="43.00878" lon="23.04705">
        <ele>716.46</ele>
        <time>2022-06-06T06:51:51.000Z</time>
      </trkpt>
      <trkpt lat="43.0087" lon="23.04696">
        <ele>710.42</ele>
        <time>2022-06-06T06:55:56.000Z</time>
      </trkpt>
      <trkpt lat="43.0087" lon="23.04678">
        <ele>710.87</ele>
        <time>2022-06-06T06:56:01.000Z</time>
      </trkpt>
      <trkpt lat="43.00877" lon="23.04654">
        <ele>711.15</ele>
        <time>2022-06-06T06:56:06.000Z</time>
      </trkpt>
      <trkpt lat="43.00881" lon="23.04628">
        <ele>711.47</ele>
        <time>2022-06-06T06:56:11.000Z</time>
      </trkpt>
      <trkpt lat="43.00888" lon="23.04598">
        <ele>711.65</ele>
        <time>2022-06-06T06:56:16.000Z</time>
      </trkpt>
      <trkpt lat="43.00896" lon="23.04561">
        <ele>711.89</ele>
        <time>2022-06-06T06:56:21.000Z</time>
      </trkpt>
      <trkpt lat="43.00904" lon="23.04514">
        <ele>711.13</ele>
        <time>2022-06-06T06:56:26.000Z</time>
      </trkpt>
      <trkpt lat="43.00912" lon="23.04456">
        <ele>707.9</ele>
        <time>2022-06-06T06:56:31.000Z</time>
      </trkpt>
      <trkpt lat="43.00933" lon="23.04388">
        <ele>704.16</ele>
        <time>2022-06-06T06:56:36.000Z</time>
      </trkpt>
      <trkpt lat="43.0096" lon="23.04336">
        <ele>701.01</ele>
        <time>2022-06-06T06:56:41.000Z</time>
      </trkpt>
      <trkpt lat="43.00984" lon="23.04291">
        <ele>698.69</ele>
        <time>2022-06-06T06:56:46.000Z</time>
      </trkpt>
      <trkpt lat="43.01006" lon="23.04251">
        <ele>696.77</ele>
        <time>2022-06-06T06:56:51.000Z</time>
      </trkpt>
      <trkpt lat="43.01028" lon="23.04214">
        <ele>696.44</ele>
        <time>2022-06-06T06:56:56.000Z</time>
      </trkpt>
      <trkpt lat="43.01033" lon="23.04181">
        <ele>695.84</ele>
        <time>2022-06-06T06:57:01.000Z</time>
      </trkpt>
      <trkpt lat="43.01022" lon="23.04152">
        <ele>695.32</ele>
        <time>2022-06-06T06:57:06.000Z</time>
      </trkpt>
      <trkpt lat="43.01006" lon="23.04119">
        <ele>694.24</ele>
        <time>2022-06-06T06:57:11.000Z</time>
      </trkpt>
      <trkpt lat="43.00989" lon="23.04084">
        <ele>694.65</ele>
        <time>2022-06-06T06:57:16.000Z</time>
      </trkpt>
      <trkpt lat="43.00972" lon="23.0405">
        <ele>695.42</ele>
        <time>2022-06-06T06:57:21.000Z</time>
      </trkpt>
      <trkpt lat="43.00955" lon="23.04015">
        <ele>695.12</ele>
        <time>2022-06-06T06:57:26.000Z</time>
      </trkpt>
      <trkpt lat="43.00937" lon="23.03982">
        <ele>694.71</ele>
        <time>2022-06-06T06:57:31.000Z</time>
      </trkpt>
      <trkpt lat="43.00916" lon="23.03946">
        <ele>693.74</ele>
        <time>2022-06-06T06:57:36.000Z</time>
      </trkpt>
      <trkpt lat="43.00895" lon="23.03908">
        <ele>693.26</ele>
        <time>2022-06-06T06:57:41.000Z</time>
      </trkpt>
      <trkpt lat="43.00875" lon="23.03872">
        <ele>692.92</ele>
        <time>2022-06-06T06:57:46.000Z</time>
      </trkpt>
      <trkpt lat="43.00857" lon="23.03838">
        <ele>692.68</ele>
        <time>2022-06-06T06:57:51.000Z</time>
      </trkpt>
      <trkpt lat="43.00839" lon="23.03802">
        <ele>693.03</ele>
        <time>2022-06-06T06:57:56.000Z</time>
      </trkpt>
      <trkpt lat="43.0082" lon="23.03765">
        <ele>692.93</ele>
        <time>2022-06-06T06:58:01.000Z</time>
      </trkpt>
      <trkpt lat="43.00801" lon="23.03724">
        <ele>692.57</ele>
        <time>2022-06-06T06:58:06.000Z</time>
      </trkpt>
      <trkpt lat="43.00785" lon="23.03681">
        <ele>691.43</ele>
        <time>2022-06-06T06:58:11.000Z</time>
      </trkpt>
      <trkpt lat="43.00768" lon="23.0364">
        <ele>690.53</ele>
        <time>2022-06-06T06:58:16.000Z</time>
      </trkpt>
      <trkpt lat="43.00753" lon="23.03601">
        <ele>689.71</ele>
        <time>2022-06-06T06:58:21.000Z</time>
      </trkpt>
      <trkpt lat="43.00737" lon="23.0356">
        <ele>688.56</ele>
        <time>2022-06-06T06:58:26.000Z</time>
      </trkpt>
      <trkpt lat="43.00724" lon="23.03518">
        <ele>687.58</ele>
        <time>2022-06-06T06:58:31.000Z</time>
      </trkpt>
      <trkpt lat="43.00709" lon="23.03479">
        <ele>686.54</ele>
        <time>2022-06-06T06:58:36.000Z</time>
      </trkpt>
      <trkpt lat="43.00692" lon="23.0344">
        <ele>686.48</ele>
        <time>2022-06-06T06:58:41.000Z</time>
      </trkpt>
      <trkpt lat="43.00676" lon="23.03398">
        <ele>686.16</ele>
        <time>2022-06-06T06:58:46.000Z</time>
      </trkpt>
      <trkpt lat="43.00661" lon="23.03357">
        <ele>686.42</ele>
        <time>2022-06-06T06:58:51.000Z</time>
      </trkpt>
      <trkpt lat="43.00646" lon="23.03319">
        <ele>685.75</ele>
        <time>2022-06-06T06:58:56.000Z</time>
      </trkpt>
      <trkpt lat="43.00635" lon="23.03279">
        <ele>687.63</ele>
        <time>2022-06-06T06:59:01.000Z</time>
      </trkpt>
      <trkpt lat="43.00617" lon="23.03242">
        <ele>686.72</ele>
        <time>2022-06-06T06:59:06.000Z</time>
      </trkpt>
      <trkpt lat="43.00598" lon="23.03206">
        <ele>686.33</ele>
        <time>2022-06-06T06:59:11.000Z</time>
      </trkpt>
      <trkpt lat="43.0058" lon="23.03168">
        <ele>685.91</ele>
        <time>2022-06-06T06:59:16.000Z</time>
      </trkpt>
      <trkpt lat="43.00562" lon="23.0313">
        <ele>684.8</ele>
        <time>2022-06-06T06:59:21.000Z</time>
      </trkpt>
      <trkpt lat="43.00544" lon="23.03093">
        <ele>686.4</ele>
        <time>2022-06-06T06:59:26.000Z</time>
      </trkpt>
      <trkpt lat="43.00525" lon="23.03056">
        <ele>687.01</ele>
        <time>2022-06-06T06:59:31.000Z</time>
      </trkpt>
      <trkpt lat="43.00504" lon="23.03016">
        <ele>685.85</ele>
        <time>2022-06-06T06:59:36.000Z</time>
      </trkpt>
      <trkpt lat="43.00489" lon="23.02975">
        <ele>685.04</ele>
        <time>2022-06-06T06:59:41.000Z</time>
      </trkpt>
      <trkpt lat="43.00478" lon="23.02932">
        <ele>684.18</ele>
        <time>2022-06-06T06:59:46.000Z</time>
      </trkpt>
      <trkpt lat="43.00466" lon="23.02887">
        <ele>683.61</ele>
        <time>2022-06-06T06:59:51.000Z</time>
      </trkpt>
      <trkpt lat="43.00452" lon="23.02842">
        <ele>684.48</ele>
        <time>2022-06-06T06:59:56.000Z</time>
      </trkpt>
      <trkpt lat="43.00435" lon="23.028">
        <ele>684.77</ele>
        <time>2022-06-06T07:00:01.000Z</time>
      </trkpt>
      <trkpt lat="43.00412" lon="23.02757">
        <ele>684.74</ele>
        <time>2022-06-06T07:00:06.000Z</time>
      </trkpt>
      <trkpt lat="43.00388" lon="23.02716">
        <ele>684.02</ele>
        <time>2022-06-06T07:00:11.000Z</time>
      </trkpt>
      <trkpt lat="43.00363" lon="23.02675">
        <ele>683.73</ele>
        <time>2022-06-06T07:00:16.000Z</time>
      </trkpt>
      <trkpt lat="43.00339" lon="23.02634">
        <ele>684.07</ele>
        <time>2022-06-06T07:00:21.000Z</time>
      </trkpt>
      <trkpt lat="43.00315" lon="23.02589">
        <ele>683.75</ele>
        <time>2022-06-06T07:00:26.000Z</time>
      </trkpt>
      <trkpt lat="43.00302" lon="23.02542">
        <ele>683.59</ele>
        <time>2022-06-06T07:00:31.000Z</time>
      </trkpt>
      <trkpt lat="43.00294" lon="23.02498">
        <ele>682.44</ele>
        <time>2022-06-06T07:00:36.000Z</time>
      </trkpt>
      <trkpt lat="43.00285" lon="23.02455">
        <ele>681.06</ele>
        <time>2022-06-06T07:00:41.000Z</time>
      </trkpt>
      <trkpt lat="43.00274" lon="23.02413">
        <ele>679.83</ele>
        <time>2022-06-06T07:00:46.000Z</time>
      </trkpt>
      <trkpt lat="43.00261" lon="23.02374">
        <ele>679.55</ele>
        <time>2022-06-06T07:00:51.000Z</time>
      </trkpt>
      <trkpt lat="43.00246" lon="23.02331">
        <ele>678.79</ele>
        <time>2022-06-06T07:00:56.000Z</time>
      </trkpt>
      <trkpt lat="43.00227" lon="23.0229">
        <ele>677.92</ele>
        <time>2022-06-06T07:01:01.000Z</time>
      </trkpt>
      <trkpt lat="43.00209" lon="23.02252">
        <ele>676.66</ele>
        <time>2022-06-06T07:01:06.000Z</time>
      </trkpt>
      <trkpt lat="43.00195" lon="23.02215">
        <ele>675.9</ele>
        <time>2022-06-06T07:01:11.000Z</time>
      </trkpt>
      <trkpt lat="43.00186" lon="23.02177">
        <ele>674.79</ele>
        <time>2022-06-06T07:01:16.000Z</time>
      </trkpt>
      <trkpt lat="43.00175" lon="23.02138">
        <ele>674.5</ele>
        <time>2022-06-06T07:01:21.000Z</time>
      </trkpt>
      <trkpt lat="43.00164" lon="23.02098">
        <ele>673.79</ele>
        <time>2022-06-06T07:01:26.000Z</time>
      </trkpt>
      <trkpt lat="43.00152" lon="23.02059">
        <ele>672.81</ele>
        <time>2022-06-06T07:01:31.000Z</time>
      </trkpt>
      <trkpt lat="43.00142" lon="23.02016">
        <ele>671.85</ele>
        <time>2022-06-06T07:01:36.000Z</time>
      </trkpt>
      <trkpt lat="43.0013" lon="23.01974">
        <ele>671.36</ele>
        <time>2022-06-06T07:01:41.000Z</time>
      </trkpt>
      <trkpt lat="43.00118" lon="23.01934">
        <ele>670.92</ele>
        <time>2022-06-06T07:01:46.000Z</time>
      </trkpt>
      <trkpt lat="43.00107" lon="23.01893">
        <ele>671.61</ele>
        <time>2022-06-06T07:01:51.000Z</time>
      </trkpt>
      <trkpt lat="43.00095" lon="23.01851">
        <ele>671.62</ele>
        <time>2022-06-06T07:01:56.000Z</time>
      </trkpt>
      <trkpt lat="43.00083" lon="23.01809">
        <ele>672.75</ele>
        <time>2022-06-06T07:02:01.000Z</time>
      </trkpt>
      <trkpt lat="43.00071" lon="23.01765">
        <ele>672.88</ele>
        <time>2022-06-06T07:02:06.000Z</time>
      </trkpt>
      <trkpt lat="43.00065" lon="23.01718">
        <ele>672.11</ele>
        <time>2022-06-06T07:02:11.000Z</time>
      </trkpt>
      <trkpt lat="43.00062" lon="23.01672">
        <ele>671.93</ele>
        <time>2022-06-06T07:02:16.000Z</time>
      </trkpt>
      <trkpt lat="43.00061" lon="23.01625">
        <ele>671.6</ele>
        <time>2022-06-06T07:02:21.000Z</time>
      </trkpt>
      <trkpt lat="43.00059" lon="23.01579">
        <ele>670.87</ele>
        <time>2022-06-06T07:02:26.000Z</time>
      </trkpt>
      <trkpt lat="43.00054" lon="23.01532">
        <ele>671.05</ele>
        <time>2022-06-06T07:02:31.000Z</time>
      </trkpt>
      <trkpt lat="43.00049" lon="23.01487">
        <ele>671.86</ele>
        <time>2022-06-06T07:02:36.000Z</time>
      </trkpt>
      <trkpt lat="43.00053" lon="23.01443">
        <ele>671.91</ele>
        <time>2022-06-06T07:02:41.000Z</time>
      </trkpt>
      <trkpt lat="43.00059" lon="23.014">
        <ele>671.67</ele>
        <time>2022-06-06T07:02:46.000Z</time>
      </trkpt>
      <trkpt lat="43.00062" lon="23.01358">
        <ele>670.52</ele>
        <time>2022-06-06T07:02:51.000Z</time>
      </trkpt>
      <trkpt lat="43.0006" lon="23.01315">
        <ele>669.48</ele>
        <time>2022-06-06T07:02:56.000Z</time>
      </trkpt>
      <trkpt lat="43.00052" lon="23.0127">
        <ele>667.6</ele>
        <time>2022-06-06T07:03:01.000Z</time>
      </trkpt>
      <trkpt lat="43.0005" lon="23.01225">
        <ele>666.92</ele>
        <time>2022-06-06T07:03:06.000Z</time>
      </trkpt>
      <trkpt lat="43.00055" lon="23.01186">
        <ele>666.54</ele>
        <time>2022-06-06T07:03:11.000Z</time>
      </trkpt>
      <trkpt lat="43.00061" lon="23.01144">
        <ele>666.2</ele>
        <time>2022-06-06T07:03:16.000Z</time>
      </trkpt>
      <trkpt lat="43.0006" lon="23.01099">
        <ele>665.46</ele>
        <time>2022-06-06T07:03:21.000Z</time>
      </trkpt>
      <trkpt lat="43.00051" lon="23.01053">
        <ele>663.57</ele>
        <time>2022-06-06T07:03:26.000Z</time>
      </trkpt>
      <trkpt lat="43.00042" lon="23.01003">
        <ele>660.96</ele>
        <time>2022-06-06T07:03:31.000Z</time>
      </trkpt>
      <trkpt lat="43.00043" lon="23.00949">
        <ele>659.94</ele>
        <time>2022-06-06T07:03:36.000Z</time>
      </trkpt>
      <trkpt lat="43.00045" lon="23.00896">
        <ele>659.49</ele>
        <time>2022-06-06T07:03:41.000Z</time>
      </trkpt>
      <trkpt lat="43.00041" lon="23.00843">
        <ele>658.87</ele>
        <time>2022-06-06T07:03:46.000Z</time>
      </trkpt>
      <trkpt lat="43.0004" lon="23.00794">
        <ele>658.81</ele>
        <time>2022-06-06T07:03:51.000Z</time>
      </trkpt>
      <trkpt lat="43.00045" lon="23.00742">
        <ele>658.21</ele>
        <time>2022-06-06T07:03:56.000Z</time>
      </trkpt>
      <trkpt lat="43.00052" lon="23.00698">
        <ele>658.43</ele>
        <time>2022-06-06T07:04:01.000Z</time>
      </trkpt>
      <trkpt lat="43.0006" lon="23.00657">
        <ele>658.37</ele>
        <time>2022-06-06T07:04:06.000Z</time>
      </trkpt>
      <trkpt lat="43.00061" lon="23.00618">
        <ele>658.97</ele>
        <time>2022-06-06T07:04:11.000Z</time>
      </trkpt>
      <trkpt lat="43.00056" lon="23.00584">
        <ele>658.79</ele>
        <time>2022-06-06T07:04:16.000Z</time>
      </trkpt>
      <trkpt lat="43.00051" lon="23.00553">
        <ele>658.67</ele>
        <time>2022-06-06T07:04:21.000Z</time>
      </trkpt>
      <trkpt lat="43.00048" lon="23.00522">
        <ele>660.38</ele>
        <time>2022-06-06T07:04:26.000Z</time>
      </trkpt>
      <trkpt lat="43.00048" lon="23.00489">
        <ele>660.79</ele>
        <time>2022-06-06T07:04:31.000Z</time>
      </trkpt>
      <trkpt lat="43.00051" lon="23.0045">
        <ele>661.44</ele>
        <time>2022-06-06T07:04:36.000Z</time>
      </trkpt>
      <trkpt lat="43.00054" lon="23.00407">
        <ele>661.99</ele>
        <time>2022-06-06T07:04:41.000Z</time>
      </trkpt>
      <trkpt lat="43.00043" lon="23.00358">
        <ele>660.53</ele>
        <time>2022-06-06T07:04:46.000Z</time>
      </trkpt>
      <trkpt lat="43.00045" lon="23.00295">
        <ele>656.64</ele>
        <time>2022-06-06T07:04:51.000Z</time>
      </trkpt>
      <trkpt lat="43.00046" lon="23.00229">
        <ele>652.79</ele>
        <time>2022-06-06T07:04:56.000Z</time>
      </trkpt>
      <trkpt lat="43.00031" lon="23.00175">
        <ele>649.97</ele>
        <time>2022-06-06T07:05:01.000Z</time>
      </trkpt>
      <trkpt lat="43.00012" lon="23.00128">
        <ele>647.36</ele>
        <time>2022-06-06T07:05:06.000Z</time>
      </trkpt>
      <trkpt lat="42.99986" lon="23.00099">
        <ele>644.41</ele>
        <time>2022-06-06T07:05:11.000Z</time>
      </trkpt>
      <trkpt lat="42.99974" lon="23.00052">
        <ele>641.77</ele>
        <time>2022-06-06T07:05:16.000Z</time>
      </trkpt>
      <trkpt lat="42.99972" lon="23.00009">
        <ele>640.19</ele>
        <time>2022-06-06T07:05:21.000Z</time>
      </trkpt>
      <trkpt lat="42.99967" lon="22.99968">
        <ele>638.43</ele>
        <time>2022-06-06T07:05:26.000Z</time>
      </trkpt>
      <trkpt lat="42.99975" lon="22.9993">
        <ele>636.53</ele>
        <time>2022-06-06T07:05:31.000Z</time>
      </trkpt>
      <trkpt lat="42.99983" lon="22.99907">
        <ele>635.14</ele>
        <time>2022-06-06T07:05:36.000Z</time>
      </trkpt>
      <trkpt lat="42.99986" lon="22.99893">
        <ele>636.72</ele>
        <time>2022-06-06T07:05:41.000Z</time>
      </trkpt>
      <trkpt lat="42.9998" lon="22.99877">
        <ele>636.55</ele>
        <time>2022-06-06T07:05:46.000Z</time>
      </trkpt>
      <trkpt lat="42.9997" lon="22.99879">
        <ele>637.17</ele>
        <time>2022-06-06T07:05:54.000Z</time>
      </trkpt>
      <trkpt lat="42.99961" lon="22.99889">
        <ele>637.93</ele>
        <time>2022-06-06T07:05:59.000Z</time>
      </trkpt>
      <trkpt lat="42.99952" lon="22.99896">
        <ele>638.72</ele>
        <time>2022-06-06T07:06:04.000Z</time>
      </trkpt>
      <trkpt lat="42.99944" lon="22.99905">
        <ele>641.6</ele>
        <time>2022-06-06T07:06:10.000Z</time>
      </trkpt>
      <trkpt lat="42.99933" lon="22.99911">
        <ele>643.84</ele>
        <time>2022-06-06T07:06:17.000Z</time>
      </trkpt>
      <trkpt lat="42.99923" lon="22.99916">
        <ele>645.21</ele>
        <time>2022-06-06T07:06:22.000Z</time>
      </trkpt>
      <trkpt lat="42.99914" lon="22.99921">
        <ele>646.43</ele>
        <time>2022-06-06T07:06:27.000Z</time>
      </trkpt>
      <trkpt lat="42.99904" lon="22.99921">
        <ele>647.64</ele>
        <time>2022-06-06T07:06:33.000Z</time>
      </trkpt>
      <trkpt lat="42.99894" lon="22.99921">
        <ele>648.63</ele>
        <time>2022-06-06T07:06:39.000Z</time>
      </trkpt>
      <trkpt lat="42.99885" lon="22.99914">
        <ele>650.8</ele>
        <time>2022-06-06T07:06:46.000Z</time>
      </trkpt>
      <trkpt lat="42.99877" lon="22.99905">
        <ele>653.91</ele>
        <time>2022-06-06T07:06:53.000Z</time>
      </trkpt>
      <trkpt lat="42.99873" lon="22.99892">
        <ele>656.52</ele>
        <time>2022-06-06T07:06:59.000Z</time>
      </trkpt>
      <trkpt lat="42.99866" lon="22.99881">
        <ele>657.44</ele>
        <time>2022-06-06T07:07:04.000Z</time>
      </trkpt>
      <trkpt lat="42.99859" lon="22.99869">
        <ele>658.78</ele>
        <time>2022-06-06T07:07:09.000Z</time>
      </trkpt>
      <trkpt lat="42.99855" lon="22.99858">
        <ele>659.91</ele>
        <time>2022-06-06T07:07:14.000Z</time>
      </trkpt>
      <trkpt lat="42.99851" lon="22.99846">
        <ele>661.83</ele>
        <time>2022-06-06T07:07:19.000Z</time>
      </trkpt>
      <trkpt lat="42.99848" lon="22.99833">
        <ele>664.47</ele>
        <time>2022-06-06T07:07:24.000Z</time>
      </trkpt>
      <trkpt lat="42.99847" lon="22.9982">
        <ele>666.42</ele>
        <time>2022-06-06T07:07:30.000Z</time>
      </trkpt>
      <trkpt lat="42.99849" lon="22.99807">
        <ele>668.74</ele>
        <time>2022-06-06T07:07:37.000Z</time>
      </trkpt>
      <trkpt lat="42.99848" lon="22.99794">
        <ele>671.01</ele>
        <time>2022-06-06T07:07:44.000Z</time>
      </trkpt>
      <trkpt lat="42.99848" lon="22.99782">
        <ele>672.47</ele>
        <time>2022-06-06T07:07:50.000Z</time>
      </trkpt>
      <trkpt lat="42.99849" lon="22.99769">
        <ele>673.63</ele>
        <time>2022-06-06T07:07:57.000Z</time>
      </trkpt>
      <trkpt lat="42.99851" lon="22.99756">
        <ele>674.53</ele>
        <time>2022-06-06T07:08:03.000Z</time>
      </trkpt>
      <trkpt lat="42.99852" lon="22.99743">
        <ele>674.9</ele>
        <time>2022-06-06T07:08:09.000Z</time>
      </trkpt>
      <trkpt lat="42.99852" lon="22.9973">
        <ele>675.02</ele>
        <time>2022-06-06T07:08:16.000Z</time>
      </trkpt>
      <trkpt lat="42.99852" lon="22.99717">
        <ele>675.46</ele>
        <time>2022-06-06T07:08:22.000Z</time>
      </trkpt>
      <trkpt lat="42.99856" lon="22.99703">
        <ele>675.77</ele>
        <time>2022-06-06T07:08:29.000Z</time>
      </trkpt>
      <trkpt lat="42.99856" lon="22.99689">
        <ele>675.57</ele>
        <time>2022-06-06T07:08:35.000Z</time>
      </trkpt>
      <trkpt lat="42.99859" lon="22.99676">
        <ele>675.57</ele>
        <time>2022-06-06T07:08:42.000Z</time>
      </trkpt>
      <trkpt lat="42.99863" lon="22.99664">
        <ele>675.61</ele>
        <time>2022-06-06T07:08:48.000Z</time>
      </trkpt>
      <trkpt lat="42.99864" lon="22.99651">
        <ele>675.7</ele>
        <time>2022-06-06T07:08:54.000Z</time>
      </trkpt>
      <trkpt lat="42.9986" lon="22.9964">
        <ele>674.93</ele>
        <time>2022-06-06T07:09:00.000Z</time>
      </trkpt>
      <trkpt lat="42.99863" lon="22.99626">
        <ele>674.5</ele>
        <time>2022-06-06T07:09:05.000Z</time>
      </trkpt>
      <trkpt lat="42.99857" lon="22.99617">
        <ele>674.67</ele>
        <time>2022-06-06T07:09:11.000Z</time>
      </trkpt>
      <trkpt lat="42.99849" lon="22.99609">
        <ele>674.99</ele>
        <time>2022-06-06T07:09:17.000Z</time>
      </trkpt>
      <trkpt lat="42.9984" lon="22.99601">
        <ele>675.49</ele>
        <time>2022-06-06T07:09:23.000Z</time>
      </trkpt>
      <trkpt lat="42.99834" lon="22.9959">
        <ele>675.87</ele>
        <time>2022-06-06T07:09:30.000Z</time>
      </trkpt>
      <trkpt lat="42.99828" lon="22.9958">
        <ele>676.72</ele>
        <time>2022-06-06T07:09:36.000Z</time>
      </trkpt>
      <trkpt lat="42.99819" lon="22.99572">
        <ele>677.85</ele>
        <time>2022-06-06T07:09:42.000Z</time>
      </trkpt>
      <trkpt lat="42.99812" lon="22.99561">
        <ele>679.13</ele>
        <time>2022-06-06T07:09:49.000Z</time>
      </trkpt>
      <trkpt lat="42.99805" lon="22.99553">
        <ele>682.13</ele>
        <time>2022-06-06T07:11:24.000Z</time>
      </trkpt>
      <trkpt lat="42.998" lon="22.99539">
        <ele>681.9</ele>
        <time>2022-06-06T07:11:31.000Z</time>
      </trkpt>
      <trkpt lat="42.9979" lon="22.99519">
        <ele>681.98</ele>
        <time>2022-06-06T07:11:36.000Z</time>
      </trkpt>
      <trkpt lat="42.99775" lon="22.99492">
        <ele>681.83</ele>
        <time>2022-06-06T07:11:41.000Z</time>
      </trkpt>
      <trkpt lat="42.99759" lon="22.99464">
        <ele>681.82</ele>
        <time>2022-06-06T07:11:46.000Z</time>
      </trkpt>
      <trkpt lat="42.99733" lon="22.99441">
        <ele>681.04</ele>
        <time>2022-06-06T07:11:51.000Z</time>
      </trkpt>
      <trkpt lat="42.99697" lon="22.99416">
        <ele>679.48</ele>
        <time>2022-06-06T07:11:56.000Z</time>
      </trkpt>
      <trkpt lat="42.99661" lon="22.99384">
        <ele>678.4</ele>
        <time>2022-06-06T07:12:01.000Z</time>
      </trkpt>
      <trkpt lat="42.99632" lon="22.99346">
        <ele>676.26</ele>
        <time>2022-06-06T07:12:06.000Z</time>
      </trkpt>
      <trkpt lat="42.99605" lon="22.99301">
        <ele>674.05</ele>
        <time>2022-06-06T07:12:11.000Z</time>
      </trkpt>
      <trkpt lat="42.99583" lon="22.99244">
        <ele>671.91</ele>
        <time>2022-06-06T07:12:16.000Z</time>
      </trkpt>
      <trkpt lat="42.99567" lon="22.99181">
        <ele>669.37</ele>
        <time>2022-06-06T07:12:21.000Z</time>
      </trkpt>
      <trkpt lat="42.99542" lon="22.99135">
        <ele>667.1</ele>
        <time>2022-06-06T07:12:26.000Z</time>
      </trkpt>
      <trkpt lat="42.99516" lon="22.99077">
        <ele>662.71</ele>
        <time>2022-06-06T07:12:31.000Z</time>
      </trkpt>
      <trkpt lat="42.99499" lon="22.99006">
        <ele>659.96</ele>
        <time>2022-06-06T07:12:36.000Z</time>
      </trkpt>
      <trkpt lat="42.99473" lon="22.98935">
        <ele>657.2</ele>
        <time>2022-06-06T07:12:41.000Z</time>
      </trkpt>
      <trkpt lat="42.99443" lon="22.98864">
        <ele>653.88</ele>
        <time>2022-06-06T07:12:46.000Z</time>
      </trkpt>
      <trkpt lat="42.99421" lon="22.98799">
        <ele>648.51</ele>
        <time>2022-06-06T07:12:51.000Z</time>
      </trkpt>
      <trkpt lat="42.99393" lon="22.98742">
        <ele>644.38</ele>
        <time>2022-06-06T07:12:56.000Z</time>
      </trkpt>
      <trkpt lat="42.99358" lon="22.98704">
        <ele>641.36</ele>
        <time>2022-06-06T07:13:01.000Z</time>
      </trkpt>
      <trkpt lat="42.99328" lon="22.9867">
        <ele>639.06</ele>
        <time>2022-06-06T07:13:06.000Z</time>
      </trkpt>
      <trkpt lat="42.99312" lon="22.98624">
        <ele>636.29</ele>
        <time>2022-06-06T07:13:11.000Z</time>
      </trkpt>
      <trkpt lat="42.993" lon="22.98581">
        <ele>633.87</ele>
        <time>2022-06-06T07:13:16.000Z</time>
      </trkpt>
      <trkpt lat="42.99293" lon="22.98548">
        <ele>633</ele>
        <time>2022-06-06T07:13:21.000Z</time>
      </trkpt>
      <trkpt lat="42.99287" lon="22.98515">
        <ele>632.73</ele>
        <time>2022-06-06T07:13:26.000Z</time>
      </trkpt>
      <trkpt lat="42.99283" lon="22.98479">
        <ele>633.08</ele>
        <time>2022-06-06T07:13:31.000Z</time>
      </trkpt>
      <trkpt lat="42.9928" lon="22.98445">
        <ele>632.93</ele>
        <time>2022-06-06T07:13:36.000Z</time>
      </trkpt>
      <trkpt lat="42.99278" lon="22.98411">
        <ele>633.18</ele>
        <time>2022-06-06T07:13:41.000Z</time>
      </trkpt>
      <trkpt lat="42.99281" lon="22.98374">
        <ele>633.9</ele>
        <time>2022-06-06T07:13:46.000Z</time>
      </trkpt>
      <trkpt lat="42.99283" lon="22.98328">
        <ele>634.14</ele>
        <time>2022-06-06T07:13:51.000Z</time>
      </trkpt>
      <trkpt lat="42.99283" lon="22.98284">
        <ele>634.1</ele>
        <time>2022-06-06T07:13:56.000Z</time>
      </trkpt>
      <trkpt lat="42.99287" lon="22.98237">
        <ele>633.4</ele>
        <time>2022-06-06T07:14:01.000Z</time>
      </trkpt>
      <trkpt lat="42.99291" lon="22.98193">
        <ele>631.7</ele>
        <time>2022-06-06T07:14:06.000Z</time>
      </trkpt>
      <trkpt lat="42.99294" lon="22.98155">
        <ele>630.93</ele>
        <time>2022-06-06T07:14:11.000Z</time>
      </trkpt>
      <trkpt lat="42.99298" lon="22.9812">
        <ele>630.66</ele>
        <time>2022-06-06T07:14:16.000Z</time>
      </trkpt>
      <trkpt lat="42.99304" lon="22.98084">
        <ele>631.26</ele>
        <time>2022-06-06T07:14:21.000Z</time>
      </trkpt>
      <trkpt lat="42.99311" lon="22.98047">
        <ele>630.9</ele>
        <time>2022-06-06T07:14:26.000Z</time>
      </trkpt>
      <trkpt lat="42.99321" lon="22.98009">
        <ele>632.63</ele>
        <time>2022-06-06T07:14:31.000Z</time>
      </trkpt>
      <trkpt lat="42.9933" lon="22.9797">
        <ele>632.94</ele>
        <time>2022-06-06T07:14:36.000Z</time>
      </trkpt>
      <trkpt lat="42.99336" lon="22.9793">
        <ele>633.54</ele>
        <time>2022-06-06T07:14:41.000Z</time>
      </trkpt>
      <trkpt lat="42.99345" lon="22.9789">
        <ele>633.95</ele>
        <time>2022-06-06T07:14:46.000Z</time>
      </trkpt>
      <trkpt lat="42.99353" lon="22.97854">
        <ele>634.62</ele>
        <time>2022-06-06T07:14:51.000Z</time>
      </trkpt>
      <trkpt lat="42.99361" lon="22.97819">
        <ele>636.65</ele>
        <time>2022-06-06T07:14:56.000Z</time>
      </trkpt>
      <trkpt lat="42.99367" lon="22.97785">
        <ele>636.89</ele>
        <time>2022-06-06T07:15:01.000Z</time>
      </trkpt>
      <trkpt lat="42.99371" lon="22.97754">
        <ele>637.17</ele>
        <time>2022-06-06T07:15:06.000Z</time>
      </trkpt>
      <trkpt lat="42.99374" lon="22.97726">
        <ele>636.83</ele>
        <time>2022-06-06T07:15:11.000Z</time>
      </trkpt>
      <trkpt lat="42.99378" lon="22.97696">
        <ele>635.84</ele>
        <time>2022-06-06T07:15:16.000Z</time>
      </trkpt>
      <trkpt lat="42.99376" lon="22.97665">
        <ele>636.09</ele>
        <time>2022-06-06T07:15:21.000Z</time>
      </trkpt>
      <trkpt lat="42.99366" lon="22.97634">
        <ele>636.33</ele>
        <time>2022-06-06T07:15:26.000Z</time>
      </trkpt>
      <trkpt lat="42.99351" lon="22.976">
        <ele>636.34</ele>
        <time>2022-06-06T07:15:31.000Z</time>
      </trkpt>
      <trkpt lat="42.99333" lon="22.97563">
        <ele>635.88</ele>
        <time>2022-06-06T07:15:36.000Z</time>
      </trkpt>
      <trkpt lat="42.99315" lon="22.97527">
        <ele>635.07</ele>
        <time>2022-06-06T07:15:41.000Z</time>
      </trkpt>
      <trkpt lat="42.993" lon="22.9749">
        <ele>633.82</ele>
        <time>2022-06-06T07:15:46.000Z</time>
      </trkpt>
      <trkpt lat="42.99289" lon="22.97458">
        <ele>633.33</ele>
        <time>2022-06-06T07:15:51.000Z</time>
      </trkpt>
      <trkpt lat="42.99279" lon="22.97424">
        <ele>632.32</ele>
        <time>2022-06-06T07:15:56.000Z</time>
      </trkpt>
      <trkpt lat="42.99271" lon="22.9739">
        <ele>632.13</ele>
        <time>2022-06-06T07:16:01.000Z</time>
      </trkpt>
      <trkpt lat="42.99264" lon="22.97362">
        <ele>632.37</ele>
        <time>2022-06-06T07:16:06.000Z</time>
      </trkpt>
      <trkpt lat="42.99258" lon="22.97347">
        <ele>635.01</ele>
        <time>2022-06-06T07:16:11.000Z</time>
      </trkpt>
      <trkpt lat="42.99252" lon="22.97336">
        <ele>635.15</ele>
        <time>2022-06-06T07:16:16.000Z</time>
      </trkpt>
      <trkpt lat="42.99248" lon="22.97324">
        <ele>634.89</ele>
        <time>2022-06-06T07:16:21.000Z</time>
      </trkpt>
      <trkpt lat="42.99243" lon="22.97312">
        <ele>636.22</ele>
        <time>2022-06-06T07:16:27.000Z</time>
      </trkpt>
      <trkpt lat="42.99237" lon="22.97299">
        <ele>637.55</ele>
        <time>2022-06-06T07:16:33.000Z</time>
      </trkpt>
      <trkpt lat="42.99232" lon="22.97287">
        <ele>638.76</ele>
        <time>2022-06-06T07:16:39.000Z</time>
      </trkpt>
      <trkpt lat="42.99228" lon="22.97275">
        <ele>639.93</ele>
        <time>2022-06-06T07:16:45.000Z</time>
      </trkpt>
      <trkpt lat="42.99225" lon="22.97261">
        <ele>641.43</ele>
        <time>2022-06-06T07:16:51.000Z</time>
      </trkpt>
      <trkpt lat="42.99221" lon="22.97248">
        <ele>642.73</ele>
        <time>2022-06-06T07:16:57.000Z</time>
      </trkpt>
      <trkpt lat="42.99216" lon="22.97236">
        <ele>643.17</ele>
        <time>2022-06-06T07:17:02.000Z</time>
      </trkpt>
      <trkpt lat="42.99211" lon="22.97223">
        <ele>643.87</ele>
        <time>2022-06-06T07:17:08.000Z</time>
      </trkpt>
      <trkpt lat="42.99207" lon="22.97209">
        <ele>644.26</ele>
        <time>2022-06-06T07:17:13.000Z</time>
      </trkpt>
      <trkpt lat="42.99205" lon="22.97195">
        <ele>644.24</ele>
        <time>2022-06-06T07:17:18.000Z</time>
      </trkpt>
      <trkpt lat="42.99204" lon="22.97181">
        <ele>644.43</ele>
        <time>2022-06-06T07:17:23.000Z</time>
      </trkpt>
      <trkpt lat="42.99201" lon="22.97167">
        <ele>645.53</ele>
        <time>2022-06-06T07:17:28.000Z</time>
      </trkpt>
      <trkpt lat="42.99199" lon="22.97154">
        <ele>646.33</ele>
        <time>2022-06-06T07:17:33.000Z</time>
      </trkpt>
      <trkpt lat="42.99197" lon="22.97139">
        <ele>646.1</ele>
        <time>2022-06-06T07:17:38.000Z</time>
      </trkpt>
      <trkpt lat="42.99198" lon="22.97124">
        <ele>646.73</ele>
        <time>2022-06-06T07:17:43.000Z</time>
      </trkpt>
      <trkpt lat="42.99195" lon="22.9711">
        <ele>648.17</ele>
        <time>2022-06-06T07:17:48.000Z</time>
      </trkpt>
      <trkpt lat="42.99193" lon="22.97095">
        <ele>649.04</ele>
        <time>2022-06-06T07:17:53.000Z</time>
      </trkpt>
      <trkpt lat="42.99192" lon="22.9708">
        <ele>649.03</ele>
        <time>2022-06-06T07:17:58.000Z</time>
      </trkpt>
      <trkpt lat="42.99193" lon="22.97065">
        <ele>649.02</ele>
        <time>2022-06-06T07:18:03.000Z</time>
      </trkpt>
      <trkpt lat="42.99193" lon="22.97052">
        <ele>648.32</ele>
        <time>2022-06-06T07:18:08.000Z</time>
      </trkpt>
      <trkpt lat="42.99191" lon="22.97039">
        <ele>648.75</ele>
        <time>2022-06-06T07:18:13.000Z</time>
      </trkpt>
      <trkpt lat="42.99193" lon="22.97024">
        <ele>649.25</ele>
        <time>2022-06-06T07:18:18.000Z</time>
      </trkpt>
      <trkpt lat="42.99192" lon="22.97012">
        <ele>649.5</ele>
        <time>2022-06-06T07:18:23.000Z</time>
      </trkpt>
      <trkpt lat="42.99192" lon="22.96998">
        <ele>649.01</ele>
        <time>2022-06-06T07:18:28.000Z</time>
      </trkpt>
      <trkpt lat="42.99192" lon="22.96983">
        <ele>649.36</ele>
        <time>2022-06-06T07:18:33.000Z</time>
      </trkpt>
      <trkpt lat="42.99192" lon="22.96968">
        <ele>649.45</ele>
        <time>2022-06-06T07:18:38.000Z</time>
      </trkpt>
      <trkpt lat="42.99193" lon="22.96951">
        <ele>650.2</ele>
        <time>2022-06-06T07:18:43.000Z</time>
      </trkpt>
      <trkpt lat="42.99199" lon="22.96934">
        <ele>650.49</ele>
        <time>2022-06-06T07:18:48.000Z</time>
      </trkpt>
      <trkpt lat="42.99203" lon="22.96918">
        <ele>651.42</ele>
        <time>2022-06-06T07:18:53.000Z</time>
      </trkpt>
      <trkpt lat="42.99203" lon="22.96903">
        <ele>652.53</ele>
        <time>2022-06-06T07:18:58.000Z</time>
      </trkpt>
      <trkpt lat="42.992" lon="22.96891">
        <ele>653.18</ele>
        <time>2022-06-06T07:19:03.000Z</time>
      </trkpt>
      <trkpt lat="42.99196" lon="22.96878">
        <ele>653.64</ele>
        <time>2022-06-06T07:19:08.000Z</time>
      </trkpt>
      <trkpt lat="42.99195" lon="22.96864">
        <ele>653.92</ele>
        <time>2022-06-06T07:19:13.000Z</time>
      </trkpt>
      <trkpt lat="42.99198" lon="22.9685">
        <ele>653.66</ele>
        <time>2022-06-06T07:19:18.000Z</time>
      </trkpt>
      <trkpt lat="42.99202" lon="22.96835">
        <ele>653.33</ele>
        <time>2022-06-06T07:19:23.000Z</time>
      </trkpt>
      <trkpt lat="42.99204" lon="22.96819">
        <ele>653.35</ele>
        <time>2022-06-06T07:19:28.000Z</time>
      </trkpt>
      <trkpt lat="42.99202" lon="22.96801">
        <ele>654.29</ele>
        <time>2022-06-06T07:19:33.000Z</time>
      </trkpt>
      <trkpt lat="42.992" lon="22.9678">
        <ele>654.74</ele>
        <time>2022-06-06T07:19:38.000Z</time>
      </trkpt>
      <trkpt lat="42.99209" lon="22.96742">
        <ele>655.19</ele>
        <time>2022-06-06T07:19:43.000Z</time>
      </trkpt>
      <trkpt lat="42.99214" lon="22.96695">
        <ele>653.72</ele>
        <time>2022-06-06T07:19:48.000Z</time>
      </trkpt>
      <trkpt lat="42.99213" lon="22.96642">
        <ele>650.11</ele>
        <time>2022-06-06T07:19:53.000Z</time>
      </trkpt>
      <trkpt lat="42.99185" lon="22.96583">
        <ele>647.03</ele>
        <time>2022-06-06T07:19:58.000Z</time>
      </trkpt>
      <trkpt lat="42.99156" lon="22.96522">
        <ele>643.44</ele>
        <time>2022-06-06T07:20:03.000Z</time>
      </trkpt>
      <trkpt lat="42.99127" lon="22.96471">
        <ele>640.39</ele>
        <time>2022-06-06T07:20:08.000Z</time>
      </trkpt>
      <trkpt lat="42.99075" lon="22.96446">
        <ele>639.05</ele>
        <time>2022-06-06T07:20:13.000Z</time>
      </trkpt>
      <trkpt lat="42.99021" lon="22.96431">
        <ele>635.78</ele>
        <time>2022-06-06T07:20:18.000Z</time>
      </trkpt>
      <trkpt lat="42.98977" lon="22.96422">
        <ele>632.94</ele>
        <time>2022-06-06T07:20:23.000Z</time>
      </trkpt>
      <trkpt lat="42.98933" lon="22.96441">
        <ele>629.29</ele>
        <time>2022-06-06T07:20:28.000Z</time>
      </trkpt>
      <trkpt lat="42.9889" lon="22.96409">
        <ele>626.16</ele>
        <time>2022-06-06T07:20:33.000Z</time>
      </trkpt>
      <trkpt lat="42.98873" lon="22.96349">
        <ele>623.05</ele>
        <time>2022-06-06T07:20:38.000Z</time>
      </trkpt>
      <trkpt lat="42.98868" lon="22.96294">
        <ele>619.99</ele>
        <time>2022-06-06T07:20:43.000Z</time>
      </trkpt>
      <trkpt lat="42.98866" lon="22.96247">
        <ele>619.1</ele>
        <time>2022-06-06T07:20:48.000Z</time>
      </trkpt>
      <trkpt lat="42.98865" lon="22.96203">
        <ele>618.13</ele>
        <time>2022-06-06T07:20:53.000Z</time>
      </trkpt>
      <trkpt lat="42.98866" lon="22.96165">
        <ele>618.99</ele>
        <time>2022-06-06T07:20:58.000Z</time>
      </trkpt>
      <trkpt lat="42.98868" lon="22.9613">
        <ele>619.96</ele>
        <time>2022-06-06T07:21:03.000Z</time>
      </trkpt>
      <trkpt lat="42.98869" lon="22.96097">
        <ele>621.31</ele>
        <time>2022-06-06T07:21:08.000Z</time>
      </trkpt>
      <trkpt lat="42.9887" lon="22.96066">
        <ele>622.38</ele>
        <time>2022-06-06T07:21:13.000Z</time>
      </trkpt>
      <trkpt lat="42.98868" lon="22.96039">
        <ele>622.79</ele>
        <time>2022-06-06T07:21:18.000Z</time>
      </trkpt>
      <trkpt lat="42.98866" lon="22.96014">
        <ele>621.99</ele>
        <time>2022-06-06T07:21:23.000Z</time>
      </trkpt>
      <trkpt lat="42.98865" lon="22.95987">
        <ele>621.96</ele>
        <time>2022-06-06T07:21:28.000Z</time>
      </trkpt>
      <trkpt lat="42.98861" lon="22.9596">
        <ele>622.96</ele>
        <time>2022-06-06T07:21:33.000Z</time>
      </trkpt>
      <trkpt lat="42.98856" lon="22.95934">
        <ele>624.28</ele>
        <time>2022-06-06T07:21:38.000Z</time>
      </trkpt>
      <trkpt lat="42.9885" lon="22.95906">
        <ele>626.4</ele>
        <time>2022-06-06T07:21:43.000Z</time>
      </trkpt>
      <trkpt lat="42.98843" lon="22.9588">
        <ele>626.52</ele>
        <time>2022-06-06T07:21:48.000Z</time>
      </trkpt>
      <trkpt lat="42.98838" lon="22.95856">
        <ele>626.11</ele>
        <time>2022-06-06T07:21:53.000Z</time>
      </trkpt>
      <trkpt lat="42.98832" lon="22.95832">
        <ele>626.19</ele>
        <time>2022-06-06T07:21:58.000Z</time>
      </trkpt>
      <trkpt lat="42.98825" lon="22.95808">
        <ele>626.48</ele>
        <time>2022-06-06T07:22:03.000Z</time>
      </trkpt>
      <trkpt lat="42.98819" lon="22.95782">
        <ele>626.49</ele>
        <time>2022-06-06T07:22:08.000Z</time>
      </trkpt>
      <trkpt lat="42.98814" lon="22.95757">
        <ele>625.94</ele>
        <time>2022-06-06T07:22:13.000Z</time>
      </trkpt>
      <trkpt lat="42.98807" lon="22.95728">
        <ele>626.07</ele>
        <time>2022-06-06T07:22:18.000Z</time>
      </trkpt>
      <trkpt lat="42.98798" lon="22.95702">
        <ele>626.92</ele>
        <time>2022-06-06T07:22:23.000Z</time>
      </trkpt>
      <trkpt lat="42.98789" lon="22.95679">
        <ele>626.63</ele>
        <time>2022-06-06T07:22:28.000Z</time>
      </trkpt>
      <trkpt lat="42.98781" lon="22.95659">
        <ele>626.08</ele>
        <time>2022-06-06T07:22:33.000Z</time>
      </trkpt>
      <trkpt lat="42.9877" lon="22.95643">
        <ele>625.62</ele>
        <time>2022-06-06T07:22:38.000Z</time>
      </trkpt>
      <trkpt lat="42.98757" lon="22.95628">
        <ele>626.49</ele>
        <time>2022-06-06T07:22:43.000Z</time>
      </trkpt>
      <trkpt lat="42.98745" lon="22.95615">
        <ele>627.21</ele>
        <time>2022-06-06T07:22:48.000Z</time>
      </trkpt>
      <trkpt lat="42.98731" lon="22.95602">
        <ele>627.89</ele>
        <time>2022-06-06T07:22:53.000Z</time>
      </trkpt>
      <trkpt lat="42.98717" lon="22.95589">
        <ele>629.53</ele>
        <time>2022-06-06T07:22:58.000Z</time>
      </trkpt>
      <trkpt lat="42.98703" lon="22.95575">
        <ele>629.87</ele>
        <time>2022-06-06T07:23:03.000Z</time>
      </trkpt>
      <trkpt lat="42.98691" lon="22.95557">
        <ele>631.19</ele>
        <time>2022-06-06T07:23:08.000Z</time>
      </trkpt>
      <trkpt lat="42.98677" lon="22.95538">
        <ele>632.03</ele>
        <time>2022-06-06T07:23:13.000Z</time>
      </trkpt>
      <trkpt lat="42.98664" lon="22.95515">
        <ele>633.33</ele>
        <time>2022-06-06T07:23:18.000Z</time>
      </trkpt>
      <trkpt lat="42.98651" lon="22.95492">
        <ele>633.55</ele>
        <time>2022-06-06T07:23:23.000Z</time>
      </trkpt>
      <trkpt lat="42.9864" lon="22.9547">
        <ele>633.65</ele>
        <time>2022-06-06T07:23:28.000Z</time>
      </trkpt>
      <trkpt lat="42.98631" lon="22.9545">
        <ele>634.9</ele>
        <time>2022-06-06T07:23:33.000Z</time>
      </trkpt>
      <trkpt lat="42.98629" lon="22.95431">
        <ele>636.49</ele>
        <time>2022-06-06T07:23:38.000Z</time>
      </trkpt>
      <trkpt lat="42.98627" lon="22.9541">
        <ele>638.09</ele>
        <time>2022-06-06T07:23:43.000Z</time>
      </trkpt>
      <trkpt lat="42.98625" lon="22.95387">
        <ele>639.51</ele>
        <time>2022-06-06T07:23:48.000Z</time>
      </trkpt>
      <trkpt lat="42.98623" lon="22.95364">
        <ele>638.61</ele>
        <time>2022-06-06T07:23:53.000Z</time>
      </trkpt>
      <trkpt lat="42.98621" lon="22.95341">
        <ele>638.16</ele>
        <time>2022-06-06T07:23:58.000Z</time>
      </trkpt>
      <trkpt lat="42.98619" lon="22.95318">
        <ele>637.45</ele>
        <time>2022-06-06T07:24:03.000Z</time>
      </trkpt>
      <trkpt lat="42.98616" lon="22.95297">
        <ele>637.59</ele>
        <time>2022-06-06T07:24:08.000Z</time>
      </trkpt>
      <trkpt lat="42.98615" lon="22.95282">
        <ele>638.24</ele>
        <time>2022-06-06T07:24:13.000Z</time>
      </trkpt>
      <trkpt lat="42.9862" lon="22.95268">
        <ele>638.33</ele>
        <time>2022-06-06T07:24:48.000Z</time>
      </trkpt>
      <trkpt lat="42.98629" lon="22.95262">
        <ele>632.4</ele>
        <time>2022-06-06T07:27:25.000Z</time>
      </trkpt>
      <trkpt lat="42.98637" lon="22.95256">
        <ele>632.76</ele>
        <time>2022-06-06T07:27:30.000Z</time>
      </trkpt>
      <trkpt lat="42.98646" lon="22.95244">
        <ele>633.17</ele>
        <time>2022-06-06T07:27:35.000Z</time>
      </trkpt>
      <trkpt lat="42.98652" lon="22.95234">
        <ele>633.69</ele>
        <time>2022-06-06T07:27:40.000Z</time>
      </trkpt>
      <trkpt lat="42.98656" lon="22.95222">
        <ele>634.39</ele>
        <time>2022-06-06T07:27:45.000Z</time>
      </trkpt>
      <trkpt lat="42.98663" lon="22.95213">
        <ele>635.83</ele>
        <time>2022-06-06T07:27:51.000Z</time>
      </trkpt>
      <trkpt lat="42.9867" lon="22.95203">
        <ele>637.69</ele>
        <time>2022-06-06T07:27:57.000Z</time>
      </trkpt>
      <trkpt lat="42.98677" lon="22.95192">
        <ele>639.13</ele>
        <time>2022-06-06T07:28:03.000Z</time>
      </trkpt>
      <trkpt lat="42.98684" lon="22.95182">
        <ele>640.64</ele>
        <time>2022-06-06T07:28:09.000Z</time>
      </trkpt>
      <trkpt lat="42.98689" lon="22.9517">
        <ele>641.17</ele>
        <time>2022-06-06T07:28:15.000Z</time>
      </trkpt>
      <trkpt lat="42.98694" lon="22.95159">
        <ele>641.76</ele>
        <time>2022-06-06T07:28:20.000Z</time>
      </trkpt>
      <trkpt lat="42.987" lon="22.95149">
        <ele>642.38</ele>
        <time>2022-06-06T07:28:26.000Z</time>
      </trkpt>
      <trkpt lat="42.98706" lon="22.9514">
        <ele>643.46</ele>
        <time>2022-06-06T07:28:32.000Z</time>
      </trkpt>
      <trkpt lat="42.98714" lon="22.95128">
        <ele>644.8</ele>
        <time>2022-06-06T07:28:37.000Z</time>
      </trkpt>
      <trkpt lat="42.9872" lon="22.95116">
        <ele>646.1</ele>
        <time>2022-06-06T07:28:42.000Z</time>
      </trkpt>
      <trkpt lat="42.98724" lon="22.95103">
        <ele>647.88</ele>
        <time>2022-06-06T07:28:47.000Z</time>
      </trkpt>
      <trkpt lat="42.98731" lon="22.95092">
        <ele>649.26</ele>
        <time>2022-06-06T07:28:52.000Z</time>
      </trkpt>
      <trkpt lat="42.98737" lon="22.95081">
        <ele>650.01</ele>
        <time>2022-06-06T07:28:57.000Z</time>
      </trkpt>
      <trkpt lat="42.98742" lon="22.95069">
        <ele>650.67</ele>
        <time>2022-06-06T07:29:02.000Z</time>
      </trkpt>
      <trkpt lat="42.9875" lon="22.95057">
        <ele>650.94</ele>
        <time>2022-06-06T07:29:07.000Z</time>
      </trkpt>
      <trkpt lat="42.98756" lon="22.95045">
        <ele>651.17</ele>
        <time>2022-06-06T07:29:12.000Z</time>
      </trkpt>
      <trkpt lat="42.98762" lon="22.95032">
        <ele>652.06</ele>
        <time>2022-06-06T07:29:17.000Z</time>
      </trkpt>
      <trkpt lat="42.98768" lon="22.95021">
        <ele>652.88</ele>
        <time>2022-06-06T07:29:22.000Z</time>
      </trkpt>
      <trkpt lat="42.98774" lon="22.95009">
        <ele>653.15</ele>
        <time>2022-06-06T07:29:27.000Z</time>
      </trkpt>
      <trkpt lat="42.9878" lon="22.94998">
        <ele>653.59</ele>
        <time>2022-06-06T07:29:32.000Z</time>
      </trkpt>
      <trkpt lat="42.98785" lon="22.94987">
        <ele>653.03</ele>
        <time>2022-06-06T07:29:37.000Z</time>
      </trkpt>
      <trkpt lat="42.98791" lon="22.94975">
        <ele>653.92</ele>
        <time>2022-06-06T07:29:42.000Z</time>
      </trkpt>
      <trkpt lat="42.98796" lon="22.94962">
        <ele>654.65</ele>
        <time>2022-06-06T07:29:47.000Z</time>
      </trkpt>
      <trkpt lat="42.98803" lon="22.94951">
        <ele>656.6</ele>
        <time>2022-06-06T07:29:52.000Z</time>
      </trkpt>
      <trkpt lat="42.9881" lon="22.9494">
        <ele>657.91</ele>
        <time>2022-06-06T07:29:57.000Z</time>
      </trkpt>
      <trkpt lat="42.98818" lon="22.94928">
        <ele>658.08</ele>
        <time>2022-06-06T07:30:02.000Z</time>
      </trkpt>
      <trkpt lat="42.98826" lon="22.94918">
        <ele>658.09</ele>
        <time>2022-06-06T07:30:07.000Z</time>
      </trkpt>
      <trkpt lat="42.98834" lon="22.94908">
        <ele>657.89</ele>
        <time>2022-06-06T07:30:12.000Z</time>
      </trkpt>
      <trkpt lat="42.98842" lon="22.94898">
        <ele>657.49</ele>
        <time>2022-06-06T07:30:17.000Z</time>
      </trkpt>
      <trkpt lat="42.98849" lon="22.94888">
        <ele>657.34</ele>
        <time>2022-06-06T07:30:22.000Z</time>
      </trkpt>
      <trkpt lat="42.98856" lon="22.9488">
        <ele>657.96</ele>
        <time>2022-06-06T07:30:27.000Z</time>
      </trkpt>
      <trkpt lat="42.98863" lon="22.9487">
        <ele>657.92</ele>
        <time>2022-06-06T07:30:33.000Z</time>
      </trkpt>
      <trkpt lat="42.98871" lon="22.94861">
        <ele>658.73</ele>
        <time>2022-06-06T07:30:38.000Z</time>
      </trkpt>
      <trkpt lat="42.9888" lon="22.94853">
        <ele>659.27</ele>
        <time>2022-06-06T07:30:44.000Z</time>
      </trkpt>
      <trkpt lat="42.98888" lon="22.94848">
        <ele>660.36</ele>
        <time>2022-06-06T07:30:49.000Z</time>
      </trkpt>
      <trkpt lat="42.98897" lon="22.94844">
        <ele>661.75</ele>
        <time>2022-06-06T07:30:54.000Z</time>
      </trkpt>
      <trkpt lat="42.98908" lon="22.94838">
        <ele>662.73</ele>
        <time>2022-06-06T07:30:59.000Z</time>
      </trkpt>
      <trkpt lat="42.98918" lon="22.94832">
        <ele>663.23</ele>
        <time>2022-06-06T07:31:04.000Z</time>
      </trkpt>
      <trkpt lat="42.98928" lon="22.94824">
        <ele>663.95</ele>
        <time>2022-06-06T07:31:09.000Z</time>
      </trkpt>
      <trkpt lat="42.98937" lon="22.9481">
        <ele>664.81</ele>
        <time>2022-06-06T07:31:14.000Z</time>
      </trkpt>
      <trkpt lat="42.98942" lon="22.94789">
        <ele>666</ele>
        <time>2022-06-06T07:31:19.000Z</time>
      </trkpt>
      <trkpt lat="42.98945" lon="22.94763">
        <ele>667.28</ele>
        <time>2022-06-06T07:31:24.000Z</time>
      </trkpt>
      <trkpt lat="42.98948" lon="22.94732">
        <ele>666.9</ele>
        <time>2022-06-06T07:31:29.000Z</time>
      </trkpt>
      <trkpt lat="42.98947" lon="22.94694">
        <ele>666.89</ele>
        <time>2022-06-06T07:31:34.000Z</time>
      </trkpt>
      <trkpt lat="42.98946" lon="22.94656">
        <ele>666.33</ele>
        <time>2022-06-06T07:31:39.000Z</time>
      </trkpt>
      <trkpt lat="42.98944" lon="22.94616">
        <ele>665.26</ele>
        <time>2022-06-06T07:31:44.000Z</time>
      </trkpt>
      <trkpt lat="42.98943" lon="22.94572">
        <ele>664.43</ele>
        <time>2022-06-06T07:31:49.000Z</time>
      </trkpt>
      <trkpt lat="42.98942" lon="22.94524">
        <ele>663.57</ele>
        <time>2022-06-06T07:31:54.000Z</time>
      </trkpt>
      <trkpt lat="42.9894" lon="22.94474">
        <ele>661.69</ele>
        <time>2022-06-06T07:31:59.000Z</time>
      </trkpt>
      <trkpt lat="42.98937" lon="22.94418">
        <ele>658.44</ele>
        <time>2022-06-06T07:32:04.000Z</time>
      </trkpt>
      <trkpt lat="42.98932" lon="22.94355">
        <ele>655.24</ele>
        <time>2022-06-06T07:32:09.000Z</time>
      </trkpt>
      <trkpt lat="42.98928" lon="22.94291">
        <ele>652.58</ele>
        <time>2022-06-06T07:32:14.000Z</time>
      </trkpt>
      <trkpt lat="42.98927" lon="22.94224">
        <ele>649.32</ele>
        <time>2022-06-06T07:32:19.000Z</time>
      </trkpt>
      <trkpt lat="42.98934" lon="22.94152">
        <ele>646.64</ele>
        <time>2022-06-06T07:32:24.000Z</time>
      </trkpt>
      <trkpt lat="42.98944" lon="22.94085">
        <ele>644.54</ele>
        <time>2022-06-06T07:32:29.000Z</time>
      </trkpt>
      <trkpt lat="42.98956" lon="22.94022">
        <ele>641.9</ele>
        <time>2022-06-06T07:32:34.000Z</time>
      </trkpt>
      <trkpt lat="42.98968" lon="22.93963">
        <ele>639.52</ele>
        <time>2022-06-06T07:32:39.000Z</time>
      </trkpt>
      <trkpt lat="42.98982" lon="22.93905">
        <ele>637.58</ele>
        <time>2022-06-06T07:32:44.000Z</time>
      </trkpt>
      <trkpt lat="42.98999" lon="22.93852">
        <ele>634.8</ele>
        <time>2022-06-06T07:32:49.000Z</time>
      </trkpt>
      <trkpt lat="42.99013" lon="22.93802">
        <ele>631.3</ele>
        <time>2022-06-06T07:32:54.000Z</time>
      </trkpt>
      <trkpt lat="42.99025" lon="22.93756">
        <ele>629.33</ele>
        <time>2022-06-06T07:32:59.000Z</time>
      </trkpt>
      <trkpt lat="42.99027" lon="22.937">
        <ele>626.14</ele>
        <time>2022-06-06T07:33:04.000Z</time>
      </trkpt>
      <trkpt lat="42.9902" lon="22.9364">
        <ele>623.21</ele>
        <time>2022-06-06T07:33:09.000Z</time>
      </trkpt>
      <trkpt lat="42.99013" lon="22.93587">
        <ele>620.05</ele>
        <time>2022-06-06T07:33:14.000Z</time>
      </trkpt>
      <trkpt lat="42.99" lon="22.93548">
        <ele>618.49</ele>
        <time>2022-06-06T07:33:19.000Z</time>
      </trkpt>
      <trkpt lat="42.98986" lon="22.93519">
        <ele>618.31</ele>
        <time>2022-06-06T07:33:24.000Z</time>
      </trkpt>
      <trkpt lat="42.98972" lon="22.93497">
        <ele>616.74</ele>
        <time>2022-06-06T07:33:29.000Z</time>
      </trkpt>
      <trkpt lat="42.98953" lon="22.93476">
        <ele>615.14</ele>
        <time>2022-06-06T07:33:34.000Z</time>
      </trkpt>
      <trkpt lat="42.98936" lon="22.93448">
        <ele>614.11</ele>
        <time>2022-06-06T07:33:39.000Z</time>
      </trkpt>
      <trkpt lat="42.9893" lon="22.93411">
        <ele>614.25</ele>
        <time>2022-06-06T07:33:44.000Z</time>
      </trkpt>
      <trkpt lat="42.98931" lon="22.9337">
        <ele>616.79</ele>
        <time>2022-06-06T07:33:49.000Z</time>
      </trkpt>
      <trkpt lat="42.98933" lon="22.93335">
        <ele>619.49</ele>
        <time>2022-06-06T07:33:54.000Z</time>
      </trkpt>
      <trkpt lat="42.98931" lon="22.933">
        <ele>621.78</ele>
        <time>2022-06-06T07:33:59.000Z</time>
      </trkpt>
      <trkpt lat="42.98932" lon="22.93267">
        <ele>622.74</ele>
        <time>2022-06-06T07:34:04.000Z</time>
      </trkpt>
      <trkpt lat="42.98918" lon="22.93236">
        <ele>622.97</ele>
        <time>2022-06-06T07:34:09.000Z</time>
      </trkpt>
      <trkpt lat="42.98886" lon="22.93212">
        <ele>622.61</ele>
        <time>2022-06-06T07:34:14.000Z</time>
      </trkpt>
      <trkpt lat="42.98887" lon="22.93179">
        <ele>621.82</ele>
        <time>2022-06-06T07:34:19.000Z</time>
      </trkpt>
      <trkpt lat="42.98905" lon="22.9316">
        <ele>622.57</ele>
        <time>2022-06-06T07:34:24.000Z</time>
      </trkpt>
      <trkpt lat="42.98922" lon="22.93143">
        <ele>622.19</ele>
        <time>2022-06-06T07:34:29.000Z</time>
      </trkpt>
      <trkpt lat="42.98945" lon="22.93121">
        <ele>621.39</ele>
        <time>2022-06-06T07:34:34.000Z</time>
      </trkpt>
      <trkpt lat="42.98966" lon="22.93078">
        <ele>619.9</ele>
        <time>2022-06-06T07:34:39.000Z</time>
      </trkpt>
      <trkpt lat="42.98969" lon="22.93017">
        <ele>617.93</ele>
        <time>2022-06-06T07:34:44.000Z</time>
      </trkpt>
      <trkpt lat="42.98969" lon="22.92952">
        <ele>616.37</ele>
        <time>2022-06-06T07:34:49.000Z</time>
      </trkpt>
      <trkpt lat="42.98993" lon="22.92887">
        <ele>614.76</ele>
        <time>2022-06-06T07:34:54.000Z</time>
      </trkpt>
      <trkpt lat="42.99011" lon="22.92827">
        <ele>613.72</ele>
        <time>2022-06-06T07:34:59.000Z</time>
      </trkpt>
      <trkpt lat="42.99019" lon="22.92753">
        <ele>610.03</ele>
        <time>2022-06-06T07:35:04.000Z</time>
      </trkpt>
      <trkpt lat="42.99024" lon="22.9269">
        <ele>606.23</ele>
        <time>2022-06-06T07:35:09.000Z</time>
      </trkpt>
      <trkpt lat="42.98999" lon="22.92639">
        <ele>603.11</ele>
        <time>2022-06-06T07:35:14.000Z</time>
      </trkpt>
      <trkpt lat="42.9898" lon="22.92584">
        <ele>600.17</ele>
        <time>2022-06-06T07:35:19.000Z</time>
      </trkpt>
      <trkpt lat="42.98977" lon="22.92523">
        <ele>596.74</ele>
        <time>2022-06-06T07:35:24.000Z</time>
      </trkpt>
      <trkpt lat="42.98981" lon="22.92469">
        <ele>593.16</ele>
        <time>2022-06-06T07:35:29.000Z</time>
      </trkpt>
      <trkpt lat="42.99002" lon="22.92416">
        <ele>589.91</ele>
        <time>2022-06-06T07:35:34.000Z</time>
      </trkpt>
      <trkpt lat="42.99021" lon="22.92357">
        <ele>586.5</ele>
        <time>2022-06-06T07:35:39.000Z</time>
      </trkpt>
      <trkpt lat="42.99046" lon="22.92306">
        <ele>582.55</ele>
        <time>2022-06-06T07:35:44.000Z</time>
      </trkpt>
      <trkpt lat="42.99072" lon="22.92258">
        <ele>578.33</ele>
        <time>2022-06-06T07:35:49.000Z</time>
      </trkpt>
      <trkpt lat="42.99098" lon="22.92209">
        <ele>574.56</ele>
        <time>2022-06-06T07:35:54.000Z</time>
      </trkpt>
      <trkpt lat="42.99116" lon="22.92151">
        <ele>570.37</ele>
        <time>2022-06-06T07:35:59.000Z</time>
      </trkpt>
      <trkpt lat="42.99137" lon="22.92089">
        <ele>565.97</ele>
        <time>2022-06-06T07:36:04.000Z</time>
      </trkpt>
      <trkpt lat="42.99142" lon="22.92037">
        <ele>561.63</ele>
        <time>2022-06-06T07:36:09.000Z</time>
      </trkpt>
      <trkpt lat="42.9911" lon="22.92002">
        <ele>557.86</ele>
        <time>2022-06-06T07:36:14.000Z</time>
      </trkpt>
      <trkpt lat="42.99066" lon="22.91996">
        <ele>556.7</ele>
        <time>2022-06-06T07:36:19.000Z</time>
      </trkpt>
      <trkpt lat="42.99047" lon="22.91959">
        <ele>554.34</ele>
        <time>2022-06-06T07:36:24.000Z</time>
      </trkpt>
      <trkpt lat="42.99037" lon="22.91908">
        <ele>552.06</ele>
        <time>2022-06-06T07:36:29.000Z</time>
      </trkpt>
      <trkpt lat="42.99029" lon="22.9185">
        <ele>549.1</ele>
        <time>2022-06-06T07:36:34.000Z</time>
      </trkpt>
      <trkpt lat="42.99033" lon="22.91791">
        <ele>546</ele>
        <time>2022-06-06T07:36:39.000Z</time>
      </trkpt>
      <trkpt lat="42.99052" lon="22.91738">
        <ele>542.78</ele>
        <time>2022-06-06T07:36:44.000Z</time>
      </trkpt>
      <trkpt lat="42.99066" lon="22.91703">
        <ele>540.01</ele>
        <time>2022-06-06T07:36:49.000Z</time>
      </trkpt>
      <trkpt lat="42.99073" lon="22.91684">
        <ele>537.03</ele>
        <time>2022-06-06T07:36:54.000Z</time>
      </trkpt>
      <trkpt lat="42.99075" lon="22.91671">
        <ele>533.85</ele>
        <time>2022-06-06T07:36:59.000Z</time>
      </trkpt>
      <trkpt lat="42.99083" lon="22.9166">
        <ele>533.44</ele>
        <time>2022-06-06T07:37:04.000Z</time>
      </trkpt>
      <trkpt lat="42.99085" lon="22.91647">
        <ele>532.32</ele>
        <time>2022-06-06T07:37:09.000Z</time>
      </trkpt>
      <trkpt lat="42.9909" lon="22.91635">
        <ele>532.74</ele>
        <time>2022-06-06T07:37:17.000Z</time>
      </trkpt>
      <trkpt lat="42.99093" lon="22.91622">
        <ele>532.13</ele>
        <time>2022-06-06T07:37:22.000Z</time>
      </trkpt>
      <trkpt lat="42.99096" lon="22.91607">
        <ele>531.76</ele>
        <time>2022-06-06T07:37:27.000Z</time>
      </trkpt>
      <trkpt lat="42.99088" lon="22.91584">
        <ele>530.94</ele>
        <time>2022-06-06T07:37:32.000Z</time>
      </trkpt>
      <trkpt lat="42.99075" lon="22.91547">
        <ele>530.51</ele>
        <time>2022-06-06T07:37:37.000Z</time>
      </trkpt>
      <trkpt lat="42.99062" lon="22.91497">
        <ele>529.59</ele>
        <time>2022-06-06T07:37:42.000Z</time>
      </trkpt>
      <trkpt lat="42.99069" lon="22.9145">
        <ele>528.01</ele>
        <time>2022-06-06T07:37:47.000Z</time>
      </trkpt>
      <trkpt lat="42.99113" lon="22.91444">
        <ele>527.55</ele>
        <time>2022-06-06T07:37:52.000Z</time>
      </trkpt>
      <trkpt lat="42.99144" lon="22.91487">
        <ele>526.75</ele>
        <time>2022-06-06T07:37:57.000Z</time>
      </trkpt>
      <trkpt lat="42.99166" lon="22.91542">
        <ele>526.19</ele>
        <time>2022-06-06T07:38:02.000Z</time>
      </trkpt>
      <trkpt lat="42.99195" lon="22.91532">
        <ele>524.49</ele>
        <time>2022-06-06T07:38:07.000Z</time>
      </trkpt>
      <trkpt lat="42.992" lon="22.91482">
        <ele>523.47</ele>
        <time>2022-06-06T07:38:12.000Z</time>
      </trkpt>
      <trkpt lat="42.99219" lon="22.91458">
        <ele>522.27</ele>
        <time>2022-06-06T07:38:17.000Z</time>
      </trkpt>
      <trkpt lat="42.99235" lon="22.91423">
        <ele>521.25</ele>
        <time>2022-06-06T07:38:22.000Z</time>
      </trkpt>
      <trkpt lat="42.99247" lon="22.9138">
        <ele>520.37</ele>
        <time>2022-06-06T07:38:27.000Z</time>
      </trkpt>
      <trkpt lat="42.99258" lon="22.91333">
        <ele>519.29</ele>
        <time>2022-06-06T07:38:32.000Z</time>
      </trkpt>
      <trkpt lat="42.99275" lon="22.91285">
        <ele>518.34</ele>
        <time>2022-06-06T07:38:37.000Z</time>
      </trkpt>
      <trkpt lat="42.99288" lon="22.91239">
        <ele>517.37</ele>
        <time>2022-06-06T07:38:42.000Z</time>
      </trkpt>
      <trkpt lat="42.99301" lon="22.91196">
        <ele>515.91</ele>
        <time>2022-06-06T07:38:47.000Z</time>
      </trkpt>
      <trkpt lat="42.99311" lon="22.91158">
        <ele>514.48</ele>
        <time>2022-06-06T07:38:52.000Z</time>
      </trkpt>
      <trkpt lat="42.99322" lon="22.91123">
        <ele>513.19</ele>
        <time>2022-06-06T07:38:57.000Z</time>
      </trkpt>
      <trkpt lat="42.99334" lon="22.91086">
        <ele>512.43</ele>
        <time>2022-06-06T07:39:02.000Z</time>
      </trkpt>
      <trkpt lat="42.99347" lon="22.91048">
        <ele>511.4</ele>
        <time>2022-06-06T07:39:07.000Z</time>
      </trkpt>
      <trkpt lat="42.99362" lon="22.91011">
        <ele>510.85</ele>
        <time>2022-06-06T07:39:12.000Z</time>
      </trkpt>
      <trkpt lat="42.99376" lon="22.90975">
        <ele>510.8</ele>
        <time>2022-06-06T07:39:17.000Z</time>
      </trkpt>
      <trkpt lat="42.99388" lon="22.90939">
        <ele>510.31</ele>
        <time>2022-06-06T07:39:22.000Z</time>
      </trkpt>
      <trkpt lat="42.99407" lon="22.90916">
        <ele>508.42</ele>
        <time>2022-06-06T07:39:27.000Z</time>
      </trkpt>
      <trkpt lat="42.99422" lon="22.90913">
        <ele>506.92</ele>
        <time>2022-06-06T07:39:32.000Z</time>
      </trkpt>
      <trkpt lat="42.99431" lon="22.90915">
        <ele>506.64</ele>
        <time>2022-06-06T07:39:37.000Z</time>
      </trkpt>
      <trkpt lat="42.99445" lon="22.90914">
        <ele>507.44</ele>
        <time>2022-06-06T07:39:42.000Z</time>
      </trkpt>
      <trkpt lat="42.99464" lon="22.90906">
        <ele>509.37</ele>
        <time>2022-06-06T07:39:47.000Z</time>
      </trkpt>
      <trkpt lat="42.9948" lon="22.90893">
        <ele>513.17</ele>
        <time>2022-06-06T07:39:52.000Z</time>
      </trkpt>
      <trkpt lat="42.99489" lon="22.90877">
        <ele>514.8</ele>
        <time>2022-06-06T07:39:57.000Z</time>
      </trkpt>
      <trkpt lat="42.995" lon="22.90862">
        <ele>516.47</ele>
        <time>2022-06-06T07:40:02.000Z</time>
      </trkpt>
      <trkpt lat="42.99512" lon="22.90845">
        <ele>518.27</ele>
        <time>2022-06-06T07:40:07.000Z</time>
      </trkpt>
      <trkpt lat="42.99527" lon="22.90826">
        <ele>520.01</ele>
        <time>2022-06-06T07:40:12.000Z</time>
      </trkpt>
      <trkpt lat="42.99537" lon="22.90804">
        <ele>521.23</ele>
        <time>2022-06-06T07:40:17.000Z</time>
      </trkpt>
      <trkpt lat="42.99546" lon="22.90783">
        <ele>522.31</ele>
        <time>2022-06-06T07:40:22.000Z</time>
      </trkpt>
      <trkpt lat="42.99554" lon="22.90759">
        <ele>523.7</ele>
        <time>2022-06-06T07:40:27.000Z</time>
      </trkpt>
      <trkpt lat="42.99564" lon="22.90729">
        <ele>525.28</ele>
        <time>2022-06-06T07:40:32.000Z</time>
      </trkpt>
      <trkpt lat="42.99574" lon="22.90697">
        <ele>526.36</ele>
        <time>2022-06-06T07:40:37.000Z</time>
      </trkpt>
      <trkpt lat="42.99584" lon="22.90664">
        <ele>526.94</ele>
        <time>2022-06-06T07:40:42.000Z</time>
      </trkpt>
      <trkpt lat="42.996" lon="22.90634">
        <ele>527.97</ele>
        <time>2022-06-06T07:40:47.000Z</time>
      </trkpt>
      <trkpt lat="42.99616" lon="22.90599">
        <ele>528.96</ele>
        <time>2022-06-06T07:40:52.000Z</time>
      </trkpt>
      <trkpt lat="42.99632" lon="22.90555">
        <ele>529.52</ele>
        <time>2022-06-06T07:40:57.000Z</time>
      </trkpt>
      <trkpt lat="42.99642" lon="22.9051">
        <ele>528.81</ele>
        <time>2022-06-06T07:41:02.000Z</time>
      </trkpt>
      <trkpt lat="42.99652" lon="22.9047">
        <ele>528.05</ele>
        <time>2022-06-06T07:41:07.000Z</time>
      </trkpt>
      <trkpt lat="42.99664" lon="22.90435">
        <ele>527.87</ele>
        <time>2022-06-06T07:41:12.000Z</time>
      </trkpt>
      <trkpt lat="42.99678" lon="22.904">
        <ele>526.97</ele>
        <time>2022-06-06T07:41:17.000Z</time>
      </trkpt>
      <trkpt lat="42.99691" lon="22.90363">
        <ele>526.53</ele>
        <time>2022-06-06T07:41:22.000Z</time>
      </trkpt>
      <trkpt lat="42.99703" lon="22.90328">
        <ele>526.3</ele>
        <time>2022-06-06T07:41:27.000Z</time>
      </trkpt>
      <trkpt lat="42.9972" lon="22.90301">
        <ele>525.52</ele>
        <time>2022-06-06T07:41:32.000Z</time>
      </trkpt>
      <trkpt lat="42.99737" lon="22.90276">
        <ele>524.6</ele>
        <time>2022-06-06T07:41:37.000Z</time>
      </trkpt>
      <trkpt lat="42.99757" lon="22.90257">
        <ele>524.23</ele>
        <time>2022-06-06T07:41:42.000Z</time>
      </trkpt>
      <trkpt lat="42.99773" lon="22.90239">
        <ele>522.86</ele>
        <time>2022-06-06T07:41:47.000Z</time>
      </trkpt>
      <trkpt lat="42.99787" lon="22.9022">
        <ele>522.63</ele>
        <time>2022-06-06T07:41:52.000Z</time>
      </trkpt>
      <trkpt lat="42.99799" lon="22.902">
        <ele>522.5</ele>
        <time>2022-06-06T07:41:57.000Z</time>
      </trkpt>
      <trkpt lat="42.99809" lon="22.90177">
        <ele>522.67</ele>
        <time>2022-06-06T07:42:02.000Z</time>
      </trkpt>
      <trkpt lat="42.99819" lon="22.90147">
        <ele>523.12</ele>
        <time>2022-06-06T07:42:07.000Z</time>
      </trkpt>
      <trkpt lat="42.99827" lon="22.90115">
        <ele>524.69</ele>
        <time>2022-06-06T07:42:12.000Z</time>
      </trkpt>
      <trkpt lat="42.99832" lon="22.9008">
        <ele>524.92</ele>
        <time>2022-06-06T07:42:17.000Z</time>
      </trkpt>
      <trkpt lat="42.99835" lon="22.90037">
        <ele>523.98</ele>
        <time>2022-06-06T07:42:22.000Z</time>
      </trkpt>
      <trkpt lat="42.99839" lon="22.89984">
        <ele>523.41</ele>
        <time>2022-06-06T07:42:27.000Z</time>
      </trkpt>
      <trkpt lat="42.99853" lon="22.89938">
        <ele>523.29</ele>
        <time>2022-06-06T07:42:32.000Z</time>
      </trkpt>
      <trkpt lat="42.99873" lon="22.89901">
        <ele>522.19</ele>
        <time>2022-06-06T07:42:37.000Z</time>
      </trkpt>
      <trkpt lat="42.99894" lon="22.8987">
        <ele>521.51</ele>
        <time>2022-06-06T07:42:42.000Z</time>
      </trkpt>
      <trkpt lat="42.99912" lon="22.8984">
        <ele>521.23</ele>
        <time>2022-06-06T07:42:47.000Z</time>
      </trkpt>
      <trkpt lat="42.99929" lon="22.89814">
        <ele>521.1</ele>
        <time>2022-06-06T07:42:52.000Z</time>
      </trkpt>
      <trkpt lat="42.99943" lon="22.89786">
        <ele>521</ele>
        <time>2022-06-06T07:42:57.000Z</time>
      </trkpt>
      <trkpt lat="42.99953" lon="22.89762">
        <ele>520.89</ele>
        <time>2022-06-06T07:43:02.000Z</time>
      </trkpt>
      <trkpt lat="42.99964" lon="22.89746">
        <ele>519.66</ele>
        <time>2022-06-06T07:43:07.000Z</time>
      </trkpt>
      <trkpt lat="42.99973" lon="22.8973">
        <ele>518.84</ele>
        <time>2022-06-06T07:43:12.000Z</time>
      </trkpt>
      <trkpt lat="42.99982" lon="22.89713">
        <ele>518.7</ele>
        <time>2022-06-06T07:43:17.000Z</time>
      </trkpt>
      <trkpt lat="42.99993" lon="22.89697">
        <ele>518.53</ele>
        <time>2022-06-06T07:43:22.000Z</time>
      </trkpt>
      <trkpt lat="43.00006" lon="22.8968">
        <ele>518.82</ele>
        <time>2022-06-06T07:43:27.000Z</time>
      </trkpt>
      <trkpt lat="43.00019" lon="22.89657">
        <ele>518.83</ele>
        <time>2022-06-06T07:43:32.000Z</time>
      </trkpt>
      <trkpt lat="43.00032" lon="22.89633">
        <ele>518.44</ele>
        <time>2022-06-06T07:43:37.000Z</time>
      </trkpt>
      <trkpt lat="43.00047" lon="22.89603">
        <ele>518.31</ele>
        <time>2022-06-06T07:43:42.000Z</time>
      </trkpt>
      <trkpt lat="43.00062" lon="22.89571">
        <ele>518.01</ele>
        <time>2022-06-06T07:43:47.000Z</time>
      </trkpt>
      <trkpt lat="43.00077" lon="22.89537">
        <ele>517.81</ele>
        <time>2022-06-06T07:43:52.000Z</time>
      </trkpt>
      <trkpt lat="43.00095" lon="22.89501">
        <ele>517.35</ele>
        <time>2022-06-06T07:43:57.000Z</time>
      </trkpt>
      <trkpt lat="43.00113" lon="22.89468">
        <ele>516.86</ele>
        <time>2022-06-06T07:44:02.000Z</time>
      </trkpt>
      <trkpt lat="43.00129" lon="22.89437">
        <ele>516.04</ele>
        <time>2022-06-06T07:44:07.000Z</time>
      </trkpt>
      <trkpt lat="43.00144" lon="22.8941">
        <ele>515.97</ele>
        <time>2022-06-06T07:44:12.000Z</time>
      </trkpt>
      <trkpt lat="43.0016" lon="22.89384">
        <ele>516.47</ele>
        <time>2022-06-06T07:44:17.000Z</time>
      </trkpt>
      <trkpt lat="43.00178" lon="22.89358">
        <ele>516.33</ele>
        <time>2022-06-06T07:44:22.000Z</time>
      </trkpt>
      <trkpt lat="43.0019" lon="22.89327">
        <ele>516.28</ele>
        <time>2022-06-06T07:44:27.000Z</time>
      </trkpt>
      <trkpt lat="43.00201" lon="22.89298">
        <ele>516.4</ele>
        <time>2022-06-06T07:44:32.000Z</time>
      </trkpt>
      <trkpt lat="43.00209" lon="22.89276">
        <ele>516.23</ele>
        <time>2022-06-06T07:44:37.000Z</time>
      </trkpt>
      <trkpt lat="43.00217" lon="22.89264">
        <ele>516.22</ele>
        <time>2022-06-06T07:44:42.000Z</time>
      </trkpt>
      <trkpt lat="43.00224" lon="22.89256">
        <ele>517.42</ele>
        <time>2022-06-06T07:45:16.000Z</time>
      </trkpt>
      <trkpt lat="43.00233" lon="22.89258">
        <ele>518.19</ele>
        <time>2022-06-06T07:45:41.000Z</time>
      </trkpt>
      <trkpt lat="43.00219" lon="22.89254">
        <ele>518.82</ele>
        <time>2022-06-06T07:45:56.000Z</time>
      </trkpt>
      <trkpt lat="43.00226" lon="22.89245">
        <ele>523.27</ele>
        <time>2022-06-06T07:48:53.000Z</time>
      </trkpt>
      <trkpt lat="43.00238" lon="22.89217">
        <ele>523.13</ele>
        <time>2022-06-06T07:48:58.000Z</time>
      </trkpt>
      <trkpt lat="43.0026" lon="22.8918">
        <ele>522.74</ele>
        <time>2022-06-06T07:49:03.000Z</time>
      </trkpt>
      <trkpt lat="43.00272" lon="22.89139">
        <ele>521.15</ele>
        <time>2022-06-06T07:49:08.000Z</time>
      </trkpt>
      <trkpt lat="43.00278" lon="22.89103">
        <ele>519.97</ele>
        <time>2022-06-06T07:49:13.000Z</time>
      </trkpt>
      <trkpt lat="43.00287" lon="22.89075">
        <ele>518.77</ele>
        <time>2022-06-06T07:49:18.000Z</time>
      </trkpt>
      <trkpt lat="43.00305" lon="22.89047">
        <ele>517.67</ele>
        <time>2022-06-06T07:49:23.000Z</time>
      </trkpt>
      <trkpt lat="43.00317" lon="22.89004">
        <ele>517.01</ele>
        <time>2022-06-06T07:49:28.000Z</time>
      </trkpt>
      <trkpt lat="43.00325" lon="22.88957">
        <ele>516.19</ele>
        <time>2022-06-06T07:49:33.000Z</time>
      </trkpt>
      <trkpt lat="43.0033" lon="22.88914">
        <ele>515.48</ele>
        <time>2022-06-06T07:49:38.000Z</time>
      </trkpt>
      <trkpt lat="43.00332" lon="22.88872">
        <ele>514.64</ele>
        <time>2022-06-06T07:49:43.000Z</time>
      </trkpt>
      <trkpt lat="43.0033" lon="22.88831">
        <ele>513.47</ele>
        <time>2022-06-06T07:49:48.000Z</time>
      </trkpt>
      <trkpt lat="43.00321" lon="22.88791">
        <ele>512.46</ele>
        <time>2022-06-06T07:49:53.000Z</time>
      </trkpt>
      <trkpt lat="43.0031" lon="22.88755">
        <ele>511.67</ele>
        <time>2022-06-06T07:49:58.000Z</time>
      </trkpt>
      <trkpt lat="43.00297" lon="22.88724">
        <ele>510.62</ele>
        <time>2022-06-06T07:50:03.000Z</time>
      </trkpt>
      <trkpt lat="43.00298" lon="22.88699">
        <ele>509.12</ele>
        <time>2022-06-06T07:50:08.000Z</time>
      </trkpt>
      <trkpt lat="43.00302" lon="22.88674">
        <ele>509.29</ele>
        <time>2022-06-06T07:50:13.000Z</time>
      </trkpt>
      <trkpt lat="43.00305" lon="22.88646">
        <ele>509.34</ele>
        <time>2022-06-06T07:50:18.000Z</time>
      </trkpt>
      <trkpt lat="43.00306" lon="22.88616">
        <ele>508.84</ele>
        <time>2022-06-06T07:50:23.000Z</time>
      </trkpt>
      <trkpt lat="43.003" lon="22.88585">
        <ele>508.14</ele>
        <time>2022-06-06T07:50:28.000Z</time>
      </trkpt>
      <trkpt lat="43.00292" lon="22.88547">
        <ele>507.46</ele>
        <time>2022-06-06T07:50:33.000Z</time>
      </trkpt>
      <trkpt lat="43.00281" lon="22.88509">
        <ele>506.5</ele>
        <time>2022-06-06T07:50:38.000Z</time>
      </trkpt>
      <trkpt lat="43.00269" lon="22.88474">
        <ele>505.52</ele>
        <time>2022-06-06T07:50:43.000Z</time>
      </trkpt>
      <trkpt lat="43.00257" lon="22.88443">
        <ele>504.93</ele>
        <time>2022-06-06T07:50:48.000Z</time>
      </trkpt>
      <trkpt lat="43.00244" lon="22.88422">
        <ele>504.33</ele>
        <time>2022-06-06T07:50:53.000Z</time>
      </trkpt>
      <trkpt lat="43.0023" lon="22.88403">
        <ele>503.47</ele>
        <time>2022-06-06T07:50:58.000Z</time>
      </trkpt>
      <trkpt lat="43.00217" lon="22.88375">
        <ele>502.76</ele>
        <time>2022-06-06T07:51:03.000Z</time>
      </trkpt>
      <trkpt lat="43.00197" lon="22.88345">
        <ele>501.59</ele>
        <time>2022-06-06T07:51:08.000Z</time>
      </trkpt>
      <trkpt lat="43.00173" lon="22.88307">
        <ele>500.27</ele>
        <time>2022-06-06T07:51:13.000Z</time>
      </trkpt>
      <trkpt lat="43.00151" lon="22.88273">
        <ele>499.39</ele>
        <time>2022-06-06T07:51:18.000Z</time>
      </trkpt>
      <trkpt lat="43.0013" lon="22.88242">
        <ele>498.54</ele>
        <time>2022-06-06T07:51:23.000Z</time>
      </trkpt>
      <trkpt lat="43.00116" lon="22.88204">
        <ele>497.77</ele>
        <time>2022-06-06T07:51:28.000Z</time>
      </trkpt>
      <trkpt lat="43.00104" lon="22.88163">
        <ele>496.67</ele>
        <time>2022-06-06T07:51:33.000Z</time>
      </trkpt>
      <trkpt lat="43.00091" lon="22.88127">
        <ele>496.03</ele>
        <time>2022-06-06T07:51:38.000Z</time>
      </trkpt>
      <trkpt lat="43.00075" lon="22.88098">
        <ele>496.09</ele>
        <time>2022-06-06T07:51:43.000Z</time>
      </trkpt>
      <trkpt lat="43.00065" lon="22.88071">
        <ele>495.93</ele>
        <time>2022-06-06T07:51:48.000Z</time>
      </trkpt>
      <trkpt lat="43.00056" lon="22.88048">
        <ele>495.51</ele>
        <time>2022-06-06T07:51:53.000Z</time>
      </trkpt>
      <trkpt lat="43.00042" lon="22.88025">
        <ele>494.77</ele>
        <time>2022-06-06T07:51:58.000Z</time>
      </trkpt>
      <trkpt lat="43.00023" lon="22.88002">
        <ele>493.67</ele>
        <time>2022-06-06T07:52:03.000Z</time>
      </trkpt>
      <trkpt lat="43.00002" lon="22.87978">
        <ele>492.86</ele>
        <time>2022-06-06T07:52:08.000Z</time>
      </trkpt>
      <trkpt lat="42.99984" lon="22.87958">
        <ele>491.84</ele>
        <time>2022-06-06T07:52:13.000Z</time>
      </trkpt>
      <trkpt lat="42.99962" lon="22.87941">
        <ele>491.31</ele>
        <time>2022-06-06T07:52:18.000Z</time>
      </trkpt>
      <trkpt lat="42.9994" lon="22.87939">
        <ele>490.73</ele>
        <time>2022-06-06T07:52:23.000Z</time>
      </trkpt>
      <trkpt lat="42.99917" lon="22.8794">
        <ele>490.24</ele>
        <time>2022-06-06T07:52:28.000Z</time>
      </trkpt>
      <trkpt lat="42.99894" lon="22.87935">
        <ele>489.98</ele>
        <time>2022-06-06T07:52:33.000Z</time>
      </trkpt>
      <trkpt lat="42.99872" lon="22.87919">
        <ele>489.71</ele>
        <time>2022-06-06T07:52:38.000Z</time>
      </trkpt>
      <trkpt lat="42.99844" lon="22.87903">
        <ele>489.6</ele>
        <time>2022-06-06T07:52:43.000Z</time>
      </trkpt>
      <trkpt lat="42.99814" lon="22.87883">
        <ele>489.23</ele>
        <time>2022-06-06T07:52:48.000Z</time>
      </trkpt>
      <trkpt lat="42.99784" lon="22.87868">
        <ele>488.91</ele>
        <time>2022-06-06T07:52:53.000Z</time>
      </trkpt>
      <trkpt lat="42.99752" lon="22.87855">
        <ele>488.71</ele>
        <time>2022-06-06T07:52:58.000Z</time>
      </trkpt>
      <trkpt lat="42.99722" lon="22.8784">
        <ele>488.43</ele>
        <time>2022-06-06T07:53:03.000Z</time>
      </trkpt>
      <trkpt lat="42.99698" lon="22.87827">
        <ele>487.66</ele>
        <time>2022-06-06T07:53:08.000Z</time>
      </trkpt>
      <trkpt lat="42.99675" lon="22.8781">
        <ele>487.03</ele>
        <time>2022-06-06T07:53:13.000Z</time>
      </trkpt>
      <trkpt lat="42.99652" lon="22.87791">
        <ele>486.34</ele>
        <time>2022-06-06T07:53:18.000Z</time>
      </trkpt>
      <trkpt lat="42.9963" lon="22.87773">
        <ele>485.56</ele>
        <time>2022-06-06T07:53:23.000Z</time>
      </trkpt>
      <trkpt lat="42.9961" lon="22.87756">
        <ele>484.97</ele>
        <time>2022-06-06T07:53:28.000Z</time>
      </trkpt>
      <trkpt lat="42.99594" lon="22.87739">
        <ele>484.16</ele>
        <time>2022-06-06T07:53:33.000Z</time>
      </trkpt>
      <trkpt lat="42.99581" lon="22.87724">
        <ele>483.07</ele>
        <time>2022-06-06T07:53:38.000Z</time>
      </trkpt>
      <trkpt lat="42.9957" lon="22.87707">
        <ele>482.75</ele>
        <time>2022-06-06T07:53:43.000Z</time>
      </trkpt>
      <trkpt lat="42.99557" lon="22.87692">
        <ele>484.15</ele>
        <time>2022-06-06T07:53:48.000Z</time>
      </trkpt>
      <trkpt lat="42.99548" lon="22.87675">
        <ele>483.93</ele>
        <time>2022-06-06T07:53:53.000Z</time>
      </trkpt>
      <trkpt lat="42.9954" lon="22.87654">
        <ele>482.89</ele>
        <time>2022-06-06T07:53:58.000Z</time>
      </trkpt>
      <trkpt lat="42.99524" lon="22.87627">
        <ele>481.96</ele>
        <time>2022-06-06T07:54:03.000Z</time>
      </trkpt>
      <trkpt lat="42.99507" lon="22.87589">
        <ele>481.23</ele>
        <time>2022-06-06T07:54:08.000Z</time>
      </trkpt>
      <trkpt lat="42.99502" lon="22.8755">
        <ele>483</ele>
        <time>2022-06-06T07:54:13.000Z</time>
      </trkpt>
      <trkpt lat="42.99499" lon="22.87515">
        <ele>483.79</ele>
        <time>2022-06-06T07:54:18.000Z</time>
      </trkpt>
      <trkpt lat="42.99497" lon="22.87482">
        <ele>484.01</ele>
        <time>2022-06-06T07:54:23.000Z</time>
      </trkpt>
      <trkpt lat="42.99496" lon="22.87455">
        <ele>484.52</ele>
        <time>2022-06-06T07:54:28.000Z</time>
      </trkpt>
      <trkpt lat="42.99496" lon="22.87429">
        <ele>484.32</ele>
        <time>2022-06-06T07:54:33.000Z</time>
      </trkpt>
      <trkpt lat="42.99491" lon="22.87399">
        <ele>483.34</ele>
        <time>2022-06-06T07:54:38.000Z</time>
      </trkpt>
      <trkpt lat="42.99487" lon="22.87359">
        <ele>483.68</ele>
        <time>2022-06-06T07:54:43.000Z</time>
      </trkpt>
      <trkpt lat="42.99483" lon="22.8732">
        <ele>483.8</ele>
        <time>2022-06-06T07:54:48.000Z</time>
      </trkpt>
      <trkpt lat="42.99483" lon="22.87285">
        <ele>483.98</ele>
        <time>2022-06-06T07:54:53.000Z</time>
      </trkpt>
      <trkpt lat="42.99486" lon="22.8725">
        <ele>484</ele>
        <time>2022-06-06T07:54:58.000Z</time>
      </trkpt>
      <trkpt lat="42.99488" lon="22.87216">
        <ele>484.49</ele>
        <time>2022-06-06T07:55:03.000Z</time>
      </trkpt>
      <trkpt lat="42.99494" lon="22.87183">
        <ele>485.32</ele>
        <time>2022-06-06T07:55:08.000Z</time>
      </trkpt>
      <trkpt lat="42.99497" lon="22.87155">
        <ele>486.16</ele>
        <time>2022-06-06T07:55:13.000Z</time>
      </trkpt>
      <trkpt lat="42.99499" lon="22.87131">
        <ele>487.35</ele>
        <time>2022-06-06T07:55:18.000Z</time>
      </trkpt>
      <trkpt lat="42.995" lon="22.87107">
        <ele>489.26</ele>
        <time>2022-06-06T07:55:23.000Z</time>
      </trkpt>
      <trkpt lat="42.995" lon="22.87082">
        <ele>491.51</ele>
        <time>2022-06-06T07:55:28.000Z</time>
      </trkpt>
      <trkpt lat="42.995" lon="22.87055">
        <ele>494.37</ele>
        <time>2022-06-06T07:55:33.000Z</time>
      </trkpt>
      <trkpt lat="42.99499" lon="22.8703">
        <ele>496.85</ele>
        <time>2022-06-06T07:55:38.000Z</time>
      </trkpt>
      <trkpt lat="42.9949" lon="22.87009">
        <ele>497.05</ele>
        <time>2022-06-06T07:55:43.000Z</time>
      </trkpt>
      <trkpt lat="42.99487" lon="22.86983">
        <ele>497.68</ele>
        <time>2022-06-06T07:55:48.000Z</time>
      </trkpt>
      <trkpt lat="42.99482" lon="22.86957">
        <ele>498.27</ele>
        <time>2022-06-06T07:55:53.000Z</time>
      </trkpt>
      <trkpt lat="42.99478" lon="22.86937">
        <ele>498.89</ele>
        <time>2022-06-06T07:55:58.000Z</time>
      </trkpt>
      <trkpt lat="42.99469" lon="22.86919">
        <ele>499.49</ele>
        <time>2022-06-06T07:56:03.000Z</time>
      </trkpt>
      <trkpt lat="42.99462" lon="22.86904">
        <ele>501.22</ele>
        <time>2022-06-06T07:56:08.000Z</time>
      </trkpt>
      <trkpt lat="42.99457" lon="22.86893">
        <ele>502.57</ele>
        <time>2022-06-06T07:56:15.000Z</time>
      </trkpt>
      <trkpt lat="42.99464" lon="22.86884">
        <ele>503.07</ele>
        <time>2022-06-06T07:56:31.000Z</time>
      </trkpt>
      <trkpt lat="42.99458" lon="22.86894">
        <ele>503.21</ele>
        <time>2022-06-06T07:56:45.000Z</time>
      </trkpt>
      <trkpt lat="42.99451" lon="22.86885">
        <ele>503.72</ele>
        <time>2022-06-06T07:57:30.000Z</time>
      </trkpt>
      <trkpt lat="42.99444" lon="22.86868">
        <ele>503.43</ele>
        <time>2022-06-06T07:57:35.000Z</time>
      </trkpt>
      <trkpt lat="42.99435" lon="22.86853">
        <ele>502.84</ele>
        <time>2022-06-06T07:57:40.000Z</time>
      </trkpt>
      <trkpt lat="42.99426" lon="22.86835">
        <ele>501.87</ele>
        <time>2022-06-06T07:57:45.000Z</time>
      </trkpt>
      <trkpt lat="42.99418" lon="22.86816">
        <ele>501.13</ele>
        <time>2022-06-06T07:57:50.000Z</time>
      </trkpt>
      <trkpt lat="42.99411" lon="22.86796">
        <ele>500.19</ele>
        <time>2022-06-06T07:57:55.000Z</time>
      </trkpt>
      <trkpt lat="42.99404" lon="22.86771">
        <ele>499.64</ele>
        <time>2022-06-06T07:58:00.000Z</time>
      </trkpt>
      <trkpt lat="42.99395" lon="22.86744">
        <ele>498.2</ele>
        <time>2022-06-06T07:58:05.000Z</time>
      </trkpt>
      <trkpt lat="42.99387" lon="22.86713">
        <ele>497.46</ele>
        <time>2022-06-06T07:58:10.000Z</time>
      </trkpt>
      <trkpt lat="42.9938" lon="22.86686">
        <ele>496.67</ele>
        <time>2022-06-06T07:58:15.000Z</time>
      </trkpt>
      <trkpt lat="42.99371" lon="22.86654">
        <ele>496.11</ele>
        <time>2022-06-06T07:58:20.000Z</time>
      </trkpt>
      <trkpt lat="42.99351" lon="22.86624">
        <ele>494.09</ele>
        <time>2022-06-06T07:58:25.000Z</time>
      </trkpt>
      <trkpt lat="42.99329" lon="22.86597">
        <ele>492</ele>
        <time>2022-06-06T07:58:30.000Z</time>
      </trkpt>
      <trkpt lat="42.99304" lon="22.8657">
        <ele>490.77</ele>
        <time>2022-06-06T07:58:35.000Z</time>
      </trkpt>
      <trkpt lat="42.99275" lon="22.86551">
        <ele>489.13</ele>
        <time>2022-06-06T07:58:40.000Z</time>
      </trkpt>
      <trkpt lat="42.99245" lon="22.86537">
        <ele>487.29</ele>
        <time>2022-06-06T07:58:45.000Z</time>
      </trkpt>
      <trkpt lat="42.99217" lon="22.86512">
        <ele>485.18</ele>
        <time>2022-06-06T07:58:50.000Z</time>
      </trkpt>
      <trkpt lat="42.99193" lon="22.86483">
        <ele>484.31</ele>
        <time>2022-06-06T07:58:55.000Z</time>
      </trkpt>
      <trkpt lat="42.99174" lon="22.86451">
        <ele>484.22</ele>
        <time>2022-06-06T07:59:00.000Z</time>
      </trkpt>
      <trkpt lat="42.9916" lon="22.86425">
        <ele>484.58</ele>
        <time>2022-06-06T07:59:05.000Z</time>
      </trkpt>
      <trkpt lat="42.9915" lon="22.86404">
        <ele>484.83</ele>
        <time>2022-06-06T07:59:10.000Z</time>
      </trkpt>
      <trkpt lat="42.99145" lon="22.86384">
        <ele>484.71</ele>
        <time>2022-06-06T07:59:15.000Z</time>
      </trkpt>
      <trkpt lat="42.99131" lon="22.8636">
        <ele>483.87</ele>
        <time>2022-06-06T07:59:20.000Z</time>
      </trkpt>
      <trkpt lat="42.99105" lon="22.86351">
        <ele>485.5</ele>
        <time>2022-06-06T07:59:25.000Z</time>
      </trkpt>
      <trkpt lat="42.99079" lon="22.86348">
        <ele>486.7</ele>
        <time>2022-06-06T07:59:30.000Z</time>
      </trkpt>
      <trkpt lat="42.99049" lon="22.86342">
        <ele>486.92</ele>
        <time>2022-06-06T07:59:35.000Z</time>
      </trkpt>
      <trkpt lat="42.99029" lon="22.86308">
        <ele>486.94</ele>
        <time>2022-06-06T07:59:40.000Z</time>
      </trkpt>
      <trkpt lat="42.99014" lon="22.86268">
        <ele>486.64</ele>
        <time>2022-06-06T07:59:45.000Z</time>
      </trkpt>
      <trkpt lat="42.98999" lon="22.86231">
        <ele>485.57</ele>
        <time>2022-06-06T07:59:50.000Z</time>
      </trkpt>
      <trkpt lat="42.98987" lon="22.86198">
        <ele>484.96</ele>
        <time>2022-06-06T07:59:55.000Z</time>
      </trkpt>
      <trkpt lat="42.98974" lon="22.86165">
        <ele>484.81</ele>
        <time>2022-06-06T08:00:00.000Z</time>
      </trkpt>
      <trkpt lat="42.98964" lon="22.86133">
        <ele>484.61</ele>
        <time>2022-06-06T08:00:05.000Z</time>
      </trkpt>
      <trkpt lat="42.98952" lon="22.86101">
        <ele>484.43</ele>
        <time>2022-06-06T08:00:10.000Z</time>
      </trkpt>
      <trkpt lat="42.98942" lon="22.86077">
        <ele>484.13</ele>
        <time>2022-06-06T08:00:15.000Z</time>
      </trkpt>
      <trkpt lat="42.98935" lon="22.86055">
        <ele>484.02</ele>
        <time>2022-06-06T08:00:20.000Z</time>
      </trkpt>
      <trkpt lat="42.98937" lon="22.86029">
        <ele>484.23</ele>
        <time>2022-06-06T08:00:25.000Z</time>
      </trkpt>
      <trkpt lat="42.98943" lon="22.86014">
        <ele>489.12</ele>
        <time>2022-06-06T08:00:30.000Z</time>
      </trkpt>
      <trkpt lat="42.98951" lon="22.85998">
        <ele>492.62</ele>
        <time>2022-06-06T08:00:35.000Z</time>
      </trkpt>
      <trkpt lat="42.9896" lon="22.85988">
        <ele>495.16</ele>
        <time>2022-06-06T08:00:40.000Z</time>
      </trkpt>
      <trkpt lat="42.98964" lon="22.85974">
        <ele>506.04</ele>
        <time>2022-06-06T08:02:02.000Z</time>
      </trkpt>
      <trkpt lat="42.98965" lon="22.85957">
        <ele>507.22</ele>
        <time>2022-06-06T08:02:07.000Z</time>
      </trkpt>
      <trkpt lat="42.98964" lon="22.85939">
        <ele>507.5</ele>
        <time>2022-06-06T08:02:12.000Z</time>
      </trkpt>
      <trkpt lat="42.98961" lon="22.8592">
        <ele>507.69</ele>
        <time>2022-06-06T08:02:17.000Z</time>
      </trkpt>
      <trkpt lat="42.98954" lon="22.85901">
        <ele>507.22</ele>
        <time>2022-06-06T08:02:22.000Z</time>
      </trkpt>
      <trkpt lat="42.98943" lon="22.85879">
        <ele>506.45</ele>
        <time>2022-06-06T08:02:27.000Z</time>
      </trkpt>
      <trkpt lat="42.98931" lon="22.85858">
        <ele>505.68</ele>
        <time>2022-06-06T08:02:32.000Z</time>
      </trkpt>
      <trkpt lat="42.98919" lon="22.85838">
        <ele>503.63</ele>
        <time>2022-06-06T08:02:37.000Z</time>
      </trkpt>
      <trkpt lat="42.98907" lon="22.85817">
        <ele>501.33</ele>
        <time>2022-06-06T08:02:42.000Z</time>
      </trkpt>
      <trkpt lat="42.98896" lon="22.85792">
        <ele>500.6</ele>
        <time>2022-06-06T08:02:47.000Z</time>
      </trkpt>
      <trkpt lat="42.98884" lon="22.85764">
        <ele>500.38</ele>
        <time>2022-06-06T08:02:52.000Z</time>
      </trkpt>
      <trkpt lat="42.98873" lon="22.85734">
        <ele>500.45</ele>
        <time>2022-06-06T08:02:57.000Z</time>
      </trkpt>
      <trkpt lat="42.98862" lon="22.85701">
        <ele>500.41</ele>
        <time>2022-06-06T08:03:02.000Z</time>
      </trkpt>
      <trkpt lat="42.98849" lon="22.85668">
        <ele>500.33</ele>
        <time>2022-06-06T08:03:07.000Z</time>
      </trkpt>
      <trkpt lat="42.98833" lon="22.85644">
        <ele>500.82</ele>
        <time>2022-06-06T08:03:12.000Z</time>
      </trkpt>
      <trkpt lat="42.98817" lon="22.85616">
        <ele>500.77</ele>
        <time>2022-06-06T08:03:17.000Z</time>
      </trkpt>
      <trkpt lat="42.988" lon="22.85592">
        <ele>501.09</ele>
        <time>2022-06-06T08:03:22.000Z</time>
      </trkpt>
      <trkpt lat="42.98784" lon="22.85571">
        <ele>501.89</ele>
        <time>2022-06-06T08:03:27.000Z</time>
      </trkpt>
      <trkpt lat="42.98768" lon="22.85553">
        <ele>503.34</ele>
        <time>2022-06-06T08:03:32.000Z</time>
      </trkpt>
      <trkpt lat="42.98753" lon="22.85536">
        <ele>502.67</ele>
        <time>2022-06-06T08:03:37.000Z</time>
      </trkpt>
      <trkpt lat="42.98738" lon="22.85518">
        <ele>503.14</ele>
        <time>2022-06-06T08:03:42.000Z</time>
      </trkpt>
      <trkpt lat="42.98722" lon="22.855">
        <ele>504.31</ele>
        <time>2022-06-06T08:03:47.000Z</time>
      </trkpt>
      <trkpt lat="42.98708" lon="22.85481">
        <ele>503.86</ele>
        <time>2022-06-06T08:03:52.000Z</time>
      </trkpt>
      <trkpt lat="42.98695" lon="22.85461">
        <ele>503.38</ele>
        <time>2022-06-06T08:03:57.000Z</time>
      </trkpt>
      <trkpt lat="42.98685" lon="22.85444">
        <ele>503.46</ele>
        <time>2022-06-06T08:04:02.000Z</time>
      </trkpt>
      <trkpt lat="42.98679" lon="22.85428">
        <ele>502.29</ele>
        <time>2022-06-06T08:04:07.000Z</time>
      </trkpt>
      <trkpt lat="42.98671" lon="22.85413">
        <ele>503.04</ele>
        <time>2022-06-06T08:04:12.000Z</time>
      </trkpt>
      <trkpt lat="42.98663" lon="22.85395">
        <ele>502.89</ele>
        <time>2022-06-06T08:04:17.000Z</time>
      </trkpt>
      <trkpt lat="42.98652" lon="22.85377">
        <ele>503.14</ele>
        <time>2022-06-06T08:04:22.000Z</time>
      </trkpt>
      <trkpt lat="42.98643" lon="22.8536">
        <ele>503.1</ele>
        <time>2022-06-06T08:04:27.000Z</time>
      </trkpt>
      <trkpt lat="42.98633" lon="22.85336">
        <ele>504.65</ele>
        <time>2022-06-06T08:04:32.000Z</time>
      </trkpt>
      <trkpt lat="42.98622" lon="22.85317">
        <ele>505.67</ele>
        <time>2022-06-06T08:04:37.000Z</time>
      </trkpt>
      <trkpt lat="42.98614" lon="22.85304">
        <ele>506.08</ele>
        <time>2022-06-06T08:04:42.000Z</time>
      </trkpt>
      <trkpt lat="42.98605" lon="22.85292">
        <ele>506.46</ele>
        <time>2022-06-06T08:04:47.000Z</time>
      </trkpt>
      <trkpt lat="42.98599" lon="22.85279">
        <ele>505.98</ele>
        <time>2022-06-06T08:04:52.000Z</time>
      </trkpt>
      <trkpt lat="42.98589" lon="22.85263">
        <ele>506.05</ele>
        <time>2022-06-06T08:04:57.000Z</time>
      </trkpt>
      <trkpt lat="42.98577" lon="22.85247">
        <ele>505.59</ele>
        <time>2022-06-06T08:05:02.000Z</time>
      </trkpt>
      <trkpt lat="42.98563" lon="22.85231">
        <ele>504.54</ele>
        <time>2022-06-06T08:05:07.000Z</time>
      </trkpt>
      <trkpt lat="42.9855" lon="22.85216">
        <ele>503.95</ele>
        <time>2022-06-06T08:05:12.000Z</time>
      </trkpt>
      <trkpt lat="42.98539" lon="22.85197">
        <ele>503.78</ele>
        <time>2022-06-06T08:05:17.000Z</time>
      </trkpt>
      <trkpt lat="42.98533" lon="22.85178">
        <ele>503.87</ele>
        <time>2022-06-06T08:05:22.000Z</time>
      </trkpt>
      <trkpt lat="42.98527" lon="22.85163">
        <ele>504.3</ele>
        <time>2022-06-06T08:05:27.000Z</time>
      </trkpt>
      <trkpt lat="42.98521" lon="22.85147">
        <ele>504.83</ele>
        <time>2022-06-06T08:05:32.000Z</time>
      </trkpt>
      <trkpt lat="42.98516" lon="22.85131">
        <ele>505.11</ele>
        <time>2022-06-06T08:05:37.000Z</time>
      </trkpt>
      <trkpt lat="42.98511" lon="22.85116">
        <ele>504.66</ele>
        <time>2022-06-06T08:05:42.000Z</time>
      </trkpt>
      <trkpt lat="42.98512" lon="22.85101">
        <ele>504.7</ele>
        <time>2022-06-06T08:05:47.000Z</time>
      </trkpt>
      <trkpt lat="42.9852" lon="22.85087">
        <ele>505.2</ele>
        <time>2022-06-06T08:06:09.000Z</time>
      </trkpt>
      <trkpt lat="42.9851" lon="22.85099">
        <ele>506.45</ele>
        <time>2022-06-06T08:06:55.000Z</time>
      </trkpt>
      <trkpt lat="42.98507" lon="22.85086">
        <ele>508.07</ele>
        <time>2022-06-06T08:07:35.000Z</time>
      </trkpt>
      <trkpt lat="42.98507" lon="22.85072">
        <ele>508.59</ele>
        <time>2022-06-06T08:07:41.000Z</time>
      </trkpt>
      <trkpt lat="42.98507" lon="22.85058">
        <ele>508.77</ele>
        <time>2022-06-06T08:07:47.000Z</time>
      </trkpt>
      <trkpt lat="42.98503" lon="22.8504">
        <ele>508.89</ele>
        <time>2022-06-06T08:07:52.000Z</time>
      </trkpt>
      <trkpt lat="42.98507" lon="22.85025">
        <ele>509.1</ele>
        <time>2022-06-06T08:07:58.000Z</time>
      </trkpt>
      <trkpt lat="42.9851" lon="22.85">
        <ele>509.49</ele>
        <time>2022-06-06T08:08:03.000Z</time>
      </trkpt>
      <trkpt lat="42.98513" lon="22.84983">
        <ele>509.97</ele>
        <time>2022-06-06T08:08:08.000Z</time>
      </trkpt>
      <trkpt lat="42.98515" lon="22.8497">
        <ele>511.69</ele>
        <time>2022-06-06T08:08:28.000Z</time>
      </trkpt>
      <trkpt lat="42.9851" lon="22.84958">
        <ele>511.58</ele>
        <time>2022-06-06T08:08:36.000Z</time>
      </trkpt>
      <trkpt lat="42.98512" lon="22.84941">
        <ele>511.3</ele>
        <time>2022-06-06T08:08:41.000Z</time>
      </trkpt>
      <trkpt lat="42.98516" lon="22.84916">
        <ele>511.57</ele>
        <time>2022-06-06T08:08:46.000Z</time>
      </trkpt>
      <trkpt lat="42.98517" lon="22.849">
        <ele>512.07</ele>
        <time>2022-06-06T08:08:51.000Z</time>
      </trkpt>
      <trkpt lat="42.98518" lon="22.84885">
        <ele>512.64</ele>
        <time>2022-06-06T08:08:56.000Z</time>
      </trkpt>
      <trkpt lat="42.98517" lon="22.8487">
        <ele>513.93</ele>
        <time>2022-06-06T08:09:01.000Z</time>
      </trkpt>
      <trkpt lat="42.98517" lon="22.84855">
        <ele>514.64</ele>
        <time>2022-06-06T08:09:06.000Z</time>
      </trkpt>
      <trkpt lat="42.98519" lon="22.84838">
        <ele>515.66</ele>
        <time>2022-06-06T08:09:11.000Z</time>
      </trkpt>
      <trkpt lat="42.98521" lon="22.84823">
        <ele>516.73</ele>
        <time>2022-06-06T08:09:16.000Z</time>
      </trkpt>
      <trkpt lat="42.98521" lon="22.8481">
        <ele>518.41</ele>
        <time>2022-06-06T08:09:21.000Z</time>
      </trkpt>
      <trkpt lat="42.98522" lon="22.84794">
        <ele>520.09</ele>
        <time>2022-06-06T08:09:26.000Z</time>
      </trkpt>
      <trkpt lat="42.98522" lon="22.84778">
        <ele>522.22</ele>
        <time>2022-06-06T08:09:31.000Z</time>
      </trkpt>
      <trkpt lat="42.98522" lon="22.84763">
        <ele>524.5</ele>
        <time>2022-06-06T08:09:36.000Z</time>
      </trkpt>
      <trkpt lat="42.98523" lon="22.84746">
        <ele>526.72</ele>
        <time>2022-06-06T08:09:41.000Z</time>
      </trkpt>
      <trkpt lat="42.98522" lon="22.84733">
        <ele>528.6</ele>
        <time>2022-06-06T08:09:46.000Z</time>
      </trkpt>
      <trkpt lat="42.9852" lon="22.8472">
        <ele>529.4</ele>
        <time>2022-06-06T08:09:52.000Z</time>
      </trkpt>
      <trkpt lat="42.98512" lon="22.8471">
        <ele>528.6</ele>
        <time>2022-06-06T08:09:58.000Z</time>
      </trkpt>
      <trkpt lat="42.98498" lon="22.84711">
        <ele>534.52</ele>
        <time>2022-06-06T08:10:48.000Z</time>
      </trkpt>
      <trkpt lat="42.98502" lon="22.84693">
        <ele>535.75</ele>
        <time>2022-06-06T08:11:23.000Z</time>
      </trkpt>
      <trkpt lat="42.98499" lon="22.84704">
        <ele>533.24</ele>
        <time>2022-06-06T08:19:52.000Z</time>
      </trkpt>
      <trkpt lat="42.98504" lon="22.84716">
        <ele>533.1</ele>
        <time>2022-06-06T08:20:09.000Z</time>
      </trkpt>
      <trkpt lat="42.98513" lon="22.84719">
        <ele>533.19</ele>
        <time>2022-06-06T08:20:15.000Z</time>
      </trkpt>
      <trkpt lat="42.98522" lon="22.84721">
        <ele>533.65</ele>
        <time>2022-06-06T08:20:21.000Z</time>
      </trkpt>
      <trkpt lat="42.98533" lon="22.84726">
        <ele>533.68</ele>
        <time>2022-06-06T08:20:26.000Z</time>
      </trkpt>
      <trkpt lat="42.98541" lon="22.84732">
        <ele>533.9</ele>
        <time>2022-06-06T08:20:31.000Z</time>
      </trkpt>
      <trkpt lat="42.98551" lon="22.84737">
        <ele>534.46</ele>
        <time>2022-06-06T08:20:36.000Z</time>
      </trkpt>
      <trkpt lat="42.98561" lon="22.84744">
        <ele>534.75</ele>
        <time>2022-06-06T08:20:41.000Z</time>
      </trkpt>
      <trkpt lat="42.98571" lon="22.84752">
        <ele>535.77</ele>
        <time>2022-06-06T08:20:46.000Z</time>
      </trkpt>
      <trkpt lat="42.98581" lon="22.84757">
        <ele>536.88</ele>
        <time>2022-06-06T08:20:51.000Z</time>
      </trkpt>
      <trkpt lat="42.9859" lon="22.84763">
        <ele>538.22</ele>
        <time>2022-06-06T08:20:56.000Z</time>
      </trkpt>
      <trkpt lat="42.98601" lon="22.84771">
        <ele>539.19</ele>
        <time>2022-06-06T08:21:01.000Z</time>
      </trkpt>
      <trkpt lat="42.9861" lon="22.84778">
        <ele>539.82</ele>
        <time>2022-06-06T08:21:06.000Z</time>
      </trkpt>
      <trkpt lat="42.9862" lon="22.84784">
        <ele>540.17</ele>
        <time>2022-06-06T08:21:11.000Z</time>
      </trkpt>
      <trkpt lat="42.98636" lon="22.84792">
        <ele>540.93</ele>
        <time>2022-06-06T08:21:16.000Z</time>
      </trkpt>
      <trkpt lat="42.98648" lon="22.84799">
        <ele>543.05</ele>
        <time>2022-06-06T08:21:21.000Z</time>
      </trkpt>
      <trkpt lat="42.98659" lon="22.84805">
        <ele>544.1</ele>
        <time>2022-06-06T08:21:26.000Z</time>
      </trkpt>
      <trkpt lat="42.9867" lon="22.8481">
        <ele>544.87</ele>
        <time>2022-06-06T08:21:31.000Z</time>
      </trkpt>
      <trkpt lat="42.98681" lon="22.84813">
        <ele>545.17</ele>
        <time>2022-06-06T08:21:36.000Z</time>
      </trkpt>
      <trkpt lat="42.98695" lon="22.84816">
        <ele>544.97</ele>
        <time>2022-06-06T08:21:41.000Z</time>
      </trkpt>
      <trkpt lat="42.98706" lon="22.84819">
        <ele>544.79</ele>
        <time>2022-06-06T08:21:46.000Z</time>
      </trkpt>
      <trkpt lat="42.98718" lon="22.84821">
        <ele>546.35</ele>
        <time>2022-06-06T08:21:51.000Z</time>
      </trkpt>
      <trkpt lat="42.98732" lon="22.84823">
        <ele>546.06</ele>
        <time>2022-06-06T08:21:56.000Z</time>
      </trkpt>
      <trkpt lat="42.98748" lon="22.84824">
        <ele>546.54</ele>
        <time>2022-06-06T08:22:01.000Z</time>
      </trkpt>
      <trkpt lat="42.98765" lon="22.84824">
        <ele>548.52</ele>
        <time>2022-06-06T08:22:06.000Z</time>
      </trkpt>
      <trkpt lat="42.98782" lon="22.84825">
        <ele>548.22</ele>
        <time>2022-06-06T08:22:11.000Z</time>
      </trkpt>
      <trkpt lat="42.98797" lon="22.84825">
        <ele>549.03</ele>
        <time>2022-06-06T08:22:16.000Z</time>
      </trkpt>
      <trkpt lat="42.98811" lon="22.84827">
        <ele>549.21</ele>
        <time>2022-06-06T08:22:21.000Z</time>
      </trkpt>
      <trkpt lat="42.98826" lon="22.84831">
        <ele>549.31</ele>
        <time>2022-06-06T08:22:26.000Z</time>
      </trkpt>
      <trkpt lat="42.98841" lon="22.84837">
        <ele>550.28</ele>
        <time>2022-06-06T08:22:31.000Z</time>
      </trkpt>
      <trkpt lat="42.98856" lon="22.84847">
        <ele>548.61</ele>
        <time>2022-06-06T08:22:36.000Z</time>
      </trkpt>
      <trkpt lat="42.98863" lon="22.84854">
        <ele>547.58</ele>
        <time>2022-06-06T08:22:43.000Z</time>
      </trkpt>
      <trkpt lat="42.98873" lon="22.84854">
        <ele>542.69</ele>
        <time>2022-06-06T08:23:21.000Z</time>
      </trkpt>
      <trkpt lat="42.98887" lon="22.84871">
        <ele>541.93</ele>
        <time>2022-06-06T08:23:26.000Z</time>
      </trkpt>
      <trkpt lat="42.98907" lon="22.84899">
        <ele>541.18</ele>
        <time>2022-06-06T08:23:31.000Z</time>
      </trkpt>
      <trkpt lat="42.98934" lon="22.84934">
        <ele>538.58</ele>
        <time>2022-06-06T08:23:36.000Z</time>
      </trkpt>
      <trkpt lat="42.98965" lon="22.84975">
        <ele>536.38</ele>
        <time>2022-06-06T08:23:41.000Z</time>
      </trkpt>
      <trkpt lat="42.98992" lon="22.85004">
        <ele>533.61</ele>
        <time>2022-06-06T08:23:46.000Z</time>
      </trkpt>
      <trkpt lat="42.99012" lon="22.85008">
        <ele>531.32</ele>
        <time>2022-06-06T08:23:51.000Z</time>
      </trkpt>
      <trkpt lat="42.99028" lon="22.84996">
        <ele>530.21</ele>
        <time>2022-06-06T08:23:56.000Z</time>
      </trkpt>
      <trkpt lat="42.99046" lon="22.8496">
        <ele>529.42</ele>
        <time>2022-06-06T08:24:01.000Z</time>
      </trkpt>
      <trkpt lat="42.99073" lon="22.84926">
        <ele>527.97</ele>
        <time>2022-06-06T08:24:06.000Z</time>
      </trkpt>
      <trkpt lat="42.99099" lon="22.84929">
        <ele>526.73</ele>
        <time>2022-06-06T08:24:11.000Z</time>
      </trkpt>
      <trkpt lat="42.99114" lon="22.84938">
        <ele>524.23</ele>
        <time>2022-06-06T08:24:16.000Z</time>
      </trkpt>
      <trkpt lat="42.99126" lon="22.84943">
        <ele>523.09</ele>
        <time>2022-06-06T08:24:21.000Z</time>
      </trkpt>
      <trkpt lat="42.99136" lon="22.84946">
        <ele>523.45</ele>
        <time>2022-06-06T08:24:26.000Z</time>
      </trkpt>
      <trkpt lat="42.99151" lon="22.84936">
        <ele>523.9</ele>
        <time>2022-06-06T08:24:31.000Z</time>
      </trkpt>
      <trkpt lat="42.99166" lon="22.84919">
        <ele>522.29</ele>
        <time>2022-06-06T08:24:36.000Z</time>
      </trkpt>
      <trkpt lat="42.9918" lon="22.84901">
        <ele>521.88</ele>
        <time>2022-06-06T08:24:41.000Z</time>
      </trkpt>
      <trkpt lat="42.99195" lon="22.8488">
        <ele>521.43</ele>
        <time>2022-06-06T08:24:46.000Z</time>
      </trkpt>
      <trkpt lat="42.99211" lon="22.84856">
        <ele>521.23</ele>
        <time>2022-06-06T08:24:51.000Z</time>
      </trkpt>
      <trkpt lat="42.99231" lon="22.84822">
        <ele>521.03</ele>
        <time>2022-06-06T08:24:56.000Z</time>
      </trkpt>
      <trkpt lat="42.99254" lon="22.84779">
        <ele>520.53</ele>
        <time>2022-06-06T08:25:01.000Z</time>
      </trkpt>
      <trkpt lat="42.99275" lon="22.84733">
        <ele>520.06</ele>
        <time>2022-06-06T08:25:06.000Z</time>
      </trkpt>
      <trkpt lat="42.99294" lon="22.84684">
        <ele>518.95</ele>
        <time>2022-06-06T08:25:11.000Z</time>
      </trkpt>
      <trkpt lat="42.9931" lon="22.84639">
        <ele>517.8</ele>
        <time>2022-06-06T08:25:16.000Z</time>
      </trkpt>
      <trkpt lat="42.99322" lon="22.84594">
        <ele>516.24</ele>
        <time>2022-06-06T08:25:21.000Z</time>
      </trkpt>
      <trkpt lat="42.99332" lon="22.84548">
        <ele>514.71</ele>
        <time>2022-06-06T08:25:26.000Z</time>
      </trkpt>
      <trkpt lat="42.99339" lon="22.84503">
        <ele>511.05</ele>
        <time>2022-06-06T08:25:31.000Z</time>
      </trkpt>
      <trkpt lat="42.99346" lon="22.84463">
        <ele>508.13</ele>
        <time>2022-06-06T08:25:36.000Z</time>
      </trkpt>
      <trkpt lat="42.99357" lon="22.84431">
        <ele>506.07</ele>
        <time>2022-06-06T08:25:41.000Z</time>
      </trkpt>
      <trkpt lat="42.99365" lon="22.844">
        <ele>503.22</ele>
        <time>2022-06-06T08:25:46.000Z</time>
      </trkpt>
      <trkpt lat="42.99369" lon="22.84374">
        <ele>500.58</ele>
        <time>2022-06-06T08:25:51.000Z</time>
      </trkpt>
      <trkpt lat="42.99372" lon="22.84362">
        <ele>500.27</ele>
        <time>2022-06-06T08:25:56.000Z</time>
      </trkpt>
      <trkpt lat="42.99377" lon="22.84351">
        <ele>503.31</ele>
        <time>2022-06-06T08:26:07.000Z</time>
      </trkpt>
      <trkpt lat="42.9938" lon="22.8433">
        <ele>503.45</ele>
        <time>2022-06-06T08:26:12.000Z</time>
      </trkpt>
      <trkpt lat="42.99383" lon="22.84305">
        <ele>504.04</ele>
        <time>2022-06-06T08:26:17.000Z</time>
      </trkpt>
      <trkpt lat="42.99387" lon="22.8428">
        <ele>504.05</ele>
        <time>2022-06-06T08:26:22.000Z</time>
      </trkpt>
      <trkpt lat="42.99394" lon="22.84256">
        <ele>503.17</ele>
        <time>2022-06-06T08:26:27.000Z</time>
      </trkpt>
      <trkpt lat="42.99402" lon="22.84237">
        <ele>502.66</ele>
        <time>2022-06-06T08:26:32.000Z</time>
      </trkpt>
      <trkpt lat="42.9941" lon="22.84214">
        <ele>502.24</ele>
        <time>2022-06-06T08:26:37.000Z</time>
      </trkpt>
      <trkpt lat="42.99421" lon="22.84189">
        <ele>502.25</ele>
        <time>2022-06-06T08:26:42.000Z</time>
      </trkpt>
      <trkpt lat="42.99433" lon="22.84163">
        <ele>502.11</ele>
        <time>2022-06-06T08:26:47.000Z</time>
      </trkpt>
      <trkpt lat="42.99447" lon="22.84135">
        <ele>502.46</ele>
        <time>2022-06-06T08:26:52.000Z</time>
      </trkpt>
      <trkpt lat="42.9946" lon="22.84106">
        <ele>502.04</ele>
        <time>2022-06-06T08:26:57.000Z</time>
      </trkpt>
      <trkpt lat="42.99474" lon="22.84074">
        <ele>502.49</ele>
        <time>2022-06-06T08:27:02.000Z</time>
      </trkpt>
      <trkpt lat="42.99489" lon="22.84046">
        <ele>501.61</ele>
        <time>2022-06-06T08:27:07.000Z</time>
      </trkpt>
      <trkpt lat="42.99498" lon="22.84029">
        <ele>501.3</ele>
        <time>2022-06-06T08:27:12.000Z</time>
      </trkpt>
      <trkpt lat="42.99505" lon="22.8402">
        <ele>503.28</ele>
        <time>2022-06-06T08:27:21.000Z</time>
      </trkpt>
      <trkpt lat="42.99515" lon="22.84011">
        <ele>503.11</ele>
        <time>2022-06-06T08:27:26.000Z</time>
      </trkpt>
      <trkpt lat="42.99531" lon="22.83996">
        <ele>503</ele>
        <time>2022-06-06T08:27:31.000Z</time>
      </trkpt>
      <trkpt lat="42.99551" lon="22.8398">
        <ele>502.91</ele>
        <time>2022-06-06T08:27:36.000Z</time>
      </trkpt>
      <trkpt lat="42.99572" lon="22.8396">
        <ele>503.2</ele>
        <time>2022-06-06T08:27:41.000Z</time>
      </trkpt>
      <trkpt lat="42.99596" lon="22.83935">
        <ele>502.85</ele>
        <time>2022-06-06T08:27:46.000Z</time>
      </trkpt>
      <trkpt lat="42.9962" lon="22.83903">
        <ele>501.59</ele>
        <time>2022-06-06T08:27:51.000Z</time>
      </trkpt>
      <trkpt lat="42.99637" lon="22.83863">
        <ele>500.19</ele>
        <time>2022-06-06T08:27:56.000Z</time>
      </trkpt>
      <trkpt lat="42.9965" lon="22.83822">
        <ele>499.15</ele>
        <time>2022-06-06T08:28:01.000Z</time>
      </trkpt>
      <trkpt lat="42.9966" lon="22.83782">
        <ele>497.8</ele>
        <time>2022-06-06T08:28:06.000Z</time>
      </trkpt>
      <trkpt lat="42.99669" lon="22.83748">
        <ele>496.58</ele>
        <time>2022-06-06T08:28:11.000Z</time>
      </trkpt>
      <trkpt lat="42.9968" lon="22.83721">
        <ele>496.8</ele>
        <time>2022-06-06T08:28:16.000Z</time>
      </trkpt>
      <trkpt lat="42.99691" lon="22.83688">
        <ele>494.48</ele>
        <time>2022-06-06T08:28:21.000Z</time>
      </trkpt>
      <trkpt lat="42.99698" lon="22.83657">
        <ele>492.24</ele>
        <time>2022-06-06T08:28:26.000Z</time>
      </trkpt>
      <trkpt lat="42.99705" lon="22.83635">
        <ele>490.31</ele>
        <time>2022-06-06T08:28:31.000Z</time>
      </trkpt>
      <trkpt lat="42.9971" lon="22.83619">
        <ele>488.41</ele>
        <time>2022-06-06T08:28:36.000Z</time>
      </trkpt>
      <trkpt lat="42.99713" lon="22.83601">
        <ele>486.43</ele>
        <time>2022-06-06T08:28:41.000Z</time>
      </trkpt>
      <trkpt lat="42.99723" lon="22.83582">
        <ele>484.67</ele>
        <time>2022-06-06T08:28:46.000Z</time>
      </trkpt>
      <trkpt lat="42.99731" lon="22.83564">
        <ele>484.43</ele>
        <time>2022-06-06T08:28:51.000Z</time>
      </trkpt>
      <trkpt lat="42.99743" lon="22.83546">
        <ele>485.88</ele>
        <time>2022-06-06T08:28:56.000Z</time>
      </trkpt>
      <trkpt lat="42.99751" lon="22.83528">
        <ele>484.77</ele>
        <time>2022-06-06T08:29:01.000Z</time>
      </trkpt>
      <trkpt lat="42.99754" lon="22.83516">
        <ele>483.87</ele>
        <time>2022-06-06T08:29:06.000Z</time>
      </trkpt>
      <trkpt lat="42.99743" lon="22.83505">
        <ele>482.2</ele>
        <time>2022-06-06T08:29:19.000Z</time>
      </trkpt>
      <trkpt lat="42.99743" lon="22.83518">
        <ele>481.97</ele>
        <time>2022-06-06T08:29:41.000Z</time>
      </trkpt>
      <trkpt lat="42.99737" lon="22.83527">
        <ele>481.98</ele>
        <time>2022-06-06T08:29:51.000Z</time>
      </trkpt>
      <trkpt lat="42.9973" lon="22.83519">
        <ele>481.97</ele>
        <time>2022-06-06T08:29:58.000Z</time>
      </trkpt>
      <trkpt lat="42.99732" lon="22.83506">
        <ele>482.39</ele>
        <time>2022-06-06T08:30:15.000Z</time>
      </trkpt>
      <trkpt lat="42.99738" lon="22.83496">
        <ele>482.97</ele>
        <time>2022-06-06T08:30:24.000Z</time>
      </trkpt>
      <trkpt lat="42.99741" lon="22.8351">
        <ele>483.35</ele>
        <time>2022-06-06T08:30:42.000Z</time>
      </trkpt>
      <trkpt lat="42.9975" lon="22.83516">
        <ele>480.76</ele>
        <time>2022-06-06T08:31:02.000Z</time>
      </trkpt>
      <trkpt lat="42.99747" lon="22.83503">
        <ele>477.42</ele>
        <time>2022-06-06T08:32:15.000Z</time>
      </trkpt>
      <trkpt lat="42.99747" lon="22.83488">
        <ele>477.49</ele>
        <time>2022-06-06T08:32:22.000Z</time>
      </trkpt>
      <trkpt lat="42.99753" lon="22.83458">
        <ele>477.6</ele>
        <time>2022-06-06T08:32:27.000Z</time>
      </trkpt>
      <trkpt lat="42.99765" lon="22.83431">
        <ele>477.6</ele>
        <time>2022-06-06T08:32:32.000Z</time>
      </trkpt>
      <trkpt lat="42.99776" lon="22.8341">
        <ele>477.48</ele>
        <time>2022-06-06T08:32:37.000Z</time>
      </trkpt>
      <trkpt lat="42.99783" lon="22.83388">
        <ele>476.94</ele>
        <time>2022-06-06T08:32:42.000Z</time>
      </trkpt>
      <trkpt lat="42.99792" lon="22.83364">
        <ele>477.33</ele>
        <time>2022-06-06T08:32:47.000Z</time>
      </trkpt>
      <trkpt lat="42.99804" lon="22.83335">
        <ele>478.34</ele>
        <time>2022-06-06T08:32:52.000Z</time>
      </trkpt>
      <trkpt lat="42.99815" lon="22.83302">
        <ele>478.52</ele>
        <time>2022-06-06T08:32:57.000Z</time>
      </trkpt>
      <trkpt lat="42.99828" lon="22.83271">
        <ele>477.19</ele>
        <time>2022-06-06T08:33:02.000Z</time>
      </trkpt>
      <trkpt lat="42.99841" lon="22.8324">
        <ele>476.2</ele>
        <time>2022-06-06T08:33:07.000Z</time>
      </trkpt>
      <trkpt lat="42.9985" lon="22.8322">
        <ele>476.63</ele>
        <time>2022-06-06T08:33:12.000Z</time>
      </trkpt>
      <trkpt lat="42.99857" lon="22.83208">
        <ele>485.37</ele>
        <time>2022-06-06T08:34:31.000Z</time>
      </trkpt>
      <trkpt lat="42.99865" lon="22.83194">
        <ele>485.69</ele>
        <time>2022-06-06T08:34:36.000Z</time>
      </trkpt>
      <trkpt lat="42.9987" lon="22.8318">
        <ele>485.33</ele>
        <time>2022-06-06T08:34:41.000Z</time>
      </trkpt>
      <trkpt lat="42.99876" lon="22.83165">
        <ele>482.58</ele>
        <time>2022-06-06T08:36:14.000Z</time>
      </trkpt>
      <trkpt lat="42.99866" lon="22.83159">
        <ele>482.07</ele>
        <time>2022-06-06T08:38:02.000Z</time>
      </trkpt>
      <trkpt lat="42.99877" lon="22.83165">
        <ele>482.38</ele>
        <time>2022-06-06T08:38:58.000Z</time>
      </trkpt>
      <trkpt lat="42.99875" lon="22.83152">
        <ele>482</ele>
        <time>2022-06-06T08:39:22.000Z</time>
      </trkpt>
      <trkpt lat="42.9988" lon="22.83139">
        <ele>481.6</ele>
        <time>2022-06-06T08:39:47.000Z</time>
      </trkpt>
      <trkpt lat="42.99881" lon="22.83124">
        <ele>481.6</ele>
        <time>2022-06-06T08:39:53.000Z</time>
      </trkpt>
      <trkpt lat="42.99882" lon="22.83104">
        <ele>481.6</ele>
        <time>2022-06-06T08:39:58.000Z</time>
      </trkpt>
      <trkpt lat="42.99883" lon="22.83076">
        <ele>481.69</ele>
        <time>2022-06-06T08:40:03.000Z</time>
      </trkpt>
      <trkpt lat="42.99886" lon="22.83056">
        <ele>481.68</ele>
        <time>2022-06-06T08:40:08.000Z</time>
      </trkpt>
      <trkpt lat="42.99891" lon="22.83045">
        <ele>483.12</ele>
        <time>2022-06-06T08:41:49.000Z</time>
      </trkpt>
      <trkpt lat="42.99896" lon="22.83031">
        <ele>483</ele>
        <time>2022-06-06T08:41:54.000Z</time>
      </trkpt>
      <trkpt lat="42.99898" lon="22.83018">
        <ele>482.93</ele>
        <time>2022-06-06T08:41:59.000Z</time>
      </trkpt>
      <trkpt lat="42.99902" lon="22.83003">
        <ele>482.9</ele>
        <time>2022-06-06T08:42:04.000Z</time>
      </trkpt>
      <trkpt lat="42.9991" lon="22.8299">
        <ele>482.8</ele>
        <time>2022-06-06T08:42:09.000Z</time>
      </trkpt>
      <trkpt lat="42.99917" lon="22.82971">
        <ele>482.97</ele>
        <time>2022-06-06T08:42:14.000Z</time>
      </trkpt>
      <trkpt lat="42.99923" lon="22.82946">
        <ele>483.37</ele>
        <time>2022-06-06T08:42:19.000Z</time>
      </trkpt>
      <trkpt lat="42.99928" lon="22.82919">
        <ele>482.7</ele>
        <time>2022-06-06T08:42:24.000Z</time>
      </trkpt>
      <trkpt lat="42.99936" lon="22.82892">
        <ele>481.8</ele>
        <time>2022-06-06T08:42:29.000Z</time>
      </trkpt>
      <trkpt lat="42.99945" lon="22.82864">
        <ele>481.68</ele>
        <time>2022-06-06T08:42:34.000Z</time>
      </trkpt>
      <trkpt lat="42.99955" lon="22.82834">
        <ele>482.27</ele>
        <time>2022-06-06T08:42:39.000Z</time>
      </trkpt>
      <trkpt lat="42.99964" lon="22.82807">
        <ele>482.22</ele>
        <time>2022-06-06T08:42:44.000Z</time>
      </trkpt>
      <trkpt lat="42.99971" lon="22.82783">
        <ele>482.1</ele>
        <time>2022-06-06T08:42:49.000Z</time>
      </trkpt>
      <trkpt lat="42.99976" lon="22.82758">
        <ele>482.26</ele>
        <time>2022-06-06T08:42:54.000Z</time>
      </trkpt>
      <trkpt lat="42.99982" lon="22.82731">
        <ele>481.81</ele>
        <time>2022-06-06T08:42:59.000Z</time>
      </trkpt>
      <trkpt lat="42.99988" lon="22.82704">
        <ele>481.51</ele>
        <time>2022-06-06T08:43:04.000Z</time>
      </trkpt>
      <trkpt lat="42.99998" lon="22.82676">
        <ele>481.76</ele>
        <time>2022-06-06T08:43:09.000Z</time>
      </trkpt>
      <trkpt lat="43.00005" lon="22.82649">
        <ele>481.9</ele>
        <time>2022-06-06T08:43:14.000Z</time>
      </trkpt>
      <trkpt lat="43.0001" lon="22.82623">
        <ele>481.32</ele>
        <time>2022-06-06T08:43:19.000Z</time>
      </trkpt>
      <trkpt lat="43.00015" lon="22.82593">
        <ele>481.18</ele>
        <time>2022-06-06T08:43:24.000Z</time>
      </trkpt>
      <trkpt lat="43.0002" lon="22.82566">
        <ele>480.83</ele>
        <time>2022-06-06T08:43:29.000Z</time>
      </trkpt>
      <trkpt lat="43.00025" lon="22.82539">
        <ele>480.83</ele>
        <time>2022-06-06T08:43:34.000Z</time>
      </trkpt>
      <trkpt lat="43.00031" lon="22.82511">
        <ele>480.5</ele>
        <time>2022-06-06T08:43:39.000Z</time>
      </trkpt>
      <trkpt lat="43.00037" lon="22.8248">
        <ele>481.06</ele>
        <time>2022-06-06T08:43:44.000Z</time>
      </trkpt>
      <trkpt lat="43.00039" lon="22.82452">
        <ele>480.66</ele>
        <time>2022-06-06T08:43:49.000Z</time>
      </trkpt>
      <trkpt lat="43.00038" lon="22.82428">
        <ele>479.6</ele>
        <time>2022-06-06T08:43:54.000Z</time>
      </trkpt>
      <trkpt lat="43.00043" lon="22.82407">
        <ele>479.03</ele>
        <time>2022-06-06T08:43:59.000Z</time>
      </trkpt>
      <trkpt lat="43.00045" lon="22.82393">
        <ele>479.46</ele>
        <time>2022-06-06T08:44:04.000Z</time>
      </trkpt>
      <trkpt lat="43.00049" lon="22.82381">
        <ele>482.29</ele>
        <time>2022-06-06T08:44:30.000Z</time>
      </trkpt>
      <trkpt lat="43.00055" lon="22.82363">
        <ele>482.96</ele>
        <time>2022-06-06T08:44:35.000Z</time>
      </trkpt>
      <trkpt lat="43.00065" lon="22.82347">
        <ele>485.35</ele>
        <time>2022-06-06T08:44:40.000Z</time>
      </trkpt>
      <trkpt lat="43.00074" lon="22.82335">
        <ele>486.98</ele>
        <time>2022-06-06T08:44:45.000Z</time>
      </trkpt>
      <trkpt lat="43.00084" lon="22.82322">
        <ele>487.84</ele>
        <time>2022-06-06T08:44:50.000Z</time>
      </trkpt>
      <trkpt lat="43.00094" lon="22.8231">
        <ele>487.48</ele>
        <time>2022-06-06T08:44:55.000Z</time>
      </trkpt>
      <trkpt lat="43.00109" lon="22.82294">
        <ele>488.02</ele>
        <time>2022-06-06T08:45:00.000Z</time>
      </trkpt>
      <trkpt lat="43.00129" lon="22.82271">
        <ele>487.49</ele>
        <time>2022-06-06T08:45:05.000Z</time>
      </trkpt>
      <trkpt lat="43.00152" lon="22.8224">
        <ele>486.3</ele>
        <time>2022-06-06T08:45:10.000Z</time>
      </trkpt>
      <trkpt lat="43.00175" lon="22.82204">
        <ele>484.02</ele>
        <time>2022-06-06T08:45:15.000Z</time>
      </trkpt>
      <trkpt lat="43.00185" lon="22.82169">
        <ele>482.05</ele>
        <time>2022-06-06T08:45:20.000Z</time>
      </trkpt>
      <trkpt lat="43.0019" lon="22.82137">
        <ele>479.76</ele>
        <time>2022-06-06T08:45:25.000Z</time>
      </trkpt>
      <trkpt lat="43.00195" lon="22.82105">
        <ele>477.53</ele>
        <time>2022-06-06T08:45:30.000Z</time>
      </trkpt>
      <trkpt lat="43.00198" lon="22.82077">
        <ele>474.88</ele>
        <time>2022-06-06T08:45:35.000Z</time>
      </trkpt>
      <trkpt lat="43.00201" lon="22.82049">
        <ele>473.85</ele>
        <time>2022-06-06T08:45:40.000Z</time>
      </trkpt>
      <trkpt lat="43.00203" lon="22.82021">
        <ele>471.91</ele>
        <time>2022-06-06T08:45:45.000Z</time>
      </trkpt>
      <trkpt lat="43.00204" lon="22.81994">
        <ele>470.35</ele>
        <time>2022-06-06T08:45:50.000Z</time>
      </trkpt>
      <trkpt lat="43.00208" lon="22.81971">
        <ele>468.58</ele>
        <time>2022-06-06T08:45:55.000Z</time>
      </trkpt>
      <trkpt lat="43.00209" lon="22.81947">
        <ele>467.6</ele>
        <time>2022-06-06T08:46:00.000Z</time>
      </trkpt>
      <trkpt lat="43.00211" lon="22.81922">
        <ele>466.59</ele>
        <time>2022-06-06T08:46:05.000Z</time>
      </trkpt>
      <trkpt lat="43.00214" lon="22.81899">
        <ele>466.62</ele>
        <time>2022-06-06T08:46:10.000Z</time>
      </trkpt>
      <trkpt lat="43.00218" lon="22.81876">
        <ele>466.75</ele>
        <time>2022-06-06T08:46:15.000Z</time>
      </trkpt>
      <trkpt lat="43.00222" lon="22.81853">
        <ele>467.63</ele>
        <time>2022-06-06T08:46:20.000Z</time>
      </trkpt>
      <trkpt lat="43.00227" lon="22.81828">
        <ele>469.48</ele>
        <time>2022-06-06T08:46:25.000Z</time>
      </trkpt>
      <trkpt lat="43.0023" lon="22.81802">
        <ele>470.92</ele>
        <time>2022-06-06T08:46:30.000Z</time>
      </trkpt>
      <trkpt lat="43.00236" lon="22.81774">
        <ele>471.36</ele>
        <time>2022-06-06T08:46:35.000Z</time>
      </trkpt>
      <trkpt lat="43.00242" lon="22.81747">
        <ele>472.23</ele>
        <time>2022-06-06T08:46:40.000Z</time>
      </trkpt>
      <trkpt lat="43.00246" lon="22.81722">
        <ele>473.25</ele>
        <time>2022-06-06T08:46:45.000Z</time>
      </trkpt>
      <trkpt lat="43.0025" lon="22.81697">
        <ele>474.02</ele>
        <time>2022-06-06T08:46:50.000Z</time>
      </trkpt>
      <trkpt lat="43.00255" lon="22.81672">
        <ele>475.17</ele>
        <time>2022-06-06T08:46:55.000Z</time>
      </trkpt>
      <trkpt lat="43.0026" lon="22.81647">
        <ele>475.49</ele>
        <time>2022-06-06T08:47:00.000Z</time>
      </trkpt>
      <trkpt lat="43.00264" lon="22.81622">
        <ele>475.45</ele>
        <time>2022-06-06T08:47:05.000Z</time>
      </trkpt>
      <trkpt lat="43.00269" lon="22.81597">
        <ele>475.73</ele>
        <time>2022-06-06T08:47:10.000Z</time>
      </trkpt>
      <trkpt lat="43.00274" lon="22.81576">
        <ele>476.42</ele>
        <time>2022-06-06T08:47:15.000Z</time>
      </trkpt>
      <trkpt lat="43.00278" lon="22.81556">
        <ele>476.33</ele>
        <time>2022-06-06T08:47:20.000Z</time>
      </trkpt>
      <trkpt lat="43.00281" lon="22.81541">
        <ele>475.46</ele>
        <time>2022-06-06T08:47:25.000Z</time>
      </trkpt>
      <trkpt lat="43.00282" lon="22.81528">
        <ele>474.66</ele>
        <time>2022-06-06T08:47:51.000Z</time>
      </trkpt>
      <trkpt lat="43.00283" lon="22.81515">
        <ele>474.17</ele>
        <time>2022-06-06T08:47:59.000Z</time>
      </trkpt>
      <trkpt lat="43.00287" lon="22.81504">
        <ele>474.77</ele>
        <time>2022-06-06T08:48:05.000Z</time>
      </trkpt>
      <trkpt lat="43.00289" lon="22.81491">
        <ele>476.83</ele>
        <time>2022-06-06T08:49:34.000Z</time>
      </trkpt>
      <trkpt lat="43.00294" lon="22.81471">
        <ele>476.63</ele>
        <time>2022-06-06T08:49:39.000Z</time>
      </trkpt>
      <trkpt lat="43.00301" lon="22.81445">
        <ele>476.13</ele>
        <time>2022-06-06T08:49:44.000Z</time>
      </trkpt>
      <trkpt lat="43.00308" lon="22.81417">
        <ele>475.63</ele>
        <time>2022-06-06T08:49:49.000Z</time>
      </trkpt>
      <trkpt lat="43.00315" lon="22.81387">
        <ele>476.02</ele>
        <time>2022-06-06T08:49:54.000Z</time>
      </trkpt>
      <trkpt lat="43.00322" lon="22.81355">
        <ele>476.59</ele>
        <time>2022-06-06T08:49:59.000Z</time>
      </trkpt>
      <trkpt lat="43.00327" lon="22.81326">
        <ele>476.81</ele>
        <time>2022-06-06T08:50:04.000Z</time>
      </trkpt>
      <trkpt lat="43.00333" lon="22.813">
        <ele>476.51</ele>
        <time>2022-06-06T08:50:09.000Z</time>
      </trkpt>
      <trkpt lat="43.00339" lon="22.81275">
        <ele>476.08</ele>
        <time>2022-06-06T08:50:14.000Z</time>
      </trkpt>
      <trkpt lat="43.00344" lon="22.8125">
        <ele>475.43</ele>
        <time>2022-06-06T08:50:19.000Z</time>
      </trkpt>
      <trkpt lat="43.00345" lon="22.81225">
        <ele>474.99</ele>
        <time>2022-06-06T08:50:24.000Z</time>
      </trkpt>
      <trkpt lat="43.00345" lon="22.812">
        <ele>474.98</ele>
        <time>2022-06-06T08:50:29.000Z</time>
      </trkpt>
      <trkpt lat="43.0035" lon="22.81172">
        <ele>475.24</ele>
        <time>2022-06-06T08:50:34.000Z</time>
      </trkpt>
      <trkpt lat="43.0036" lon="22.81141">
        <ele>475.56</ele>
        <time>2022-06-06T08:50:39.000Z</time>
      </trkpt>
      <trkpt lat="43.00377" lon="22.81111">
        <ele>475.75</ele>
        <time>2022-06-06T08:50:44.000Z</time>
      </trkpt>
      <trkpt lat="43.00393" lon="22.81076">
        <ele>475.11</ele>
        <time>2022-06-06T08:50:49.000Z</time>
      </trkpt>
      <trkpt lat="43.00407" lon="22.81037">
        <ele>473.32</ele>
        <time>2022-06-06T08:50:54.000Z</time>
      </trkpt>
      <trkpt lat="43.00418" lon="22.81001">
        <ele>472.3</ele>
        <time>2022-06-06T08:50:59.000Z</time>
      </trkpt>
      <trkpt lat="43.00428" lon="22.80967">
        <ele>471.05</ele>
        <time>2022-06-06T08:51:04.000Z</time>
      </trkpt>
      <trkpt lat="43.00439" lon="22.8093">
        <ele>469.77</ele>
        <time>2022-06-06T08:51:09.000Z</time>
      </trkpt>
      <trkpt lat="43.0045" lon="22.80895">
        <ele>466.72</ele>
        <time>2022-06-06T08:51:14.000Z</time>
      </trkpt>
      <trkpt lat="43.0046" lon="22.80859">
        <ele>464.61</ele>
        <time>2022-06-06T08:51:19.000Z</time>
      </trkpt>
      <trkpt lat="43.00473" lon="22.80824">
        <ele>464.55</ele>
        <time>2022-06-06T08:51:24.000Z</time>
      </trkpt>
      <trkpt lat="43.00484" lon="22.80789">
        <ele>463.21</ele>
        <time>2022-06-06T08:51:29.000Z</time>
      </trkpt>
      <trkpt lat="43.00495" lon="22.80756">
        <ele>462.43</ele>
        <time>2022-06-06T08:51:34.000Z</time>
      </trkpt>
      <trkpt lat="43.00509" lon="22.80724">
        <ele>461.14</ele>
        <time>2022-06-06T08:51:39.000Z</time>
      </trkpt>
      <trkpt lat="43.00522" lon="22.80695">
        <ele>460.48</ele>
        <time>2022-06-06T08:51:44.000Z</time>
      </trkpt>
      <trkpt lat="43.00538" lon="22.80666">
        <ele>459.93</ele>
        <time>2022-06-06T08:51:49.000Z</time>
      </trkpt>
      <trkpt lat="43.00557" lon="22.80639">
        <ele>460.66</ele>
        <time>2022-06-06T08:51:54.000Z</time>
      </trkpt>
      <trkpt lat="43.00579" lon="22.80614">
        <ele>463.84</ele>
        <time>2022-06-06T08:51:59.000Z</time>
      </trkpt>
      <trkpt lat="43.006" lon="22.80591">
        <ele>467.35</ele>
        <time>2022-06-06T08:52:04.000Z</time>
      </trkpt>
      <trkpt lat="43.00624" lon="22.80569">
        <ele>473.2</ele>
        <time>2022-06-06T08:52:09.000Z</time>
      </trkpt>
      <trkpt lat="43.00646" lon="22.80546">
        <ele>475.02</ele>
        <time>2022-06-06T08:52:14.000Z</time>
      </trkpt>
      <trkpt lat="43.00666" lon="22.80524">
        <ele>475.76</ele>
        <time>2022-06-06T08:52:19.000Z</time>
      </trkpt>
      <trkpt lat="43.00687" lon="22.80503">
        <ele>475.28</ele>
        <time>2022-06-06T08:52:24.000Z</time>
      </trkpt>
      <trkpt lat="43.00709" lon="22.80481">
        <ele>475.45</ele>
        <time>2022-06-06T08:52:29.000Z</time>
      </trkpt>
      <trkpt lat="43.00732" lon="22.80457">
        <ele>475.21</ele>
        <time>2022-06-06T08:52:34.000Z</time>
      </trkpt>
      <trkpt lat="43.00754" lon="22.80432">
        <ele>473.46</ele>
        <time>2022-06-06T08:52:39.000Z</time>
      </trkpt>
      <trkpt lat="43.00776" lon="22.80404">
        <ele>470.93</ele>
        <time>2022-06-06T08:52:44.000Z</time>
      </trkpt>
      <trkpt lat="43.00798" lon="22.80378">
        <ele>468.8</ele>
        <time>2022-06-06T08:52:49.000Z</time>
      </trkpt>
      <trkpt lat="43.00821" lon="22.8035">
        <ele>468.01</ele>
        <time>2022-06-06T08:52:54.000Z</time>
      </trkpt>
      <trkpt lat="43.00845" lon="22.8032">
        <ele>467.53</ele>
        <time>2022-06-06T08:52:59.000Z</time>
      </trkpt>
      <trkpt lat="43.00871" lon="22.80289">
        <ele>466.96</ele>
        <time>2022-06-06T08:53:04.000Z</time>
      </trkpt>
      <trkpt lat="43.00902" lon="22.80262">
        <ele>466.51</ele>
        <time>2022-06-06T08:53:09.000Z</time>
      </trkpt>
      <trkpt lat="43.00931" lon="22.80235">
        <ele>465.96</ele>
        <time>2022-06-06T08:53:14.000Z</time>
      </trkpt>
      <trkpt lat="43.0096" lon="22.80205">
        <ele>465.16</ele>
        <time>2022-06-06T08:53:19.000Z</time>
      </trkpt>
      <trkpt lat="43.00991" lon="22.80169">
        <ele>464.66</ele>
        <time>2022-06-06T08:53:24.000Z</time>
      </trkpt>
      <trkpt lat="43.01018" lon="22.80129">
        <ele>462.84</ele>
        <time>2022-06-06T08:53:29.000Z</time>
      </trkpt>
      <trkpt lat="43.01043" lon="22.80089">
        <ele>461.12</ele>
        <time>2022-06-06T08:53:34.000Z</time>
      </trkpt>
      <trkpt lat="43.01064" lon="22.8005">
        <ele>459.27</ele>
        <time>2022-06-06T08:53:39.000Z</time>
      </trkpt>
      <trkpt lat="43.01082" lon="22.80013">
        <ele>456.48</ele>
        <time>2022-06-06T08:53:44.000Z</time>
      </trkpt>
      <trkpt lat="43.01105" lon="22.79976">
        <ele>453.89</ele>
        <time>2022-06-06T08:53:49.000Z</time>
      </trkpt>
      <trkpt lat="43.01122" lon="22.79941">
        <ele>451.6</ele>
        <time>2022-06-06T08:53:54.000Z</time>
      </trkpt>
      <trkpt lat="43.01141" lon="22.79909">
        <ele>450.14</ele>
        <time>2022-06-06T08:53:59.000Z</time>
      </trkpt>
      <trkpt lat="43.01159" lon="22.79881">
        <ele>447.23</ele>
        <time>2022-06-06T08:54:04.000Z</time>
      </trkpt>
      <trkpt lat="43.01177" lon="22.79856">
        <ele>445.91</ele>
        <time>2022-06-06T08:54:09.000Z</time>
      </trkpt>
      <trkpt lat="43.01199" lon="22.79832">
        <ele>444.85</ele>
        <time>2022-06-06T08:54:14.000Z</time>
      </trkpt>
      <trkpt lat="43.01222" lon="22.7981">
        <ele>446.67</ele>
        <time>2022-06-06T08:54:19.000Z</time>
      </trkpt>
      <trkpt lat="43.01244" lon="22.79787">
        <ele>447.02</ele>
        <time>2022-06-06T08:54:24.000Z</time>
      </trkpt>
      <trkpt lat="43.01268" lon="22.79765">
        <ele>450.94</ele>
        <time>2022-06-06T08:54:29.000Z</time>
      </trkpt>
      <trkpt lat="43.01293" lon="22.79742">
        <ele>452.39</ele>
        <time>2022-06-06T08:54:34.000Z</time>
      </trkpt>
      <trkpt lat="43.01316" lon="22.79718">
        <ele>450.71</ele>
        <time>2022-06-06T08:54:39.000Z</time>
      </trkpt>
      <trkpt lat="43.01336" lon="22.79693">
        <ele>450.95</ele>
        <time>2022-06-06T08:54:44.000Z</time>
      </trkpt>
      <trkpt lat="43.01355" lon="22.79665">
        <ele>450.61</ele>
        <time>2022-06-06T08:54:49.000Z</time>
      </trkpt>
      <trkpt lat="43.0137" lon="22.79635">
        <ele>450.06</ele>
        <time>2022-06-06T08:54:54.000Z</time>
      </trkpt>
      <trkpt lat="43.01383" lon="22.79605">
        <ele>449.81</ele>
        <time>2022-06-06T08:54:59.000Z</time>
      </trkpt>
      <trkpt lat="43.01395" lon="22.79574">
        <ele>449.17</ele>
        <time>2022-06-06T08:55:04.000Z</time>
      </trkpt>
      <trkpt lat="43.01406" lon="22.79545">
        <ele>448.74</ele>
        <time>2022-06-06T08:55:09.000Z</time>
      </trkpt>
      <trkpt lat="43.01417" lon="22.79515">
        <ele>448.4</ele>
        <time>2022-06-06T08:55:14.000Z</time>
      </trkpt>
      <trkpt lat="43.01429" lon="22.79485">
        <ele>448.13</ele>
        <time>2022-06-06T08:55:19.000Z</time>
      </trkpt>
      <trkpt lat="43.01444" lon="22.79453">
        <ele>447.89</ele>
        <time>2022-06-06T08:55:24.000Z</time>
      </trkpt>
      <trkpt lat="43.01455" lon="22.79422">
        <ele>447.59</ele>
        <time>2022-06-06T08:55:29.000Z</time>
      </trkpt>
      <trkpt lat="43.01467" lon="22.7939">
        <ele>447.54</ele>
        <time>2022-06-06T08:55:34.000Z</time>
      </trkpt>
      <trkpt lat="43.01477" lon="22.7936">
        <ele>447.89</ele>
        <time>2022-06-06T08:55:39.000Z</time>
      </trkpt>
      <trkpt lat="43.01489" lon="22.7933">
        <ele>447.32</ele>
        <time>2022-06-06T08:55:44.000Z</time>
      </trkpt>
      <trkpt lat="43.01499" lon="22.793">
        <ele>447.4</ele>
        <time>2022-06-06T08:55:49.000Z</time>
      </trkpt>
      <trkpt lat="43.01512" lon="22.79269">
        <ele>448.24</ele>
        <time>2022-06-06T08:55:54.000Z</time>
      </trkpt>
      <trkpt lat="43.01522" lon="22.79237">
        <ele>449.95</ele>
        <time>2022-06-06T08:55:59.000Z</time>
      </trkpt>
      <trkpt lat="43.01533" lon="22.79205">
        <ele>451.01</ele>
        <time>2022-06-06T08:56:04.000Z</time>
      </trkpt>
      <trkpt lat="43.01543" lon="22.79175">
        <ele>451.37</ele>
        <time>2022-06-06T08:56:09.000Z</time>
      </trkpt>
      <trkpt lat="43.01551" lon="22.79145">
        <ele>451.95</ele>
        <time>2022-06-06T08:56:14.000Z</time>
      </trkpt>
      <trkpt lat="43.01556" lon="22.79116">
        <ele>452.28</ele>
        <time>2022-06-06T08:56:19.000Z</time>
      </trkpt>
      <trkpt lat="43.01561" lon="22.79087">
        <ele>453.01</ele>
        <time>2022-06-06T08:56:24.000Z</time>
      </trkpt>
      <trkpt lat="43.01567" lon="22.79057">
        <ele>454.13</ele>
        <time>2022-06-06T08:56:29.000Z</time>
      </trkpt>
      <trkpt lat="43.01572" lon="22.79026">
        <ele>454.83</ele>
        <time>2022-06-06T08:56:34.000Z</time>
      </trkpt>
      <trkpt lat="43.01577" lon="22.78995">
        <ele>455.12</ele>
        <time>2022-06-06T08:56:39.000Z</time>
      </trkpt>
      <trkpt lat="43.01582" lon="22.78965">
        <ele>456.83</ele>
        <time>2022-06-06T08:56:44.000Z</time>
      </trkpt>
      <trkpt lat="43.01586" lon="22.78934">
        <ele>458.27</ele>
        <time>2022-06-06T08:56:49.000Z</time>
      </trkpt>
      <trkpt lat="43.01588" lon="22.78903">
        <ele>458.43</ele>
        <time>2022-06-06T08:56:54.000Z</time>
      </trkpt>
      <trkpt lat="43.01589" lon="22.78872">
        <ele>458.47</ele>
        <time>2022-06-06T08:56:59.000Z</time>
      </trkpt>
      <trkpt lat="43.01591" lon="22.78839">
        <ele>458.27</ele>
        <time>2022-06-06T08:57:04.000Z</time>
      </trkpt>
      <trkpt lat="43.01591" lon="22.78804">
        <ele>458.96</ele>
        <time>2022-06-06T08:57:09.000Z</time>
      </trkpt>
      <trkpt lat="43.01589" lon="22.78769">
        <ele>459.53</ele>
        <time>2022-06-06T08:57:14.000Z</time>
      </trkpt>
      <trkpt lat="43.01587" lon="22.78736">
        <ele>459.01</ele>
        <time>2022-06-06T08:57:19.000Z</time>
      </trkpt>
      <trkpt lat="43.01586" lon="22.78704">
        <ele>459.89</ele>
        <time>2022-06-06T08:57:24.000Z</time>
      </trkpt>
      <trkpt lat="43.01585" lon="22.78673">
        <ele>459.18</ele>
        <time>2022-06-06T08:57:29.000Z</time>
      </trkpt>
      <trkpt lat="43.01583" lon="22.78644">
        <ele>458.75</ele>
        <time>2022-06-06T08:57:34.000Z</time>
      </trkpt>
      <trkpt lat="43.01582" lon="22.78616">
        <ele>457.87</ele>
        <time>2022-06-06T08:57:39.000Z</time>
      </trkpt>
      <trkpt lat="43.01582" lon="22.78589">
        <ele>457.32</ele>
        <time>2022-06-06T08:57:44.000Z</time>
      </trkpt>
      <trkpt lat="43.01582" lon="22.78565">
        <ele>457.01</ele>
        <time>2022-06-06T08:57:49.000Z</time>
      </trkpt>
      <trkpt lat="43.01581" lon="22.78544">
        <ele>457.19</ele>
        <time>2022-06-06T08:57:54.000Z</time>
      </trkpt>
      <trkpt lat="43.01579" lon="22.78524">
        <ele>457.52</ele>
        <time>2022-06-06T08:57:59.000Z</time>
      </trkpt>
      <trkpt lat="43.01579" lon="22.78505">
        <ele>455.76</ele>
        <time>2022-06-06T08:58:04.000Z</time>
      </trkpt>
      <trkpt lat="43.0158" lon="22.78486">
        <ele>454.78</ele>
        <time>2022-06-06T08:58:09.000Z</time>
      </trkpt>
      <trkpt lat="43.01579" lon="22.78468">
        <ele>454.04</ele>
        <time>2022-06-06T08:58:14.000Z</time>
      </trkpt>
      <trkpt lat="43.0158" lon="22.7845">
        <ele>453.53</ele>
        <time>2022-06-06T08:58:19.000Z</time>
      </trkpt>
      <trkpt lat="43.01582" lon="22.78434">
        <ele>453.51</ele>
        <time>2022-06-06T08:58:24.000Z</time>
      </trkpt>
      <trkpt lat="43.01586" lon="22.78422">
        <ele>454.47</ele>
        <time>2022-06-06T08:58:46.000Z</time>
      </trkpt>
      <trkpt lat="43.01587" lon="22.78409">
        <ele>454.08</ele>
        <time>2022-06-06T08:59:14.000Z</time>
      </trkpt>
      <trkpt lat="43.0159" lon="22.78386">
        <ele>454.17</ele>
        <time>2022-06-06T08:59:19.000Z</time>
      </trkpt>
      <trkpt lat="43.01597" lon="22.7835">
        <ele>455.93</ele>
        <time>2022-06-06T08:59:24.000Z</time>
      </trkpt>
      <trkpt lat="43.01601" lon="22.78308">
        <ele>456.52</ele>
        <time>2022-06-06T08:59:29.000Z</time>
      </trkpt>
      <trkpt lat="43.01603" lon="22.78264">
        <ele>457.4</ele>
        <time>2022-06-06T08:59:34.000Z</time>
      </trkpt>
      <trkpt lat="43.01603" lon="22.78225">
        <ele>457.31</ele>
        <time>2022-06-06T08:59:39.000Z</time>
      </trkpt>
      <trkpt lat="43.01601" lon="22.78187">
        <ele>455.61</ele>
        <time>2022-06-06T08:59:44.000Z</time>
      </trkpt>
      <trkpt lat="43.01604" lon="22.78152">
        <ele>455.55</ele>
        <time>2022-06-06T08:59:49.000Z</time>
      </trkpt>
      <trkpt lat="43.01603" lon="22.78121">
        <ele>456.41</ele>
        <time>2022-06-06T08:59:54.000Z</time>
      </trkpt>
      <trkpt lat="43.01605" lon="22.78092">
        <ele>457.85</ele>
        <time>2022-06-06T08:59:59.000Z</time>
      </trkpt>
      <trkpt lat="43.01605" lon="22.78065">
        <ele>458.09</ele>
        <time>2022-06-06T09:00:04.000Z</time>
      </trkpt>
      <trkpt lat="43.01604" lon="22.78038">
        <ele>457.95</ele>
        <time>2022-06-06T09:00:09.000Z</time>
      </trkpt>
      <trkpt lat="43.01603" lon="22.78015">
        <ele>456.89</ele>
        <time>2022-06-06T09:00:14.000Z</time>
      </trkpt>
      <trkpt lat="43.01604" lon="22.7799">
        <ele>455.53</ele>
        <time>2022-06-06T09:00:19.000Z</time>
      </trkpt>
      <trkpt lat="43.01603" lon="22.77965">
        <ele>455.73</ele>
        <time>2022-06-06T09:00:24.000Z</time>
      </trkpt>
      <trkpt lat="43.01602" lon="22.7794">
        <ele>456.12</ele>
        <time>2022-06-06T09:00:29.000Z</time>
      </trkpt>
      <trkpt lat="43.016" lon="22.77915">
        <ele>456.08</ele>
        <time>2022-06-06T09:00:34.000Z</time>
      </trkpt>
      <trkpt lat="43.01599" lon="22.77892">
        <ele>455.81</ele>
        <time>2022-06-06T09:00:39.000Z</time>
      </trkpt>
      <trkpt lat="43.01599" lon="22.77873">
        <ele>454.26</ele>
        <time>2022-06-06T09:00:44.000Z</time>
      </trkpt>
      <trkpt lat="43.01598" lon="22.77861">
        <ele>452.74</ele>
        <time>2022-06-06T09:00:52.000Z</time>
      </trkpt>
      <trkpt lat="43.01599" lon="22.77846">
        <ele>451.72</ele>
        <time>2022-06-06T09:00:58.000Z</time>
      </trkpt>
      <trkpt lat="43.01596" lon="22.7783">
        <ele>451.79</ele>
        <time>2022-06-06T09:01:03.000Z</time>
      </trkpt>
      <trkpt lat="43.01592" lon="22.77816">
        <ele>451.9</ele>
        <time>2022-06-06T09:01:08.000Z</time>
      </trkpt>
      <trkpt lat="43.01588" lon="22.77799">
        <ele>452.16</ele>
        <time>2022-06-06T09:01:13.000Z</time>
      </trkpt>
      <trkpt lat="43.01581" lon="22.77784">
        <ele>452.47</ele>
        <time>2022-06-06T09:01:18.000Z</time>
      </trkpt>
      <trkpt lat="43.01571" lon="22.77772">
        <ele>452.59</ele>
        <time>2022-06-06T09:01:23.000Z</time>
      </trkpt>
      <trkpt lat="43.01563" lon="22.77759">
        <ele>452.99</ele>
        <time>2022-06-06T09:01:28.000Z</time>
      </trkpt>
      <trkpt lat="43.01555" lon="22.77743">
        <ele>453.1</ele>
        <time>2022-06-06T09:01:33.000Z</time>
      </trkpt>
      <trkpt lat="43.01549" lon="22.77734">
        <ele>452.93</ele>
        <time>2022-06-06T09:01:38.000Z</time>
      </trkpt>
      <trkpt lat="43.01543" lon="22.77723">
        <ele>452.43</ele>
        <time>2022-06-06T09:01:43.000Z</time>
      </trkpt>
      <trkpt lat="43.0154" lon="22.77701">
        <ele>454.3</ele>
        <time>2022-06-06T09:02:38.000Z</time>
      </trkpt>
      <trkpt lat="43.01532" lon="22.77693">
        <ele>454.5</ele>
        <time>2022-06-06T09:02:43.000Z</time>
      </trkpt>
      <trkpt lat="43.01525" lon="22.77684">
        <ele>454.23</ele>
        <time>2022-06-06T09:02:48.000Z</time>
      </trkpt>
      <trkpt lat="43.01517" lon="22.77676">
        <ele>453.25</ele>
        <time>2022-06-06T09:02:57.000Z</time>
      </trkpt>
      <trkpt lat="43.01509" lon="22.77666">
        <ele>453.09</ele>
        <time>2022-06-06T09:03:06.000Z</time>
      </trkpt>
      <trkpt lat="43.01489" lon="22.77602">
        <ele>460</ele>
        <time>2022-06-05T16:14:07Z</time>
      </trkpt>
      <trkpt lat="43.01419" lon="22.77362">
        <ele>453</ele>
        <time>2022-06-05T16:14:41Z</time>
      </trkpt>
      <trkpt lat="43.01409" lon="22.77336">
        <ele>452</ele>
        <time>2022-06-05T16:14:45Z</time>
      </trkpt>
      <trkpt lat="43.01415" lon="22.77322">
        <ele>452</ele>
        <time>2022-06-05T16:14:47Z</time>
      </trkpt>
      <trkpt lat="43.01228" lon="22.76704">
        <ele>449</ele>
        <time>2022-06-05T16:16:14Z</time>
      </trkpt>
      <trkpt lat="43.01165" lon="22.76504">
        <ele>449</ele>
        <time>2022-06-05T16:16:42Z</time>
      </trkpt>
      <trkpt lat="43.0115" lon="22.7646">
        <ele>450</ele>
        <time>2022-06-05T16:16:49Z</time>
      </trkpt>
      <trkpt lat="43.01134" lon="22.76422">
        <ele>450</ele>
        <time>2022-06-05T16:16:54Z</time>
      </trkpt>
      <trkpt lat="43.01124" lon="22.76402">
        <ele>450</ele>
        <time>2022-06-05T16:16:57Z</time>
      </trkpt>
      <trkpt lat="43.01102" lon="22.7637">
        <ele>450</ele>
        <time>2022-06-05T16:17:03Z</time>
      </trkpt>
      <trkpt lat="43.01091" lon="22.76339">
        <ele>450</ele>
        <time>2022-06-05T16:17:08Z</time>
      </trkpt>
      <trkpt lat="43.01022" lon="22.76076">
        <ele>450</ele>
        <time>2022-06-05T16:17:44Z</time>
      </trkpt>
      <trkpt lat="43.01014" lon="22.76023">
        <ele>449</ele>
        <time>2022-06-05T16:17:51Z</time>
      </trkpt>
      <trkpt lat="43.0101" lon="22.75963">
        <ele>448</ele>
        <time>2022-06-05T16:17:59Z</time>
      </trkpt>
      <trkpt lat="43.01078" lon="22.75648">
        <ele>446</ele>
        <time>2022-06-05T16:18:42Z</time>
      </trkpt>
      <trkpt lat="43.01139" lon="22.75346">
        <ele>445</ele>
        <time>2022-06-05T16:19:22Z</time>
      </trkpt>
      <trkpt lat="43.01145" lon="22.75309">
        <ele>445</ele>
        <time>2022-06-05T16:19:27Z</time>
      </trkpt>
      <trkpt lat="43.01153" lon="22.75271">
        <ele>444</ele>
        <time>2022-06-05T16:19:32Z</time>
      </trkpt>
      <trkpt lat="43.01187" lon="22.75198">
        <ele>444</ele>
        <time>2022-06-05T16:19:44Z</time>
      </trkpt>
      <trkpt lat="43.012" lon="22.75166">
        <ele>445</ele>
        <time>2022-06-05T16:19:48Z</time>
      </trkpt>
      <trkpt lat="43.01205" lon="22.75148">
        <ele>445</ele>
        <time>2022-06-05T16:19:51Z</time>
      </trkpt>
      <trkpt lat="43.01219" lon="22.75097">
        <ele>444</ele>
        <time>2022-06-05T16:19:58Z</time>
      </trkpt>
      <trkpt lat="43.01284" lon="22.74813">
        <ele>443</ele>
        <time>2022-06-05T16:20:37Z</time>
      </trkpt>
      <trkpt lat="43.01356" lon="22.74522">
        <ele>447</ele>
        <time>2022-06-05T16:21:17Z</time>
      </trkpt>
      <trkpt lat="43.0141" lon="22.74313">
        <ele>449</ele>
        <time>2022-06-05T16:21:46Z</time>
      </trkpt>
      <trkpt lat="43.01444" lon="22.74198">
        <ele>452</ele>
        <time>2022-06-05T16:22:02Z</time>
      </trkpt>
      <trkpt lat="43.01471" lon="22.74092">
        <ele>451</ele>
        <time>2022-06-05T16:22:16Z</time>
      </trkpt>
      <trkpt lat="43.01588" lon="22.7358">
        <ele>448</ele>
        <time>2022-06-05T16:23:26Z</time>
      </trkpt>
      <trkpt lat="43.01609" lon="22.73425">
        <ele>446</ele>
        <time>2022-06-05T16:23:47Z</time>
      </trkpt>
      <trkpt lat="43.01615" lon="22.73405">
        <ele>446</ele>
        <time>2022-06-05T16:23:49Z</time>
      </trkpt>
      <trkpt lat="43.01625" lon="22.73379">
        <ele>446</ele>
        <time>2022-06-05T16:23:53Z</time>
      </trkpt>
      <trkpt lat="43.01671" lon="22.73297">
        <ele>446</ele>
        <time>2022-06-05T16:24:07Z</time>
      </trkpt>
      <trkpt lat="43.01826" lon="22.73035">
        <ele>445</ele>
        <time>2022-06-05T16:24:51Z</time>
      </trkpt>
      <trkpt lat="43.01885" lon="22.72963">
        <ele>443</ele>
        <time>2022-06-05T16:25:05Z</time>
      </trkpt>
      <trkpt lat="43.01889" lon="22.72948">
        <ele>443</ele>
        <time>2022-06-05T16:25:07Z</time>
      </trkpt>
      <trkpt lat="43.01893" lon="22.72912">
        <ele>443</ele>
        <time>2022-06-05T16:25:11Z</time>
      </trkpt>
      <trkpt lat="43.01908" lon="22.72881">
        <ele>444</ele>
        <time>2022-06-05T16:25:16Z</time>
      </trkpt>
      <trkpt lat="43.01915" lon="22.72861">
        <ele>444</ele>
        <time>2022-06-05T16:25:19Z</time>
      </trkpt>
      <trkpt lat="43.01918" lon="22.72848">
        <ele>444</ele>
        <time>2022-06-05T16:25:21Z</time>
      </trkpt>
      <trkpt lat="43.01984" lon="22.72734">
        <ele>445</ele>
        <time>2022-06-05T16:25:40Z</time>
      </trkpt>
      <trkpt lat="43.02057" lon="22.72593">
        <ele>444</ele>
        <time>2022-06-05T16:26:02Z</time>
      </trkpt>
      <trkpt lat="43.02097" lon="22.72535">
        <ele>441</ele>
        <time>2022-06-05T16:26:13Z</time>
      </trkpt>
      <trkpt lat="43.0214" lon="22.72497">
        <ele>441</ele>
        <time>2022-06-05T16:26:22Z</time>
      </trkpt>
      <trkpt lat="43.02286" lon="22.72381">
        <ele>437</ele>
        <time>2022-06-05T16:26:52Z</time>
      </trkpt>
      <trkpt lat="43.02293" lon="22.72376">
        <ele>437</ele>
        <time>2022-06-05T16:26:53Z</time>
      </trkpt>
      <trkpt lat="43.02455" lon="22.72252">
        <ele>434</ele>
        <time>2022-06-05T16:27:26Z</time>
      </trkpt>
      <trkpt lat="43.02533" lon="22.72197">
        <ele>435</ele>
        <time>2022-06-05T16:27:42Z</time>
      </trkpt>
      <trkpt lat="43.02586" lon="22.72178">
        <ele>437</ele>
        <time>2022-06-05T16:27:52Z</time>
      </trkpt>
      <trkpt lat="43.03145" lon="22.71998">
        <ele>439</ele>
        <time>2022-06-05T16:29:34Z</time>
      </trkpt>
      <trkpt lat="43.03215" lon="22.71968">
        <ele>441</ele>
        <time>2022-06-05T16:29:47Z</time>
      </trkpt>
      <trkpt lat="43.03266" lon="22.71929">
        <ele>442</ele>
        <time>2022-06-05T16:29:57Z</time>
      </trkpt>
      <trkpt lat="43.03309" lon="22.7188">
        <ele>442</ele>
        <time>2022-06-05T16:30:07Z</time>
      </trkpt>
      <trkpt lat="43.03345" lon="22.71825">
        <ele>441</ele>
        <time>2022-06-05T16:30:17Z</time>
      </trkpt>
      <trkpt lat="43.03369" lon="22.71769">
        <ele>440</ele>
        <time>2022-06-05T16:30:25Z</time>
      </trkpt>
      <trkpt lat="43.03392" lon="22.71691">
        <ele>439</ele>
        <time>2022-06-05T16:30:36Z</time>
      </trkpt>
      <trkpt lat="43.03438" lon="22.71473">
        <ele>438</ele>
        <time>2022-06-05T16:31:06Z</time>
      </trkpt>
      <trkpt lat="43.03462" lon="22.714">
        <ele>437</ele>
        <time>2022-06-05T16:31:16Z</time>
      </trkpt>
      <trkpt lat="43.03484" lon="22.7135">
        <ele>437</ele>
        <time>2022-06-05T16:31:24Z</time>
      </trkpt>
      <trkpt lat="43.035" lon="22.71322">
        <ele>437</ele>
        <time>2022-06-05T16:31:28Z</time>
      </trkpt>
      <trkpt lat="43.03529" lon="22.71283">
        <ele>437</ele>
        <time>2022-06-05T16:31:36Z</time>
      </trkpt>
      <trkpt lat="43.03555" lon="22.71255">
        <ele>436</ele>
        <time>2022-06-05T16:31:41Z</time>
      </trkpt>
      <trkpt lat="43.03897" lon="22.70944">
        <ele>435</ele>
        <time>2022-06-05T16:32:55Z</time>
      </trkpt>
      <trkpt lat="43.03905" lon="22.70936">
        <ele>435</ele>
        <time>2022-06-05T16:32:56Z</time>
      </trkpt>
      <trkpt lat="43.04335" lon="22.70544">
        <ele>427</ele>
        <time>2022-06-05T16:34:28Z</time>
      </trkpt>
      <trkpt lat="43.04427" lon="22.70457">
        <ele>427</ele>
        <time>2022-06-05T16:34:48Z</time>
      </trkpt>
      <trkpt lat="43.05265" lon="22.69692">
        <ele>423</ele>
        <time>2022-06-05T16:37:47Z</time>
      </trkpt>
      <trkpt lat="43.05644" lon="22.69342">
        <ele>430</ele>
        <time>2022-06-05T16:39:09Z</time>
      </trkpt>
      <trkpt lat="43.05667" lon="22.69313">
        <ele>429</ele>
        <time>2022-06-05T16:39:14Z</time>
      </trkpt>
      <trkpt lat="43.05689" lon="22.69279">
        <ele>429</ele>
        <time>2022-06-05T16:39:20Z</time>
      </trkpt>
      <trkpt lat="43.0571" lon="22.69233">
        <ele>428</ele>
        <time>2022-06-05T16:39:27Z</time>
      </trkpt>
      <trkpt lat="43.05847" lon="22.68798">
        <ele>426</ele>
        <time>2022-06-05T16:40:29Z</time>
      </trkpt>
      <trkpt lat="43.05877" lon="22.68708">
        <ele>424</ele>
        <time>2022-06-05T16:40:42Z</time>
      </trkpt>
      <trkpt lat="43.0592" lon="22.68615">
        <ele>422</ele>
        <time>2022-06-05T16:40:56Z</time>
      </trkpt>
      <trkpt lat="43.05965" lon="22.68542">
        <ele>419</ele>
        <time>2022-06-05T16:41:08Z</time>
      </trkpt>
      <trkpt lat="43.06015" lon="22.68459">
        <ele>418</ele>
        <time>2022-06-05T16:41:22Z</time>
      </trkpt>
      <trkpt lat="43.06136" lon="22.68269">
        <ele>416</ele>
        <time>2022-06-05T16:41:55Z</time>
      </trkpt>
      <trkpt lat="43.06175" lon="22.68216">
        <ele>415</ele>
        <time>2022-06-05T16:42:05Z</time>
      </trkpt>
      <trkpt lat="43.06306" lon="22.68069">
        <ele>415</ele>
        <time>2022-06-05T16:42:35Z</time>
      </trkpt>
      <trkpt lat="43.06779" lon="22.67591">
        <ele>415</ele>
        <time>2022-06-05T16:44:20Z</time>
      </trkpt>
      <trkpt lat="43.0711" lon="22.67247">
        <ele>418</ele>
        <time>2022-06-05T16:45:34Z</time>
      </trkpt>
      <trkpt lat="43.08231" lon="22.66096">
        <ele>410</ele>
        <time>2022-06-05T16:49:43Z</time>
      </trkpt>
      <trkpt lat="43.08493" lon="22.65834">
        <ele>409</ele>
        <time>2022-06-05T16:50:41Z</time>
      </trkpt>
      <trkpt lat="43.09165" lon="22.65139">
        <ele>401</ele>
        <time>2022-06-05T16:53:11Z</time>
      </trkpt>
      <trkpt lat="43.10622" lon="22.63638">
        <ele>391</ele>
        <time>2022-06-05T16:58:35Z</time>
      </trkpt>
      <trkpt lat="43.1149" lon="22.62755">
        <ele>386</ele>
        <time>2022-06-05T17:01:47Z</time>
      </trkpt>
      <trkpt lat="43.1161" lon="22.62624">
        <ele>386</ele>
        <time>2022-06-05T17:02:15Z</time>
      </trkpt>
      <trkpt lat="43.11632" lon="22.62591">
        <ele>385</ele>
        <time>2022-06-05T17:02:20Z</time>
      </trkpt>
      <trkpt lat="43.11653" lon="22.62553">
        <ele>386</ele>
        <time>2022-06-05T17:02:27Z</time>
      </trkpt>
      <trkpt lat="43.11738" lon="22.62368">
        <ele>386</ele>
        <time>2022-06-05T17:02:55Z</time>
      </trkpt>
      <trkpt lat="43.11752" lon="22.62342">
        <ele>386</ele>
        <time>2022-06-05T17:02:59Z</time>
      </trkpt>
      <trkpt lat="43.11784" lon="22.62303">
        <ele>386</ele>
        <time>2022-06-05T17:03:07Z</time>
      </trkpt>
      <trkpt lat="43.11798" lon="22.62292">
        <ele>386</ele>
        <time>2022-06-05T17:03:10Z</time>
      </trkpt>
      <trkpt lat="43.11829" lon="22.62274">
        <ele>385</ele>
        <time>2022-06-05T17:03:16Z</time>
      </trkpt>
      <trkpt lat="43.1186" lon="22.62267">
        <ele>385</ele>
        <time>2022-06-05T17:03:21Z</time>
      </trkpt>
      <trkpt lat="43.11935" lon="22.62257">
        <ele>385</ele>
        <time>2022-06-05T17:03:35Z</time>
      </trkpt>
      <trkpt lat="43.11962" lon="22.6225">
        <ele>384</ele>
        <time>2022-06-05T17:03:40Z</time>
      </trkpt>
      <trkpt lat="43.11982" lon="22.6224">
        <ele>384</ele>
        <time>2022-06-05T17:03:43Z</time>
      </trkpt>
      <trkpt lat="43.12001" lon="22.62226">
        <ele>383</ele>
        <time>2022-06-05T17:03:47Z</time>
      </trkpt>
      <trkpt lat="43.12175" lon="22.62054">
        <ele>383</ele>
        <time>2022-06-05T17:04:25Z</time>
      </trkpt>
      <trkpt lat="43.12193" lon="22.62042">
        <ele>383</ele>
        <time>2022-06-05T17:04:29Z</time>
      </trkpt>
      <trkpt lat="43.12236" lon="22.62022">
        <ele>383</ele>
        <time>2022-06-05T17:04:37Z</time>
      </trkpt>
      <trkpt lat="43.1228" lon="22.62002">
        <ele>383</ele>
        <time>2022-06-05T17:04:45Z</time>
      </trkpt>
      <trkpt lat="43.12319" lon="22.61976">
        <ele>383</ele>
        <time>2022-06-05T17:04:53Z</time>
      </trkpt>
      <trkpt lat="43.12338" lon="22.6196">
        <ele>383</ele>
        <time>2022-06-05T17:04:57Z</time>
      </trkpt>
      <trkpt lat="43.12422" lon="22.61873">
        <ele>382</ele>
        <time>2022-06-05T17:05:16Z</time>
      </trkpt>
      <trkpt lat="43.12467" lon="22.61825">
        <ele>383</ele>
        <time>2022-06-05T17:05:26Z</time>
      </trkpt>
      <trkpt lat="43.12474" lon="22.61814">
        <ele>383</ele>
        <time>2022-06-05T17:05:28Z</time>
      </trkpt>
      <trkpt lat="43.12494" lon="22.61781">
        <ele>383</ele>
        <time>2022-06-05T17:05:33Z</time>
      </trkpt>
      <trkpt lat="43.12554" lon="22.61661">
        <ele>381</ele>
        <time>2022-06-05T17:05:52Z</time>
      </trkpt>
      <trkpt lat="43.1262" lon="22.61596">
        <ele>382</ele>
        <time>2022-06-05T17:06:07Z</time>
      </trkpt>
      <trkpt lat="43.12731" lon="22.61481">
        <ele>382</ele>
        <time>2022-06-05T17:06:31Z</time>
      </trkpt>
      <trkpt lat="43.12861" lon="22.61342">
        <ele>380</ele>
        <time>2022-06-05T17:07:01Z</time>
      </trkpt>
      <trkpt lat="43.12887" lon="22.61311">
        <ele>380</ele>
        <time>2022-06-05T17:07:07Z</time>
      </trkpt>
      <trkpt lat="43.12928" lon="22.61253">
        <ele>381</ele>
        <time>2022-06-05T17:07:17Z</time>
      </trkpt>
      <trkpt lat="43.12965" lon="22.612">
        <ele>379</ele>
        <time>2022-06-05T17:07:27Z</time>
      </trkpt>
      <trkpt lat="43.12997" lon="22.61139">
        <ele>378</ele>
        <time>2022-06-05T17:07:37Z</time>
      </trkpt>
      <trkpt lat="43.13059" lon="22.61013">
        <ele>380</ele>
        <time>2022-06-05T17:07:56Z</time>
      </trkpt>
      <trkpt lat="43.13085" lon="22.60945">
        <ele>381</ele>
        <time>2022-06-05T17:08:06Z</time>
      </trkpt>
      <trkpt lat="43.13097" lon="22.60921">
        <ele>381</ele>
        <time>2022-06-05T17:08:10Z</time>
      </trkpt>
      <trkpt lat="43.13111" lon="22.60904">
        <ele>380</ele>
        <time>2022-06-05T17:08:13Z</time>
      </trkpt>
      <trkpt lat="43.13124" lon="22.60892">
        <ele>380</ele>
        <time>2022-06-05T17:08:16Z</time>
      </trkpt>
      <trkpt lat="43.13149" lon="22.60879">
        <ele>380</ele>
        <time>2022-06-05T17:08:21Z</time>
      </trkpt>
      <trkpt lat="43.13161" lon="22.60877">
        <ele>380</ele>
        <time>2022-06-05T17:08:23Z</time>
      </trkpt>
      <trkpt lat="43.13172" lon="22.60878">
        <ele>380</ele>
        <time>2022-06-05T17:08:25Z</time>
      </trkpt>
      <trkpt lat="43.13228" lon="22.609">
        <ele>378</ele>
        <time>2022-06-05T17:08:35Z</time>
      </trkpt>
      <trkpt lat="43.13244" lon="22.60907">
        <ele>377</ele>
        <time>2022-06-05T17:08:38Z</time>
      </trkpt>
      <trkpt lat="43.13267" lon="22.60909">
        <ele>378</ele>
        <time>2022-06-05T17:08:43Z</time>
      </trkpt>
      <trkpt lat="43.13293" lon="22.60899">
        <ele>378</ele>
        <time>2022-06-05T17:08:47Z</time>
      </trkpt>
      <trkpt lat="43.13373" lon="22.60821">
        <ele>379</ele>
        <time>2022-06-05T17:09:05Z</time>
      </trkpt>
      <trkpt lat="43.13928" lon="22.60249">
        <ele>376</ele>
        <time>2022-06-05T17:11:08Z</time>
      </trkpt>
      <trkpt lat="43.14106" lon="22.60062">
        <ele>375</ele>
        <time>2022-06-05T17:11:48Z</time>
      </trkpt>
      <trkpt lat="43.14198" lon="22.59945">
        <ele>374</ele>
        <time>2022-06-05T17:12:11Z</time>
      </trkpt>
      <trkpt lat="43.14224" lon="22.59915">
        <ele>374</ele>
        <time>2022-06-05T17:12:17Z</time>
      </trkpt>
      <trkpt lat="43.14234" lon="22.59903">
        <ele>374</ele>
        <time>2022-06-05T17:12:19Z</time>
      </trkpt>
      <trkpt lat="43.14273" lon="22.59847">
        <ele>373</ele>
        <time>2022-06-05T17:12:29Z</time>
      </trkpt>
      <trkpt lat="43.1449" lon="22.59565">
        <ele>371</ele>
        <time>2022-06-05T17:13:22Z</time>
      </trkpt>
      <trkpt lat="43.14565" lon="22.59462">
        <ele>371</ele>
        <time>2022-06-05T17:13:41Z</time>
      </trkpt>
      <trkpt lat="43.14577" lon="22.59474">
        <ele>370</ele>
        <time>2022-06-05T17:13:44Z</time>
      </trkpt>
      <trkpt lat="43.14566" lon="22.59497">
        <ele>370</ele>
        <time>2022-06-05T17:13:47Z</time>
      </trkpt>
      <trkpt lat="43.14565" lon="22.59505">
        <ele>370</ele>
        <time>2022-06-05T17:13:48Z</time>
      </trkpt>
      <trkpt lat="43.14574" lon="22.59516">
        <ele>370</ele>
        <time>2022-06-05T17:13:51Z</time>
      </trkpt>
      <trkpt lat="43.14577" lon="22.59526">
        <ele>370</ele>
        <time>2022-06-05T17:13:52Z</time>
      </trkpt>
    </trkseg>
  </trk>
</gpx>